[[{"header":{"parameterUnit":"m.s-1","parameterCategory":1,"la1":31.0,"la2":29.5877,"lo1":-88.7671,"lo2":-86.6584,"dy":0.0162,"dx":0.0185,"nx":115,"ny":88,"refTime":"2023-09-20T18:00:00:Z","depth":0,"parameterNumber":2,"parameterNumberName":"U-component_of_WINDS"},"data":[0.0,0.0,0.0,0.0,0.0,0.0,0.0,0.0,0.0,0.0,0.0,0.0,0.0,0.0,0.0,0.0,0.0,0.0,0.0,0.0,0.0,0.0,0.0,0.0,0.0,0.0,0.0,0.0,0.0,0.0,0.0,0.0,0.0,0.0,0.0,0.0,0.0,0.0,0.0,0.0,0.0,0.0,0.0,0.0,0.0,0.0,0.0,0.0,0.0,0.0,0.0,0.0,0.0,0.0,0.0,0.0,0.0,0.0,0.0,0.0,0.0,0.0,0.0,0.0,0.0,0.0,0.0,0.0,0.0,0.0,0.0,0.0,0.0,0.0,0.0,0.0,0.0,0.0,0.0,0.0,0.0,0.0,0.0,0.0,0.0,0.0,0.0,0.0,0.0,0.0,0.0,0.0,0.0,0.0,0.0,0.0,0.0,0.0,0.0,0.0,0.0,0.0,0.0,0.0,0.0,0.0,0.0,0.0,0.0,0.0,0.0,0.0,0.0,0.0,0.0,0.0,0.0,0.0,0.0,0.0,0.0,0.0,0.0,0.0,0.0,0.0,0.0,0.0,0.0,0.0,0.0,0.0,0.0,0.0,0.0,0.0,0.0,0.0,0.0,0.0,0.0,0.0,0.0,0.0,0.0,0.0,0.0,0.0,0.0,0.0,0.0,0.0,0.0,0.0,0.0,0.0,0.0,0.0,0.0,0.0,0.0,0.0,0.0,0.0,0.0,0.0,0.0,0.0,0.0,0.0,0.0,0.0,0.0,0.0,0.0,0.0,0.0,0.0,0.0,0.0,0.0,0.0,0.0,0.0,0.0,0.0,0.0,0.0,0.0,0.0,0.0,0.0,0.0,0.0,0.0,0.0,0.0,0.0,0.0,0.0,0.0,0.0,0.0,0.0,0.0,0.0,0.0,0.0,0.0,0.0,0.0,0.0,0.0,0.0,0.0,0.0,0.0,0.0,0.0,0.0,0.0,0.0,0.0,0.0,0.0,0.0,0.0,0.0,0.0,0.0,0.0,0.0,0.0,0.0,0.0,0.0,0.0,0.0,0.0,0.0,0.0,0.0,0.0,0.0,0.0,0.0,0.0,0.0,0.0,0.0,0.0,0.0,0.0,0.0,0.0,0.0,0.0,0.0,0.0,0.0,0.0,0.0,0.0,0.0,0.0,0.0,0.0,0.0,0.0,0.0,0.0,0.0,0.0,0.0,0.0,0.0,0.0,0.0,0.0,0.0,0.0,0.0,0.0,0.0,0.0,0.0,0.0,0.0,0.0,0.0,0.0,0.0,0.0,0.0,0.0,0.0,0.0,0.0,0.0,0.0,0.0,0.0,0.0,0.0,0.0,0.0,0.0,0.0,0.0,0.0,0.0,0.0,0.0,0.0,0.0,0.0,0.0,0.0,0.0,0.0,0.0,0.0,0.0,0.0,0.0,0.0,0.0,0.0,0.0,0.0,0.0,0.0,0.0,0.0,0.0,0.0,0.0,0.0,0.0,0.0,0.0,0.0,0.0,0.0,0.0,0.0,0.0,0.0,0.0,0.0,0.0,0.0,0.0,0.0,0.0,0.0,0.0,0.0,0.0,0.0,0.0,0.0,0.0,0.0,0.0,0.0,0.0,0.0,0.0,0.0,0.0,0.0,0.0,0.0,0.0,0.0,0.0,0.0,0.0,0.0,0.0,0.0,0.0,0.0,0.0,0.0,0.0,0.0,0.0,0.0,0.0,0.0,0.0,0.0,0.0,0.0,0.0,0.0,0.0,0.0,0.0,0.0,0.0,0.0,0.0,0.0,0.0,0.0,0.0,0.0,0.0,0.0,0.0,0.0,0.0,0.0,0.0,0.0,0.0,0.0,0.0,0.0,0.0,0.0,0.0,0.0,0.0,0.0,0.0,0.0,0.0,0.0,0.0,0.0,0.0,0.0,0.0,0.0,0.0,0.0,0.0,0.0,0.0,0.0,0.0,0.0,0.0,0.0,0.0,0.0,0.0,0.0,0.0,0.0,0.0,0.0,0.0,0.0,0.0,0.0,0.0,0.0,0.0,0.0,0.0,0.0,0.0,0.0,0.0,0.0,0.0,0.0,0.0,0.0,0.0,0.0,0.0,0.0,0.0,0.0,0.0,0.0,0.0,0.0,0.0,0.0,0.0,0.0,0.0,0.0,0.0,0.0,0.0,0.0,0.0,0.0,0.0,0.0,0.0,0.0,0.0,0.0,0.0,0.0,0.0,0.0,0.0,0.0,0.0,0.0,0.0,0.0,0.0,0.0,0.0,0.0,0.0,0.0,0.0,0.0,0.0,0.0,0.0,0.0,0.0,0.0,0.0,0.0,0.0,0.0,0.0,0.0,0.0,0.0,0.0,0.0,0.0,0.0,0.0,0.0,0.0,0.0,0.0,0.0,0.0,0.0,0.0,0.0,0.0,0.0,0.0,0.0,0.0,0.0,0.0,0.0,0.0,0.0,0.0,0.0,0.0,0.0,0.0,0.0,0.0,0.0,0.0,0.0,0.0,0.0,0.0,0.0,0.0,0.0,0.0,0.0,0.0,0.0,0.0,0.0,0.0,0.0,0.0,0.0,0.0,0.0,0.0,0.0,0.0,0.0,0.0,0.0,0.0,0.0,0.0,0.0,0.0,0.0,0.0,0.0,0.0,0.0,0.0,0.0,0.0,0.0,0.0,0.0,0.0,0.0,0.0,0.0,0.0,0.0,0.0,0.0,0.0,0.0,0.0,0.0,0.0,0.0,0.0,0.0,0.0,0.0,0.0,0.0,0.0,0.0,0.0,0.0,0.0,0.0,0.0,0.0,0.0,0.0,0.0,0.0,0.0,0.0,0.0,0.0,0.0,0.0,0.0,0.0,0.0,0.0,0.0,0.0,0.0,0.0,0.0,0.0,0.0,0.0,0.0,0.0,0.0,0.0,0.0,0.0,0.0,0.0,0.0,0.0,0.0,0.0,0.0,0.0,0.0,0.0,0.0,0.0,0.0,0.0,0.0,0.0,0.0,0.0,0.0,0.0,0.0,0.0,0.0,0.0,0.0,0.0,0.0,0.0,0.0,0.0,0.0,0.0,0.0,0.0,0.0,0.0,0.0,0.0,0.0,0.0,0.0,0.0,0.0,0.0,0.0,0.0,0.0,0.0,0.0,0.0,0.0,0.0,0.0,0.0,0.0,0.0,0.0,0.0,0.0,0.0,0.0,0.0,0.0,0.0,0.0,0.0,0.0,0.0,0.0,0.0,0.0,0.0,0.0,0.0,0.0,0.0,0.0,0.0,0.0,0.0,0.0,0.0,0.0,0.0,0.0,0.0,0.0,0.0,0.0,0.0,0.0,0.0,0.0,0.0,0.0,0.0,0.0,0.0,0.0,0.0,0.0,0.0,0.0,0.0,0.0,0.0,0.0,0.0,0.0,0.0,0.0,0.0,0.0,0.0,0.0,0.0,0.0,0.0,0.0,0.0,0.0,0.0,0.0,0.0,0.0,0.0,0.0,0.0,0.0,0.0,0.0,0.0,0.0,0.0,0.0,0.0,0.0,0.0,0.0,0.0,0.0,0.0,0.0,0.0,0.0,0.0,0.0,0.0,0.0,0.0,0.0,0.0,0.0,0.0,0.0,0.0,0.0,0.0,0.0,0.0,0.0,0.0,0.0,0.0,0.0,0.0,0.0,0.0,0.0,0.0,0.0,0.0,0.0,0.0,0.0,0.0,0.0,0.0,0.0,0.0,0.0,0.0,0.0,0.0,0.0,0.0,0.0,0.0,0.0,0.0,0.0,0.0,0.0,0.0,0.0,0.0,0.0,0.0,0.0,0.0,0.0,0.0,0.0,0.0,0.0,0.0,0.0,0.0,0.0,0.0,0.0,0.0,0.0,0.0,0.0,0.0,0.0,0.0,0.0,0.0,0.0,0.0,0.0,0.0,0.0,0.0,0.0,0.0,0.0,0.0,0.0,0.0,0.0,0.0,0.0,0.0,0.0,0.0,0.0,0.0,0.0,0.0,0.0,0.0,0.0,0.0,0.0,0.0,0.0,0.0,0.0,0.0,0.0,0.0,0.0,0.0,0.0,0.0,0.0,0.0,0.0,0.0,0.0,0.0,0.0,0.0,0.0,0.0,0.0,0.0,0.0,0.0,0.0,0.0,0.0,0.0,0.0,0.0,0.0,0.0,0.0,0.0,0.0,0.0,0.0,0.0,0.0,0.0,0.0,0.0,0.0,0.0,0.0,0.0,0.0,0.0,0.0,0.0,0.0,0.0,0.0,0.0,1.3019,0.0,0.0,0.0,0.0,0.0,0.0,0.0,0.0,0.0,0.0,0.0,0.0,0.0,0.0,0.0,0.0,0.0,0.0,0.0,0.0,0.0,0.0,0.0,0.0,0.0,0.0,0.0,0.0,0.0,0.0,0.0,0.0,0.0,0.0,0.0,0.0,0.0,0.0,0.0,0.0,0.0,0.0,0.0,0.0,0.0,0.0,0.0,0.0,0.0,0.0,0.0,0.0,0.0,0.0,0.0,0.0,0.0,0.0,0.0,0.0,0.0,0.0,0.0,0.0,0.0,0.0,0.0,0.0,0.0,0.0,0.0,0.0,0.0,0.0,0.0,0.0,0.0,0.0,0.0,0.0,0.0,0.0,0.0,0.0,0.0,0.0,0.0,0.0,0.0,0.0,0.0,0.0,0.0,0.0,0.0,0.0,0.0,0.0,0.0,0.0,0.0,0.0,0.0,0.0,0.0,0.0,0.0,0.0,0.0,0.0,1.3944,1.3568,1.3677,1.3519,1.3062,0.0,0.0,0.0,0.0,0.0,0.0,0.0,0.0,0.0,0.0,0.0,0.0,0.0,0.0,0.0,0.0,0.0,0.0,0.0,0.0,0.0,0.0,0.0,0.0,0.0,0.0,0.0,0.0,0.0,0.0,0.0,0.0,0.0,0.0,0.0,0.0,0.0,0.0,0.0,0.0,0.0,0.0,0.0,0.0,0.0,0.0,0.0,0.0,0.0,0.0,0.0,0.0,0.0,0.0,0.0,0.0,0.0,0.0,0.0,0.0,0.0,0.0,0.0,0.0,0.0,0.0,0.0,0.0,0.0,0.0,0.0,0.0,0.0,0.0,0.0,0.0,0.0,0.0,0.0,0.0,0.0,0.0,0.0,0.0,0.0,0.0,0.0,0.0,0.0,0.0,0.0,0.0,0.0,0.0,0.0,0.0,0.0,0.0,0.0,0.0,0.0,0.0,0.0,0.0,0.0,0.0,0.0,0.0,0.0,0.0,0.0,0.0,1.37,1.3531,1.3001,0.0,0.0,0.0,0.0,0.0,0.0,0.0,0.0,0.0,0.0,0.0,0.0,0.0,0.0,0.0,0.0,0.0,0.0,0.0,0.0,0.0,0.0,0.0,0.0,0.0,0.0,0.0,0.0,0.0,0.0,0.0,0.0,0.0,0.0,0.0,0.0,0.0,0.0,0.0,0.0,0.0,0.0,0.0,0.0,0.0,0.0,0.0,0.0,0.0,0.0,0.0,0.0,0.0,0.0,0.0,0.0,0.0,0.0,0.0,0.0,0.0,0.0,0.0,0.0,0.0,0.0,0.0,0.0,0.0,0.0,0.0,0.0,0.0,0.0,0.0,0.0,0.0,0.0,0.0,0.0,0.0,0.0,0.0,0.0,0.0,0.0,0.0,0.0,0.0,0.0,0.0,0.0,0.0,0.0,0.0,0.0,0.0,0.0,0.0,0.0,0.0,0.0,0.0,0.0,0.0,0.0,0.0,0.0,0.0,0.0,1.4032,1.4794,1.4147,0.0,1.2958,0.0,0.0,0.0,0.0,0.0,0.0,0.0,0.0,0.0,0.0,0.0,0.0,0.0,0.0,0.0,0.0,0.0,0.0,0.0,0.0,0.0,0.0,0.0,0.0,0.0,0.0,0.0,0.0,0.0,0.0,0.0,0.0,0.0,0.0,0.0,0.0,0.0,0.0,0.0,0.0,0.0,0.0,0.0,0.0,0.0,0.0,0.0,0.0,0.0,0.0,0.0,0.0,0.0,0.0,0.0,0.0,0.0,0.0,0.0,0.0,0.0,0.0,0.0,0.0,0.0,0.0,0.0,0.0,0.0,0.0,0.0,0.0,0.0,0.0,0.0,0.0,0.0,0.0,0.0,0.0,0.0,0.0,0.0,0.0,0.0,0.0,0.0,0.0,0.0,0.0,0.0,0.0,0.0,0.0,0.0,0.0,0.0,0.0,0.0,0.0,0.0,0.0,0.0,0.0,0.0,0.0,0.0,0.0,0.0,0.0,1.377,1.4169,1.3631,1.3048,0.0,0.0,0.0,0.0,0.0,0.0,0.0,0.0,0.0,0.0,0.0,0.0,0.0,0.0,0.0,0.0,0.0,0.0,0.0,0.0,0.0,0.0,0.0,0.0,0.0,0.0,0.0,0.0,0.0,0.0,0.0,0.0,0.0,0.0,0.0,0.0,0.0,0.0,0.0,0.0,0.0,0.0,0.0,0.0,0.0,0.0,0.0,0.0,0.0,0.0,0.0,0.0,0.0,0.0,0.0,0.0,0.0,0.0,0.0,0.0,0.0,0.0,0.0,0.0,0.0,0.0,0.0,0.0,0.0,0.0,0.0,0.0,0.0,0.0,0.0,0.0,0.0,0.0,0.0,0.0,0.0,0.0,0.0,0.0,0.0,0.0,0.0,0.0,0.0,0.0,0.0,0.0,0.0,0.0,0.0,0.0,0.0,0.0,0.0,0.0,0.0,0.0,0.0,0.0,0.0,0.0,0.0,0.0,0.0,0.0,1.4028,1.3753,1.3601,1.3309,1.2896,1.2352,0.0,0.0,0.0,0.0,0.0,0.0,0.0,0.0,0.0,0.0,0.0,0.0,0.0,0.0,0.0,0.0,0.0,0.0,0.0,0.0,0.0,0.0,0.0,0.0,0.0,0.0,0.0,0.0,0.0,0.0,0.0,0.0,0.0,0.0,0.0,0.0,0.0,0.0,0.0,0.0,0.0,0.0,0.0,0.0,0.0,0.0,0.0,0.0,0.0,0.0,0.0,0.0,0.0,0.0,0.0,0.0,0.0,0.0,0.0,0.0,0.0,0.0,0.0,0.0,0.0,0.0,0.0,0.0,0.0,0.0,0.0,0.0,0.0,0.0,0.0,0.0,0.0,0.0,0.0,0.0,0.0,0.0,0.0,0.0,0.0,0.0,0.0,0.0,0.0,0.0,0.0,0.0,0.0,0.0,0.0,0.0,0.0,0.0,0.0,0.0,0.0,0.0,0.0,0.0,0.0,0.0,0.0,0.0,1.5617,1.4816,1.4115,1.3649,1.3523,1.3224,0.0,0.0,0.0,0.0,0.0,0.0,0.0,0.0,0.0,0.0,0.0,0.0,0.0,0.0,0.0,0.0,0.0,0.0,0.0,0.0,0.0,0.0,0.0,0.0,0.0,0.0,0.0,0.0,0.0,0.0,0.0,0.0,0.0,0.0,0.0,0.0,0.0,0.0,0.0,0.0,0.0,0.0,0.0,0.0,0.0,0.0,0.0,0.0,0.0,0.0,0.0,0.0,0.0,0.0,0.0,0.0,0.0,0.0,0.0,0.0,0.0,0.0,0.0,0.0,0.0,0.0,0.0,0.0,0.0,0.0,0.0,0.0,0.0,0.0,0.0,0.0,0.0,0.0,0.0,0.0,0.0,0.0,0.0,0.0,0.0,0.0,0.0,0.0,0.0,0.0,0.0,0.0,0.0,0.0,0.0,0.0,0.0,0.0,0.0,0.0,0.0,0.0,0.0,0.0,0.0,0.0,0.0,0.0,0.0,1.5171,1.4755,1.4319,1.3799,1.3624,1.3359,0.0,0.0,0.0,0.0,0.0,0.0,0.0,0.0,0.0,0.0,0.0,0.0,0.0,0.0,0.0,0.0,0.0,0.0,0.0,0.0,0.0,0.0,0.0,0.0,0.0,0.0,0.0,0.0,0.0,0.0,0.0,0.0,0.0,0.0,0.0,0.0,0.0,0.0,0.0,0.0,0.0,0.0,0.0,0.0,0.0,0.0,0.0,0.0,0.0,0.0,0.0,0.0,0.0,0.0,0.0,0.0,0.0,0.0,0.0,0.0,0.0,0.0,0.0,0.0,0.0,0.0,0.0,0.0,0.0,0.0,0.0,0.0,0.0,0.0,0.0,0.0,0.0,0.0,0.0,0.0,0.0,0.0,0.0,0.0,0.0,0.0,0.0,0.0,0.0,0.0,0.0,0.0,0.0,0.0,0.0,0.0,0.0,0.0,0.0,0.0,0.0,0.0,0.0,0.0,0.0,0.0,0.0,0.0,0.0,1.4745,0.0,1.4609,1.3993,1.3953,1.3761,0.0,0.0,0.0,0.0,0.0,0.0,0.0,0.0,0.0,0.0,0.0,0.0,0.0,0.0,0.0,0.0,0.0,0.0,0.0,0.0,0.0,0.0,0.0,0.0,0.0,0.0,0.0,0.0,0.0,0.0,0.0,0.0,0.0,0.0,0.0,0.0,0.0,0.0,0.0,0.0,0.0,0.0,0.0,0.0,0.0,0.0,0.0,0.0,0.0,0.0,0.0,0.0,0.0,0.0,0.0,0.0,0.0,0.0,0.0,0.0,0.0,0.0,0.0,0.0,0.0,0.0,0.0,0.0,0.0,0.0,0.0,0.0,0.0,0.0,0.0,0.0,0.0,0.0,0.0,0.0,0.0,0.0,0.0,0.0,0.0,0.0,0.0,0.0,0.0,0.0,0.0,0.0,0.0,0.0,0.0,0.0,0.0,0.0,0.0,0.0,0.0,0.0,0.0,0.0,0.0,0.0,0.0,0.0,1.4413,1.4453,1.511,1.5004,1.4158,1.4582,1.4437,0.0,0.0,0.0,0.0,0.0,0.0,0.0,0.0,0.0,0.0,0.0,0.0,0.0,0.0,0.0,0.0,0.0,0.0,0.0,0.0,0.0,0.0,0.0,0.0,0.0,0.0,0.0,0.0,0.0,0.0,0.0,0.0,0.0,0.0,0.0,0.0,0.0,0.0,0.0,0.0,0.0,0.0,0.0,0.0,0.0,0.0,0.0,0.0,0.0,0.0,0.0,0.0,0.0,0.0,0.0,0.0,0.0,0.0,0.0,0.0,0.0,0.0,0.0,0.0,0.0,0.0,0.0,0.0,0.0,0.0,0.0,0.0,0.0,0.0,0.0,0.0,0.0,0.0,0.0,0.0,0.0,0.0,0.0,0.0,0.0,0.0,0.0,0.0,0.0,0.0,0.0,0.0,0.0,0.0,0.0,0.0,0.0,0.0,0.0,0.0,0.0,0.0,0.0,0.0,0.0,0.0,0.0,0.0,0.0,1.4935,1.4906,1.493,1.5059,1.4748,1.4532,0.0,0.0,0.0,0.0,0.0,0.0,0.0,0.0,0.0,0.0,0.0,0.0,0.0,0.0,0.0,0.0,0.0,0.0,0.0,0.0,0.0,0.0,0.0,0.0,0.0,0.0,0.0,0.0,0.0,0.0,0.0,0.0,0.0,0.0,0.0,0.0,0.0,0.0,0.0,0.0,0.0,0.0,0.0,0.0,0.0,0.0,0.0,0.0,0.0,0.0,0.0,0.0,0.0,0.0,0.0,0.0,0.0,0.0,0.0,0.0,0.0,0.0,0.0,0.0,0.0,0.0,0.0,0.0,0.0,0.0,0.0,0.0,0.0,0.0,0.0,0.0,0.0,0.0,0.0,0.0,0.0,0.0,0.0,0.0,0.0,0.0,0.0,0.0,0.0,0.0,0.0,0.0,0.0,0.0,0.0,0.0,0.0,0.0,0.0,0.0,0.0,0.0,0.0,0.0,0.0,0.0,0.0,0.0,0.0,1.5456,1.5232,1.5136,1.5269,1.4877,1.465,1.4599,0.0,0.0,0.0,0.0,0.0,0.0,0.0,0.0,0.0,0.0,0.0,0.0,0.0,0.0,0.0,0.0,0.0,0.0,0.0,0.0,0.0,0.0,0.0,0.0,0.0,0.0,0.0,0.0,0.0,0.0,0.0,0.0,0.0,0.0,0.0,0.0,0.0,0.0,0.0,0.0,0.0,0.0,0.0,0.0,0.0,0.0,0.0,0.0,0.0,0.0,0.0,0.0,0.0,0.0,0.0,0.0,0.0,0.0,0.0,0.0,0.0,0.0,0.0,0.0,0.0,0.0,0.0,0.0,0.0,0.0,0.0,0.0,0.0,0.0,0.0,0.0,0.0,0.0,0.0,0.0,0.0,0.0,0.0,0.0,0.0,0.0,0.0,0.0,0.0,0.0,0.0,0.0,0.0,0.0,0.0,0.0,0.0,0.0,0.0,0.0,0.0,0.0,0.0,0.0,0.0,0.0,0.0,0.0,1.6053,1.597,1.5653,1.5022,1.5072,1.4806,0.0,0.0,0.0,0.0,0.0,0.0,0.0,0.0,0.0,0.0,0.0,0.0,0.0,0.0,0.0,0.0,0.0,0.0,0.0,0.0,0.0,0.0,0.0,0.0,0.0,0.0,0.0,0.0,0.0,0.0,0.0,0.0,0.0,0.0,0.0,0.0,0.0,0.0,0.0,0.0,0.0,0.0,0.0,0.0,0.0,0.0,0.0,0.0,0.0,0.0,0.0,0.0,0.0,0.0,0.0,0.0,0.0,0.0,0.0,0.0,0.0,0.0,0.0,0.0,0.0,0.0,0.0,0.0,0.0,0.0,0.0,0.0,0.0,0.0,0.0,0.0,0.0,0.0,0.0,0.0,0.0,0.0,0.0,0.0,0.0,0.0,0.0,0.0,0.0,0.0,0.0,0.0,0.0,0.0,0.0,0.0,0.0,0.0,0.0,0.0,0.0,0.0,0.0,0.0,0.0,0.0,0.0,0.0,0.0,1.6484,1.6495,1.6333,1.6012,1.5514,1.505,0.0,0.0,0.0,0.0,0.0,0.0,0.0,0.0,0.0,0.0,0.0,0.0,0.0,0.0,0.0,0.0,0.0,0.0,0.0,0.0,0.0,0.0,0.0,0.0,0.0,0.0,0.0,0.0,0.0,0.0,0.0,0.0,0.0,0.0,0.0,0.0,0.0,0.0,0.0,0.0,0.0,0.0,0.0,0.0,0.0,0.0,0.0,0.0,0.0,0.0,0.0,0.0,0.0,0.0,0.0,0.0,0.0,0.0,0.0,0.0,0.0,0.0,0.0,0.0,0.0,0.0,0.0,0.0,0.0,0.0,0.0,0.0,0.0,0.0,0.0,0.0,0.0,0.0,0.0,0.0,0.0,0.0,0.0,0.0,0.0,0.0,0.0,0.0,0.0,0.0,0.0,0.0,0.0,0.0,0.0,0.0,0.0,0.0,0.0,0.0,0.0,0.0,0.0,0.0,0.0,0.0,0.0,0.0,1.6415,1.6801,1.7023,1.7003,1.6734,1.6057,1.5368,0.0,0.0,0.0,0.0,0.0,0.0,0.0,0.0,0.0,0.0,0.0,0.0,0.0,0.0,0.0,0.0,0.0,0.0,0.0,0.0,0.0,0.0,0.0,0.0,0.0,0.0,0.0,0.0,0.0,0.0,0.0,0.0,0.0,0.0,0.0,0.0,0.0,0.0,0.0,0.0,0.0,0.0,0.0,0.0,0.0,0.0,0.0,0.0,0.0,0.0,0.0,0.0,0.0,0.0,0.0,0.0,0.0,0.0,0.0,0.0,0.0,0.0,0.0,0.0,0.0,0.0,0.0,0.0,0.0,0.0,0.0,0.0,0.0,0.0,0.0,0.0,0.0,0.0,0.0,0.0,0.0,0.0,0.0,0.0,0.0,0.0,0.0,0.0,0.0,0.0,0.0,0.0,0.0,0.0,0.0,0.0,0.0,0.0,0.0,0.0,0.0,0.0,0.0,0.0,0.0,0.0,0.0,0.0,1.6812,1.7015,1.7476,1.7525,1.7175,1.6534,1.5697,0.0,0.0,0.0,0.0,0.0,0.0,0.0,0.0,0.0,0.0,0.0,0.0,0.0,0.0,0.0,0.0,0.0,0.0,0.0,0.0,0.0,0.0,0.0,0.0,0.0,0.0,0.0,0.0,0.0,0.0,0.0,0.0,0.0,0.0,0.0,0.0,0.0,0.0,0.0,0.0,0.0,0.0,0.0,0.0,0.0,0.0,0.0,0.0,0.0,0.0,0.0,0.0,0.0,0.0,0.0,0.0,0.0,0.0,0.0,0.0,0.0,0.0,0.0,0.0,0.0,0.0,0.0,0.0,0.0,0.0,0.0,0.0,0.0,0.0,0.0,0.0,0.0,0.0,0.0,0.0,0.0,0.0,0.0,0.0,0.0,0.0,0.0,0.0,0.0,0.0,0.0,0.0,0.0,0.0,0.0,0.0,0.0,0.0,0.0,0.0,0.0,0.0,0.0,0.0,0.0,0.0,0.0,0.0,1.6891,1.7161,1.7572,1.7513,1.6948,1.6469,1.5898,0.0,0.0,0.0,0.0,0.0,0.0,0.0,0.0,0.0,0.0,0.0,0.0,0.0,0.0,0.0,0.0,0.0,0.0,0.0,0.0,0.0,0.0,0.0,0.0,0.0,0.0,0.0,0.0,0.0,0.0,0.0,0.0,0.0,0.0,0.0,0.0,0.0,0.0,0.0,0.0,0.0,0.0,0.0,0.0,0.0,0.0,0.0,0.0,1.758,0.0,0.0,0.0,0.0,0.0,0.0,0.0,0.0,0.0,0.0,0.0,0.0,0.0,0.0,0.0,0.0,0.0,0.0,0.0,0.0,0.0,0.0,0.0,0.0,0.0,0.0,0.0,0.0,0.0,0.0,0.0,0.0,0.0,0.0,0.0,0.0,0.0,0.0,0.0,0.0,0.0,0.0,0.0,0.0,0.0,0.0,0.0,0.0,0.0,0.0,0.0,0.0,0.0,0.0,0.0,0.0,0.0,0.0,0.0,1.707,1.769,1.7939,1.7882,1.7554,1.7015,1.6374,0.0,0.0,0.0,0.0,0.0,0.0,0.0,0.0,0.0,0.0,0.0,0.0,0.0,0.0,0.0,0.0,0.0,0.0,0.0,0.0,0.0,0.0,0.0,0.0,0.0,0.0,0.0,0.0,0.0,0.0,0.0,0.0,0.0,0.0,0.0,0.0,0.0,0.0,0.0,0.0,0.0,0.0,0.0,0.0,0.0,0.0,0.0,0.0,0.0,0.0,0.0,0.0,0.0,0.0,0.0,0.0,0.0,0.0,0.0,0.0,0.0,0.0,0.0,0.0,0.0,0.0,0.0,0.0,0.0,0.0,0.0,0.0,0.0,0.0,0.0,0.0,0.0,0.0,0.0,0.0,0.0,0.0,0.0,0.0,0.0,0.0,0.0,0.0,0.0,0.0,0.0,0.0,0.0,0.0,0.0,0.0,0.0,0.0,0.0,0.0,0.0,0.0,0.0,0.0,0.0,0.0,0.0,1.6988,1.7368,1.8321,1.8375,1.835,1.8291,1.7697,1.6989,1.6111,0.0,0.0,0.0,0.0,0.0,0.0,0.0,0.0,0.0,0.0,0.0,0.0,0.0,0.0,0.0,0.0,0.0,0.0,0.0,0.0,0.0,0.0,0.0,0.0,0.0,0.0,0.0,0.0,0.0,0.0,0.0,0.0,0.0,0.0,0.0,0.0,0.0,0.0,1.5316,1.5888,0.0,0.0,0.0,0.0,0.0,0.0,0.0,0.0,1.7965,0.0,0.0,0.0,0.0,0.0,0.0,0.0,0.0,0.0,0.0,0.0,0.0,0.0,0.0,0.0,0.0,0.0,0.0,0.0,0.0,0.0,0.0,0.0,0.0,0.0,0.0,0.0,0.0,0.0,0.0,0.0,0.0,0.0,0.0,0.0,0.0,0.0,0.0,0.0,0.0,0.0,0.0,0.0,0.0,0.0,0.0,0.0,0.0,0.0,0.0,0.0,0.0,0.0,0.0,0.0,0.0,1.7926,1.785,1.8073,1.8607,1.8695,1.8584,1.8306,1.794,1.7413,1.6771,0.0,0.0,0.0,0.0,0.0,0.0,0.0,0.0,0.0,0.0,0.0,0.0,0.0,0.0,0.0,0.0,0.0,0.0,0.0,0.0,0.0,0.0,0.0,0.0,0.0,0.0,0.0,0.0,0.0,0.0,0.0,0.0,0.0,0.0,0.0,0.0,0.0,0.0,0.0,1.6376,1.6778,0.0,0.0,0.0,0.0,0.0,0.0,0.0,0.0,1.8357,0.0,0.0,0.0,0.0,0.0,0.0,0.0,0.0,0.0,0.0,0.0,0.0,0.0,0.0,0.0,0.0,0.0,0.0,0.0,0.0,0.0,0.0,0.0,0.0,0.0,0.0,0.0,0.0,0.0,0.0,0.0,0.0,0.0,0.0,0.0,0.0,0.0,0.0,0.0,0.0,0.0,0.0,0.0,0.0,0.0,0.0,0.0,0.0,0.0,0.0,0.0,0.0,0.0,0.0,0.0,1.7987,1.809,1.8396,1.8962,1.9041,1.899,1.8829,1.816,1.7565,0.0,0.0,0.0,0.0,0.0,0.0,0.0,0.0,0.0,0.0,0.0,0.0,0.0,0.0,0.0,0.0,0.0,0.0,0.0,0.0,0.0,0.0,0.0,0.0,0.0,0.0,0.0,0.0,0.0,0.0,0.0,0.0,0.0,0.0,0.0,0.0,0.0,0.0,0.0,0.0,1.6905,1.7185,1.7643,0.0,0.0,0.0,0.0,0.0,0.0,1.8409,1.8451,0.0,0.0,0.0,0.0,0.0,0.0,0.0,0.0,0.0,0.0,0.0,0.0,0.0,0.0,0.0,0.0,0.0,0.0,0.0,0.0,0.0,0.0,0.0,0.0,0.0,0.0,0.0,0.0,0.0,0.0,0.0,0.0,0.0,0.0,0.0,0.0,0.0,0.0,0.0,0.0,0.0,0.0,0.0,0.0,0.0,0.0,0.0,0.0,0.0,0.0,0.0,0.0,0.0,0.0,0.0,1.8133,1.8293,1.8736,1.9435,1.935,1.9268,1.9195,1.8364,1.7697,0.0,0.0,0.0,0.0,0.0,0.0,0.0,0.0,0.0,0.0,0.0,0.0,0.0,0.0,0.0,0.0,0.0,0.0,0.0,0.0,0.0,0.0,0.0,0.0,0.0,0.0,0.0,0.0,0.0,0.0,0.0,0.0,0.0,0.0,0.0,0.0,0.0,0.0,0.0,0.0,0.0,1.7642,1.8045,1.8148,0.0,0.0,0.0,0.0,1.874,1.887,0.0,0.0,0.0,0.0,0.0,0.0,0.0,0.0,0.0,0.0,0.0,0.0,0.0,0.0,0.0,0.0,0.0,0.0,0.0,0.0,0.0,0.0,0.0,0.0,0.0,0.0,0.0,0.0,0.0,0.0,0.0,0.0,0.0,0.0,0.0,0.0,0.0,0.0,0.0,0.0,0.0,0.0,0.0,0.0,0.0,0.0,0.0,0.0,0.0,0.0,0.0,0.0,0.0,0.0,0.0,0.0,1.8657,1.888,1.9309,1.9937,1.9532,1.9166,1.8873,1.8452,1.7955,0.0,0.0,0.0,0.0,0.0,0.0,0.0,0.0,0.0,0.0,0.0,0.0,0.0,0.0,0.0,0.0,0.0,0.0,0.0,0.0,0.0,0.0,0.0,0.0,0.0,0.0,0.0,0.0,0.0,0.0,0.0,0.0,0.0,0.0,0.0,0.0,0.0,0.0,0.0,0.0,0.0,1.8169,1.811,1.8358,1.8616,0.0,0.0,1.9987,2.0214,2.0695,0.0,0.0,0.0,0.0,0.0,0.0,0.0,0.0,0.0,0.0,0.0,0.0,0.0,0.0,0.0,0.0,0.0,0.0,0.0,0.0,0.0,0.0,0.0,0.0,0.0,0.0,0.0,0.0,0.0,0.0,0.0,0.0,0.0,0.0,0.0,0.0,0.0,0.0,0.0,0.0,0.0,0.0,0.0,0.0,0.0,0.0,0.0,0.0,0.0,0.0,0.0,0.0,0.0,0.0,0.0,1.8087,1.8573,1.9257,1.9688,1.9864,1.9661,1.9291,1.8789,1.8116,1.753,0.0,0.0,0.0,0.0,0.0,0.0,0.0,0.0,0.0,0.0,0.0,0.0,0.0,0.0,0.0,0.0,0.0,0.0,0.0,0.0,0.0,0.0,0.0,0.0,0.0,0.0,0.0,0.0,0.0,0.0,0.0,0.0,0.0,0.0,0.0,0.0,0.0,0.0,0.0,0.0,0.0,0.0,1.9251,1.9238,0.0,0.0,0.0,2.0377,2.1076,0.0,0.0,0.0,0.0,0.0,0.0,0.0,0.0,0.0,0.0,0.0,0.0,0.0,0.0,0.0,0.0,0.0,0.0,0.0,0.0,0.0,0.0,0.0,0.0,0.0,0.0,0.0,0.0,0.0,0.0,0.0,0.0,0.0,0.0,0.0,0.0,0.0,0.0,0.0,0.0,0.0,0.0,0.0,0.0,0.0,0.0,0.0,0.0,0.0,0.0,0.0,0.0,0.0,0.0,0.0,0.0,0.0,1.8536,1.9443,1.9842,1.9698,1.9635,1.9313,1.8697,1.793,0.0,0.0,0.0,0.0,0.0,0.0,0.0,0.0,0.0,0.0,0.0,0.0,0.0,0.0,0.0,0.0,0.0,0.0,0.0,0.0,0.0,0.0,0.0,0.0,0.0,0.0,0.0,1.5335,0.0,0.0,0.0,0.0,0.0,0.0,0.0,0.0,0.0,0.0,0.0,0.0,0.0,0.0,1.9172,2.0082,1.9979,2.0095,0.0,0.0,2.086,2.1497,2.1479,2.138,0.0,0.0,0.0,0.0,0.0,0.0,0.0,0.0,0.0,0.0,0.0,0.0,0.0,0.0,0.0,0.0,0.0,0.0,0.0,0.0,0.0,0.0,0.0,0.0,0.0,0.0,0.0,0.0,0.0,0.0,0.0,0.0,0.0,0.0,0.0,0.0,0.0,0.0,0.0,0.0,0.0,0.0,0.0,0.0,0.0,0.0,0.0,0.0,0.0,0.0,0.0,0.0,0.0,0.0,1.8484,1.8877,1.937,1.9664,1.9698,1.9454,1.9005,1.8364,1.8277,1.7901,0.0,0.0,0.0,0.0,0.0,0.0,0.0,0.0,0.0,0.0,0.0,0.0,0.0,0.0,0.0,0.0,0.0,0.0,0.0,0.0,0.0,0.0,0.0,0.0,0.0,0.0,0.0,0.0,0.0,0.0,0.0,0.0,0.0,0.0,0.0,0.0,0.0,0.0,0.0,0.0,0.0,1.9821,1.9914,2.0174,2.0425,0.0,0.0,2.1764,2.1381,2.2079,2.2398,2.1624,0.0,0.0,0.0,0.0,0.0,0.0,0.0,0.0,0.0,0.0,0.0,0.0,0.0,0.0,0.0,0.0,0.0,0.0,0.0,0.0,0.0,0.0,0.0,0.0,0.0,0.0,0.0,0.0,0.0,0.0,0.0,0.0,0.0,0.0,0.0,0.0,0.0,0.0,0.0,0.0,0.0,0.0,0.0,0.0,0.0,0.0,0.0,0.0,0.0,0.0,0.0,0.0,0.0,1.8813,1.9209,1.9835,2.0082,1.9931,1.9687,1.9143,1.8321,1.8116,1.7604,0.0,0.0,0.0,0.0,0.0,0.0,0.0,0.0,0.0,0.0,0.0,0.0,0.0,0.0,0.0,0.0,0.0,0.0,0.0,0.0,0.0,0.0,0.0,0.0,0.0,0.0,0.0,0.0,1.6317,1.6599,1.6841,0.0,0.0,0.0,0.0,0.0,0.0,0.0,0.0,0.0,0.0,2.0336,2.1141,2.101,0.0,0.0,2.145,2.1617,2.1974,2.1986,2.1837,2.1494,2.1061,0.0,0.0,0.0,0.0,0.0,0.0,0.0,0.0,0.0,0.0,0.0,0.0,0.0,0.0,0.0,0.0,0.0,0.0,0.0,0.0,0.0,0.0,0.0,0.0,0.0,0.0,0.0,0.0,0.0,0.0,0.0,0.0,0.0,0.0,0.0,0.0,0.0,0.0,0.0,0.0,0.0,0.0,0.0,0.0,0.0,0.0,0.0,0.0,0.0,0.0,0.0,0.0,1.9201,1.9573,2.0202,2.0395,2.0135,1.9848,1.9283,1.836,1.8086,1.756,0.0,0.0,0.0,0.0,0.0,0.0,0.0,0.0,0.0,0.0,0.0,0.0,0.0,0.0,0.0,0.0,0.0,0.0,0.0,0.0,0.0,0.0,0.0,0.0,0.0,0.0,0.0,0.0,1.6884,1.7122,1.7419,0.0,0.0,0.0,0.0,0.0,0.0,0.0,0.0,0.0,0.0,2.0741,2.1817,2.1528,2.1325,2.1687,2.1512,2.1536,2.2079,2.1726,2.1334,2.131,0.0,0.0,0.0,0.0,0.0,0.0,0.0,0.0,0.0,0.0,0.0,0.0,0.0,0.0,0.0,0.0,0.0,0.0,0.0,0.0,0.0,0.0,0.0,0.0,0.0,0.0,0.0,0.0,0.0,0.0,1.5907,0.0,0.0,0.0,0.0,0.0,0.0,0.0,0.0,0.0,0.0,0.0,0.0,0.0,0.0,0.0,0.0,0.0,0.0,0.0,0.0,0.0,0.0,1.9565,1.9969,2.0379,2.0469,2.0177,1.9926,1.9312,1.8364,1.8306,1.7984,1.7302,0.0,0.0,0.0,0.0,0.0,0.0,0.0,0.0,0.0,0.0,0.0,0.0,0.0,0.0,0.0,0.0,0.0,0.0,0.0,0.0,0.0,0.0,0.0,0.0,0.0,0.0,1.7721,1.7753,1.7753,0.0,0.0,0.0,0.0,0.0,0.0,0.0,0.0,0.0,0.0,2.0563,2.1097,2.1658,2.1532,2.1433,2.1417,2.1596,2.1636,2.1474,2.1288,2.118,0.0,0.0,0.0,0.0,0.0,0.0,0.0,0.0,0.0,0.0,0.0,0.0,0.0,0.0,0.0,0.0,0.0,0.0,0.0,0.0,0.0,0.0,0.0,0.0,0.0,0.0,0.0,1.8166,1.778,0.0,0.0,0.0,0.0,0.0,0.0,0.0,0.0,0.0,0.0,0.0,1.8289,1.8891,0.0,0.0,0.0,0.0,0.0,0.0,0.0,0.0,0.0,0.0,0.0,0.0,1.9596,2.0,2.041,2.0457,2.0207,1.9941,1.9532,1.899,1.8745,1.8321,1.7653,0.0,0.0,0.0,0.0,0.0,0.0,0.0,0.0,0.0,0.0,0.0,0.0,0.0,0.0,0.0,0.0,0.0,0.0,0.0,0.0,0.0,0.0,0.0,0.0,0.0,1.7785,0.0,0.0,0.0,0.0,0.0,0.0,0.0,0.0,0.0,0.0,0.0,2.0305,2.155,2.165,2.1819,2.2363,2.2274,2.2069,0.0,0.0,0.0,0.0,0.0,0.0,0.0,0.0,0.0,0.0,0.0,0.0,0.0,0.0,2.3603,2.3335,2.3541,2.3822,2.4065,0.0,0.0,0.0,0.0,0.0,0.0,0.0,0.0,0.0,0.0,0.0,0.0,0.0,0.0,1.8753,0.0,1.8032,0.0,0.0,0.0,0.0,0.0,0.0,0.0,0.0,1.8792,1.9138,1.9043,1.9539,1.9613,0.0,1.9559,1.9522,0.0,0.0,0.0,0.0,0.0,0.0,0.0,0.0,1.9944,2.0358,2.0614,2.0685,2.0536,2.0136,1.9725,1.9312,1.8873,1.8423,1.7999,1.7653,1.7446,0.0,0.0,0.0,0.0,0.0,0.0,0.0,0.0,0.0,0.0,0.0,0.0,0.0,0.0,0.0,0.0,0.0,0.0,0.0,0.0,0.0,0.0,0.0,1.8341,0.0,0.0,0.0,0.0,0.0,0.0,0.0,0.0,0.0,2.0589,2.0777,2.1399,2.2523,2.2479,2.2487,2.283,0.0,0.0,0.0,0.0,0.0,0.0,0.0,2.1465,2.1465,2.117,2.1332,2.2456,2.3369,2.3856,2.3584,0.0,0.0,2.4122,2.4219,2.4515,2.5124,2.5475,2.5827,2.633,2.6719,2.7059,0.0,0.0,0.0,0.0,0.0,0.0,0.0,0.0,1.8806,1.877,0.0,1.8228,0.0,0.0,0.0,0.0,0.0,1.8809,0.0,0.0,1.9803,1.9906,1.9677,1.9999,2.0295,2.0534,2.0083,2.0123,2.0594,2.014,0.0,0.0,0.0,0.0,0.0,0.0,2.0629,2.0975,2.1048,2.1112,2.1137,2.0536,1.9903,1.9312,1.8672,1.8335,1.8306,1.7989,1.7838,1.7784,1.7507,0.0,0.0,0.0,0.0,0.0,0.0,0.0,0.0,0.0,0.0,0.0,0.0,0.0,0.0,0.0,0.0,0.0,0.0,0.0,0.0,1.9177,0.0,0.0,0.0,0.0,0.0,0.0,0.0,0.0,0.0,0.0,2.1613,2.1814,2.2271,2.2927,0.0,0.0,0.0,0.0,2.3025,2.3054,2.3025,2.3054,2.301,2.2768,2.2561,2.2561,0.0,0.0,2.3231,2.4038,2.4602,2.4613,2.4907,2.5217,2.5187,2.4981,2.5173,2.6382,2.6514,2.6685,2.7568,2.7914,2.805,2.0182,0.0,0.0,0.0,0.0,2.0047,2.0161,2.0551,2.0031,1.9698,1.9406,1.9118,0.0,0.0,0.0,0.0,0.0,0.0,1.9568,1.9701,2.0491,2.0742,2.0528,2.0935,2.0924,2.055,2.0571,2.055,2.0486,2.0313,2.0042,1.9638,0.0,0.0,0.0,0.0,2.0897,2.1064,2.1085,2.1007,2.086,2.0398,1.9903,1.9327,1.9122,1.8891,1.8657,1.8555,1.8291,1.7814,1.7955,0.0,0.0,0.0,0.0,0.0,0.0,0.0,0.0,0.0,0.0,0.0,0.0,0.0,0.0,0.0,0.0,0.0,0.0,0.0,1.9542,1.9525,1.9634,0.0,0.0,0.0,0.0,0.0,0.0,0.0,0.0,0.0,2.393,2.326,2.2879,0.0,0.0,2.3454,2.375,2.3782,2.3782,2.3782,2.4005,0.0,2.383,2.3909,2.4005,2.402,2.4122,2.4299,2.4544,2.4799,2.4949,2.4979,2.524,2.5767,2.6649,2.6737,2.6927,2.7711,2.8261,2.8694,2.9,2.9317,2.9525,2.1121,2.0155,2.0459,2.0769,2.1049,2.0736,2.0838,2.1262,2.0847,2.0634,2.053,2.0001,1.9548,1.9157,1.892,0.0,0.0,0.0,2.0226,2.0454,2.1039,2.1328,2.1399,2.1625,2.1602,2.1347,2.1213,2.1142,2.1066,2.0819,2.0638,2.0519,0.0,0.0,2.0758,2.1059,2.116,2.11,2.1075,2.1059,2.0882,2.0575,2.0152,1.9681,1.9561,1.94,1.921,1.8921,1.8613,1.8218,1.8262,1.8057,0.0,0.0,0.0,0.0,0.0,0.0,0.0,0.0,0.0,0.0,0.0,1.7706,1.7706,0.0,0.0,0.0,1.9411,1.9899,2.0108,1.999,0.0,0.0,0.0,0.0,0.0,0.0,0.0,2.2895,2.3739,2.4517,2.504,2.4454,2.4104,2.4311,2.4231,2.4198,2.4275,0.0,2.4291,2.4291,2.4674,2.4881,2.4561,2.477,2.4931,2.4808,2.5077,2.5297,2.5313,2.5313,2.5376,2.5517,2.5691,2.6245,2.7577,2.7908,2.8195,2.8949,2.9386,2.9761,2.9995,3.0369,3.0662,2.2212,2.1597,2.1502,2.1557,2.1687,2.1499,2.1524,2.1697,2.1359,2.1556,2.2032,2.0857,2.0483,2.0775,2.0245,0.0,2.0875,2.0928,2.1096,2.1449,2.1566,2.1756,2.2096,2.2125,2.226,2.2543,2.1947,2.1798,2.2051,2.1486,2.1351,2.1648,2.1304,2.0975,2.0662,2.1221,2.1404,2.1126,2.1141,2.1107,2.1159,2.0853,2.0546,2.0183,1.9945,1.9811,1.9793,1.921,1.8873,1.8774,1.8525,1.8218,1.7857,0.0,0.0,0.0,0.0,0.0,0.0,0.0,0.0,0.0,0.0,0.0,0.0,0.0,0.0,0.0,1.9956,0.0,2.0504,2.0555,0.0,0.0,0.0,2.1682,2.1756,2.3212,2.4055,2.3724,0.0,0.0,2.5278,2.5485,2.5691,2.5691,2.5358,2.504,2.4784,2.4752,2.4736,2.4784,2.5263,2.5502,2.5233,2.5423,2.5533,2.5359,2.5482,2.5748,2.5829,2.5796,2.5925,2.6199,2.6296,2.6664,2.7955,2.8464,2.9067,2.9919,3.0054,3.0143,3.0701,3.1066,3.1336,2.3327,2.34,2.2823,2.2348,2.1948,2.214,2.2092,2.1948,2.2097,2.1959,2.159,2.1273,2.1024,2.0864,2.1039,2.1179,2.1366,2.1853,2.2029,2.1953,2.2226,2.229,2.2171,2.2186,2.223,2.2289,2.2142,2.2112,2.2171,2.2024,2.1994,2.2053,2.2184,2.2039,2.1724,2.1673,2.1607,2.1556,2.1285,2.107,2.0837,2.0736,2.0546,2.0225,2.0137,2.0003,1.9796,1.9635,1.9327,1.8818,1.895,1.8789,1.8218,1.8423,0.0,0.0,0.0,0.0,0.0,0.0,0.0,0.0,0.0,1.8306,1.8306,0.0,1.895,0.0,2.0391,2.0825,2.0603,2.1021,0.0,0.0,2.2697,2.3309,2.381,2.4692,2.5199,2.512,2.5659,2.6136,2.6279,2.6407,2.6422,2.6422,2.5866,2.5549,2.577,2.5834,2.5834,2.5786,2.5864,2.5954,2.5843,2.5944,2.6046,2.6308,2.6388,2.6516,2.6797,2.6814,2.6863,2.6946,2.6946,2.7309,2.8063,2.8343,2.8789,2.9713,3.0473,3.1038,3.1217,3.1322,3.141,2.4052,2.4098,2.38,2.3416,2.2935,2.2796,2.2609,2.2477,2.2641,2.2593,2.2331,2.2178,2.2002,2.1845,2.189,2.1984,2.2027,2.2386,2.2467,2.2319,2.2527,2.2599,2.2593,2.2624,2.2593,2.2593,2.2593,2.2593,2.2579,2.2447,2.2447,2.2593,2.2466,2.2394,2.2303,2.2169,2.2051,2.1934,2.173,2.1423,2.0959,2.1059,2.0857,2.0271,2.0094,1.9959,1.9827,1.9536,1.9284,1.9038,1.908,1.8898,1.8379,1.8524,1.8539,0.0,0.0,0.0,0.0,0.0,0.0,0.0,0.0,0.0,0.0,0.0,1.9758,2.0302,2.0909,2.1225,2.107,2.1647,2.2277,2.2815,2.3593,2.4254,2.4825,2.5581,2.5992,2.5832,2.6309,2.6659,2.6685,2.6716,2.6701,2.6701,2.6337,2.6086,2.6168,2.6056,2.5959,2.5943,2.5886,2.5936,2.6075,2.6108,2.6164,2.6365,2.6432,2.6532,2.69,2.7,2.7034,2.7167,2.72,2.75,2.8279,2.8627,2.906,3.006,3.0893,3.133,3.1233,3.1309,3.1465,2.4545,2.44,2.4529,2.445,2.4164,2.3435,2.3149,2.3149,2.3197,2.3343,2.3494,2.3146,2.3014,2.3001,2.2726,2.26,2.2677,2.2662,2.2674,2.2651,2.2694,2.2871,2.3106,2.3149,2.3149,2.3106,2.3106,2.3106,2.3091,2.2828,2.2797,2.3076,2.2595,2.2432,2.2667,2.2674,2.2527,2.2184,2.2154,2.183,2.1232,2.1452,2.1161,2.0328,2.0046,1.9886,1.9857,1.9395,1.9211,1.9377,1.9141,1.8866,1.8591,1.858,1.858,0.0,1.8822,0.0,0.0,0.0,0.0,0.0,0.0,0.0,0.0,2.0352,2.0793,2.1094,2.1446,2.1637,2.1679,2.2349,2.2916,2.3291,2.4157,2.4868,2.5296,2.6132,2.6609,2.6265,2.6811,2.71,2.6818,2.6767,2.6767,2.6702,2.6671,2.6518,2.6243,2.5971,2.5825,2.5714,2.5635,2.5692,2.5871,2.5913,2.5959,2.6056,2.6121,2.6289,2.6804,2.6889,2.6941,2.7259,2.7375,2.7661,2.8577,2.8927,2.9413,3.022,3.0698,3.102,3.1123,3.1296,3.1608,2.5325,2.5738,2.4927,2.4706,2.4849,2.418,2.3877,2.3909,2.4195,2.4018,2.3563,2.3209,2.3061,2.3077,2.3022,2.2991,2.3005,2.2998,2.3021,2.2987,2.3296,2.331,2.3104,2.3384,2.3369,2.312,2.3106,2.3106,2.3106,2.3016,2.3047,2.3106,2.2988,2.2959,2.3003,0.0,0.0,0.0,2.1929,2.1577,2.1217,2.0997,2.0695,2.0313,2.0473,0.0,2.0243,2.0294,2.0243,2.0049,1.9764,0.0,0.0,0.0,0.0,0.0,0.0,0.0,0.0,0.0,0.0,0.0,2.0794,2.0706,2.0181,2.0732,2.1113,2.1184,2.1921,2.2303,2.2112,2.3136,2.3858,2.3964,2.4806,2.5541,2.59,2.6407,2.6757,2.7005,2.7102,2.7167,2.71,2.71,2.7,2.6733,2.67,2.6553,2.6162,2.6267,2.6448,2.6446,2.5929,2.5517,2.5322,2.5322,2.5542,2.5906,2.6098,2.6443,2.7226,2.7476,2.7595,2.7873,2.8043,2.8011,2.8285,2.8349,2.8563,2.8713,2.9069,2.9804,3.141,3.1646,3.1664,2.585,0.0,2.5611,2.5484,0.0,2.4902,2.459,2.4558,2.4228,2.3907,2.3593,2.3414,2.3429,2.3564,2.342,2.3427,2.359,2.3579,2.3588,2.3603,2.3764,2.3662,2.3354,2.3515,2.3427,2.3106,2.3106,2.3193,2.334,2.3193,2.3193,2.334,2.3193,2.3106,2.3106,2.3106,2.2945,2.2652,2.2331,2.1915,2.1465,2.124,2.0867,2.0347,0.0,0.0,0.0,0.0,0.0,0.0,0.0,0.0,0.0,0.0,0.0,1.9625,1.9959,2.0283,2.0444,2.059,2.0824,2.1189,2.1642,2.1701,2.1204,2.1496,2.1745,2.1906,2.2491,2.2841,2.2946,2.3762,2.4396,2.462,2.5186,2.5738,2.6052,2.6457,2.67,2.67,2.6967,2.7134,2.6967,2.6767,2.6599,2.6432,2.6264,2.6097,2.5895,2.5996,2.613,2.5962,2.5626,2.5303,2.5134,2.5232,2.5398,2.5746,2.6096,2.6538,2.7037,2.7277,2.747,2.7594,2.7628,2.7713,2.7937,2.8326,2.8675,2.8585,2.9077,2.9919,3.1254,3.1219,3.1116,2.6343,2.6359,2.6295,2.6231,2.6151,2.5453,2.5123,2.4966,0.0,0.0,0.0,2.3726,2.3838,2.4059,2.3804,2.3823,2.4071,2.4118,2.4118,2.4118,2.4177,2.3998,2.3723,2.3735,2.3603,2.3296,2.3281,2.3427,2.3662,2.3413,2.3413,2.3632,2.3413,2.3252,2.3193,2.3072,2.3012,2.2981,2.2699,2.2213,2.1639,2.1502,2.1086,2.0296,2.0389,2.0442,2.0373,2.0214,2.0208,2.0358,2.0181,1.9945,1.975,1.9918,1.9933,1.9751,2.0156,2.0495,2.0756,2.1104,2.1482,2.1904,2.2458,2.2662,2.2462,2.2432,2.2564,2.2857,2.3179,2.3486,2.3749,2.4338,2.479,2.5089,2.5342,2.5641,2.5962,2.6298,2.6398,2.6298,2.6733,2.7034,2.6833,2.6499,2.6179,2.6078,2.5861,2.5558,2.5524,2.5607,2.5573,2.5255,2.5153,2.51,2.513,2.5227,2.5412,2.552,2.5997,2.6449,2.6673,2.6899,2.7124,2.7386,2.727,2.7426,2.7687,2.8381,2.8927,2.857,2.9237,2.9981,3.0211,3.0231,3.047,2.6804,2.7026,2.6757,2.6434,2.6093,2.5716,2.519,2.4662,2.4209,2.4177,2.4428,2.4151,2.4066,2.411,2.4045,2.4042,2.4118,2.4118,2.4118,0.0,2.4412,2.4368,2.4042,2.4338,2.4294,2.3969,2.394,2.4001,2.4031,2.3969,2.4001,2.3998,2.3969,2.3793,2.3498,2.2969,2.2668,2.2668,2.2324,2.187,2.1269,2.0978,2.0644,2.0248,2.0782,2.0944,2.0679,2.1147,2.1307,2.1072,2.1032,2.0989,2.0944,2.0956,2.0964,2.0943,2.1024,2.1075,2.1117,2.1399,2.1959,2.2809,2.3182,2.3382,2.3396,2.3398,2.353,2.3852,2.413,2.4412,2.4485,2.4793,2.5031,2.508,2.5158,2.5322,2.5641,2.576,2.5996,2.6465,2.67,2.6867,2.6999,2.6782,2.6398,2.6112,2.5787,2.5521,2.5318,2.539,2.5423,2.5187,2.51,2.51,2.51,2.5115,2.5305,2.5456,2.5613,2.6051,2.6807,2.6988,2.722,2.7823,2.7808,2.7859,2.7946,2.8131,2.8182,2.7915,2.8084,2.8166,2.8072,2.8779,3.0124,2.6776,2.6869,2.6528,2.6267,2.607,2.5535,2.5038,2.4597,2.4449,2.4361,2.4313,2.4183,2.4206,2.4382,2.4349,2.4485,2.4646,2.4646,2.4646,2.4661,2.4807,2.469,2.4412,2.4529,2.4426,2.4133,2.4118,2.4174,2.4353,2.4206,2.4174,2.4353,2.4206,2.3837,2.3369,2.3197,2.2872,2.2338,2.1978,2.1703,2.1409,2.1065,2.0837,2.0696,2.0975,2.108,2.0984,2.1252,2.1373,2.123,2.1197,2.1122,2.095,2.1224,2.1346,2.1173,2.1469,2.1737,2.1891,2.2342,2.29,2.3518,2.3886,2.4086,2.4082,2.3959,2.4031,2.4338,2.4529,2.4675,2.4851,2.4998,2.51,2.51,2.51,2.5153,2.5322,2.5491,2.5727,2.6063,2.6264,2.6509,2.6814,2.6439,2.6154,2.6054,2.5793,2.5486,2.5349,2.5599,2.5638,2.5207,2.51,2.51,2.51,2.5247,2.5359,2.5486,2.5646,2.6044,2.6647,2.6786,2.6991,2.7382,2.7492,2.7492,2.7529,2.784,2.7819,2.742,2.7623,2.771,2.7819,2.8815,3.0425,2.6612,2.6641,2.6261,2.6078,2.5947,2.5356,2.4952,2.4705,2.4719,2.4573,2.4353,2.4338,2.447,2.469,2.4719,2.4851,2.5071,2.51,2.5086,2.51,2.51,2.4987,2.4734,2.4719,2.4573,2.4353,2.4305,2.447,2.4661,2.4456,2.4426,2.4558,2.4265,2.3793,2.3237,2.324,2.2881,2.2118,2.1677,2.1488,2.1488,2.1235,2.1083,2.1086,2.1166,2.1242,2.1296,2.1304,2.1334,2.136,2.1334,2.1227,2.1135,2.1479,2.16,2.1464,2.1778,2.2148,2.2457,2.3033,2.3563,2.3975,2.4371,2.4587,2.4593,2.4432,2.4437,2.4715,2.4778,2.4851,2.513,2.5203,2.5203,2.5169,2.5261,2.5349,2.5354,2.5544,2.5748,2.5816,2.6054,2.6345,2.6516,2.6205,2.5951,2.6007,2.5825,2.5637,2.5632,2.5836,2.5769,2.5481,2.5247,2.5183,2.5203,2.5271,2.5418,2.5505,2.571,2.6018,2.639,2.65,2.6632,2.6968,2.7034,2.7056,2.7071,2.742,2.7529,2.7165,2.742,2.7891,2.8382,2.921,3.0515,2.6347,2.6546,2.6218,2.5928,2.5626,2.5259,2.5075,2.5042,2.5042,2.5027,2.4968,2.4998,2.4998,2.5042,2.5027,2.5056,2.51,2.51,2.51,2.51,2.51,2.5071,2.5027,2.5042,2.5027,2.4983,2.4968,2.4968,2.5012,2.4998,2.4851,2.4602,2.428,2.3896,2.3496,2.2697,2.2209,2.2118,2.1488,2.1141,2.1141,2.1109,2.1096,2.11,2.1384,2.156,2.155,2.1568,2.1678,2.1898,2.1675,2.1773,2.2229,2.2148,2.2125,2.232,2.2146,2.2143,2.2398,2.28,2.3353,2.395,2.4337,2.467,2.4965,2.5008,2.5096,2.5315,2.5203,2.5154,2.5447,2.5491,2.5491,2.5471,2.571,2.5895,2.5886,2.5965,2.6105,2.6469,2.6464,2.6643,2.6852,2.6648,2.6349,2.6055,2.5994,2.5974,2.5974,2.6061,2.607,2.5915,2.5661,2.552,2.5476,2.5242,2.5344,2.5505,2.5529,2.5851,2.631,2.6515,2.6617,2.6896,2.6998,2.6998,2.6998,2.7107,2.7129,2.7093,2.7238,2.7565,2.8758,2.9405,3.0104,2.605,2.599,2.5652,2.5438,2.5255,2.5153,2.51,2.51,2.51,2.51,2.51,2.51,2.51,2.51,2.51,2.51,2.51,2.51,2.51,2.51,2.51,2.51,2.51,2.51,2.51,2.51,2.51,2.51,2.51,2.51,2.4822,2.4382,2.4335,2.406,2.3337,2.3116,2.2797,2.2384,2.2129,2.186,2.1655,2.1456,2.1456,2.1649,2.176,2.1824,2.1843,2.185,2.1883,2.2005,2.1896,2.1937,2.2214,2.226,2.231,2.2445,2.2506,2.2653,2.2978,2.3147,2.3522,2.4204,2.4391,2.4635,2.5007,2.5193,2.5476,2.5676,2.552,2.5461,2.5734,2.5813,2.5792,2.5807,2.5909,2.6018,2.6018,2.6018,2.6088,2.6228,2.6243,2.6402,2.6641,2.663,2.6399,2.6105,2.6164,2.6296,2.631,2.6471,2.6588,2.6559,2.6325,2.6012,2.5822,2.5725,2.5696,2.5734,2.5778,2.6032,2.6369,2.65,2.6617,2.6976,2.6983,2.6998,2.6998,2.6998,2.7034,2.7071,2.7492,2.8,2.9118,2.964,3.039,2.5948,2.5657,2.5275,2.51,2.51,2.51,2.51,2.51,2.51,2.51,2.51,2.51,2.51,2.51,2.51,2.51,2.51,2.51,2.51,2.51,2.51,2.51,2.51,2.51,2.51,2.51,2.51,2.51,2.51,2.51,2.4807,2.4368,2.4485,2.4206,2.3486,2.3458,2.3207,2.2738,2.2531,2.2326,2.2097,2.193,2.189,2.1977,2.2024,2.2017,2.2098,2.2017,2.2071,2.2251,2.2117,2.2058,2.2251,2.2352,2.2425,2.2552,2.2819,2.3131,2.3371,2.3543,2.3852,2.431,2.4501,2.4733,2.508,2.5337,2.5646,2.5944,2.5886,2.5915,2.6091,2.6149,2.6149,2.6149,2.6172,2.6281,2.6296,2.6281,2.631,2.6281,2.639,2.6354,2.6574,2.6668,2.6559,2.6398,2.65,2.6632,2.6661,2.6822,2.6969,2.6983,2.6778,2.6515,2.6222,2.6018,2.6012,2.6135,2.6149,2.6266,2.6559,2.6632,2.6661,2.6969,2.6983,2.6998,2.6998,2.6998,2.7034,2.7107,2.7492,2.8109,2.8722,2.9533,3.0302,2.5988,2.5891,2.5335,2.51,2.51,2.51,2.51,2.51,2.51,2.51,2.51,2.51,2.51,2.51,2.51,2.51,2.51,2.51,2.51,2.51,2.51,2.51,2.51,2.51,2.51,2.51,2.51,2.51,2.51,2.5086,2.4924,2.4602,2.4587,2.4393,2.3963,2.3381,2.3033,2.2902,2.2457,2.2177,2.2378,2.2358,2.2238,2.2144,2.2037,2.2151,2.2352,2.2138,2.2245,2.284,2.2345,2.2278,2.276,2.2579,2.2579,2.2867,2.3126,2.33,2.341,2.3844,2.4219,2.4325,2.4575,2.4984,2.5233,2.5418,2.5641,2.5988,2.6231,2.6406,2.6435,2.6414,2.645,2.6465,2.6713,2.6845,2.691,2.6852,2.6939,2.691,2.6866,2.6852,2.6939,2.6969,2.6925,2.6881,2.6939,2.6939,2.6925,2.6969,2.6983,2.6954,2.691,2.6852,2.653,2.6354,2.6281,2.6369,2.6515,2.6574,2.6793,2.7005,2.6969,2.6969,2.6983,2.6998,2.6998,2.7034,2.7071,2.718,2.7347,2.7855,2.8887,2.9066,2.9855,2.5769,2.5388,2.5188,2.51,2.51,2.51,2.51,2.51,2.51,2.51,2.51,2.51,2.51,2.51,2.51,2.51,2.51,2.51,2.51,2.51,2.51,2.51,2.51,2.51,2.51,2.51,2.51,2.51,2.51,2.51,2.4924,2.4661,2.4602,2.4342,2.3804,2.3728,2.3473,2.2996,2.289,2.297,2.2974,2.2958,2.3033,2.3134,2.2786,2.2686,2.2958,2.2699,2.2773,2.314,2.2766,2.2853,2.3362,2.3166,2.3012,2.3153,2.326,2.3407,2.3594,2.3856,2.4074,2.4296,2.4246,2.4553,2.5035,2.5365,2.5656,2.597,2.6264,2.6417,2.6445,2.6445,2.6409,2.646,2.6546,2.6728,2.691,2.6998,2.6998,2.6998,2.6998,2.6998,2.6998,2.6998,2.6998,2.6998,2.6998,2.6998,2.6998,2.6998,2.6939,2.6735,2.6676,2.6647,2.6544,2.6632,2.6705,2.6749,2.6837,2.6837,2.7005,2.702,2.6983,2.6983,2.6998,2.6998,2.6998,2.7034,2.7071,2.7492,2.7674,2.8202,2.9445,2.9676,3.0318,2.5608,2.5261,2.513,2.51,2.51,2.51,2.51,2.51,2.51,2.51,2.51,2.5188,2.5213,2.5247,2.5198,2.5305,2.5364,2.5203,2.51,2.51,2.51,2.51,2.51,2.51,2.51,2.51,2.51,2.51,2.51,2.51,2.4968,2.4778,2.4763,2.4528,2.4126,2.4064,2.3781,2.3381,2.3408,2.3386,2.333,2.3432,2.362,2.3817,2.3442,2.3281,2.346,2.3308,2.3281,2.3407,2.326,2.3375,2.3736,2.3581,2.3474,2.3439,2.3567,2.3688,2.3888,2.3995,2.4156,2.4381,2.4266,2.4433,2.5003,2.5293,2.5513,2.5783,2.6006,2.6152,2.5921,2.5926,2.607,2.6166,2.6217,2.6363,2.6728,2.6801,2.6838,2.6998,2.6998,2.6998,2.6998,2.6998,2.6998,2.6998,2.6998,2.6998,2.6998,2.6983,2.6881,2.6574,2.653,2.6457,2.6354,2.6383,2.6705,2.6822,2.6881,2.6939,2.6998,2.6998,2.6998,2.6998,2.6998,2.6998,2.6998,2.6998,2.7311,2.7783,2.8021,2.8382,2.9409,3.0337,3.0781,2.55,2.5432,2.5217,2.51,2.51,2.51,2.51,2.51,2.51,2.5115,2.5173,2.5374,2.5491,2.55,2.5535,2.5661,2.5798,2.5393,2.5144,2.5144,2.51,2.51,2.51,2.51,2.51,2.51,2.51,2.51,2.51,2.51,2.5071,2.5071,2.5042,2.4979,2.5022,2.4342,2.4012,2.3822,2.3597,2.3412,2.3356,2.3682,2.398,2.4151,2.395,2.3781,2.383,2.3777,2.375,2.3803,2.3777,2.379,2.3803,2.3768,2.3817,2.3808,2.4022,2.4168,2.4222,2.4399,2.4492,2.4536,2.4593,2.4725,2.4965,2.5135,2.5226,2.5375,2.5556,2.5564,2.5006,2.5135,2.5446,2.5726,2.58,2.5983,2.6326,2.6422,2.6582,2.691,2.6998,2.6998,2.6998,2.6998,2.6998,2.6998,2.6998,2.6998,2.6998,2.6998,2.6852,2.6603,2.65,2.6442,2.6222,2.6041,2.6457,2.6778,2.6837,2.691,2.6969,2.6998,2.6998,2.6998,2.6998,2.6998,2.6998,2.7034,2.7129,2.7565,2.7949,2.8563,2.9445,3.0266,3.0622,2.5608,2.5213,2.513,2.51,2.51,2.51,2.51,2.51,2.51,2.5203,2.5374,2.5456,2.5617,2.5792,2.5836,2.593,2.5974,2.5579,2.5388,2.5359,2.5203,2.51,2.51,2.51,2.51,2.51,2.51,2.51,2.5115,2.51,2.51,2.51,2.51,2.495,2.4713,2.4428,2.4122,2.3625,2.368,2.3697,2.3691,2.3964,2.4223,2.4436,2.4409,2.4369,2.4306,2.3981,2.391,2.4048,2.3875,2.3817,2.3843,2.3968,2.4062,2.4075,2.4142,2.4302,2.4452,2.4532,2.4519,2.4382,2.4358,2.4417,2.4552,2.4627,2.4773,2.4965,2.508,2.4988,2.4879,2.5011,2.5249,2.5373,2.5373,2.5667,2.629,2.6619,2.6838,2.6962,2.6998,2.6998,2.6998,2.6998,2.6998,2.6998,2.6998,2.6998,2.6998,2.6998,2.6866,2.6574,2.653,2.6442,2.6266,2.6164,2.6383,2.6661,2.6764,2.6822,2.6896,2.6998,2.6998,2.6998,2.6998,2.6998,2.6998,2.7071,2.7165,2.7674,2.8274,2.8959,2.9588,3.0124,3.0586,2.5535,2.5115,2.51,2.51,2.51,2.51,2.51,2.51,2.51,2.5276,2.5471,2.5632,2.5851,2.6149,2.6193,2.6281,2.6325,2.5895,2.5734,2.5734,2.5305,2.51,2.51,2.51,2.5173,2.5232,2.5144,2.5217,2.5388,2.5217,2.5144,2.5232,2.5144,2.4984,2.4713,2.4544,2.4232,2.3859,2.397,2.4063,2.4018,2.421,2.4452,2.4583,2.4599,2.4599,2.4572,2.4275,2.4168,2.4302,2.4182,2.4102,2.4115,2.4275,2.4332,2.4332,2.4346,2.4449,2.4572,2.4586,2.4532,2.4396,2.4369,2.4375,2.4417,2.4435,2.4543,2.4715,2.477,2.4757,2.4747,2.5016,2.5115,2.5005,2.5115,2.5483,2.6129,2.6692,2.6962,2.6998,2.6998,2.6998,2.6998,2.6998,2.6998,2.6998,2.6998,2.6998,2.6998,2.6998,2.6793,2.6617,2.653,2.6427,2.631,2.631,2.6354,2.653,2.6676,2.672,2.6764,2.6925,2.6998,2.6998,2.6998,2.6998,2.6998,2.6998,2.7144,2.7855,2.8398,2.8851,2.9354,3.0231,3.0781,2.5374,2.513,2.51,2.51,2.51,2.51,2.51,2.51,2.51,2.5227,2.5549,2.5842,2.6129,2.6442,2.65,2.6661,2.6822,2.6325,2.6135,2.6076,2.5598,2.5144,2.51,2.51,2.5217,2.5344,2.5203,2.5344,2.5696,2.532,2.5198,2.5374,2.5169,2.5052,2.4897,2.466,2.4408,2.4275,2.4317,2.429,2.4191,2.4489,2.4647,2.4586,2.4599,2.4599,2.4586,2.4532,2.4546,2.4586,2.4506,2.4466,2.4559,2.4599,2.4572,2.4559,2.4586,2.4572,2.4599,2.4599,2.4586,2.4559,2.4546,2.4599,2.4593,2.4536,2.4509,2.4559,2.4589,2.4556,2.4616,2.4954,2.5005,2.4784,2.5079,2.5483,2.5836,2.6546,2.6962,2.6998,2.6998,2.6998,2.6998,2.6998,2.6998,2.6998,2.6998,2.6998,2.6998,2.6954,2.6837,2.672,2.6647,2.6588,2.653,2.653,2.6559,2.6515,2.6676,2.6764,2.6764,2.6896,2.6998,2.6998,2.6998,2.6998,2.6998,2.6998,2.6998,2.7311,2.7855,2.8398,2.921,3.0104,3.087,2.5661,2.5388,2.5188,2.51,2.51,2.51,2.51,2.51,2.51,2.5227,2.5515,2.5836,2.6158,2.6515,2.6749,2.691,2.6866,2.6574,2.6252,2.6041,2.5666,2.5271,2.513,2.51,2.5159,2.5247,2.5203,2.5188,2.5335,2.5232,2.5159,2.5203,2.5159,2.495,2.466,2.4519,2.4281,2.4101,2.4195,2.4246,2.4268,2.4495,2.463,2.4609,2.4599,2.4599,2.4599,2.4599,2.4599,2.4586,2.4422,2.4386,2.4572,2.4599,2.4599,2.4599,2.4599,2.4599,2.4599,2.4599,2.4599,2.4599,2.4599,2.4599,2.4586,2.4436,2.4342,2.4315,2.4315,2.4342,2.4405,2.4823,2.5065,2.5129,2.5373,2.5726,2.6166,2.6655,2.6998,2.6998,2.6998,2.6998,2.6998,2.6998,2.6998,2.6998,2.6998,2.6998,2.6998,2.6983,2.6896,2.6925,2.6881,2.6837,2.6808,2.6793,2.6735,2.6588,2.6705,2.691,2.691,2.6954,2.6998,2.6998,2.6998,2.6998,2.6998,2.6998,2.6998,2.6998,2.7638,2.8362,2.9102,2.9962,3.0728,2.5754,2.5315,2.5173,2.51,2.51,2.51,2.51,2.51,2.51,2.5242,2.5515,2.5836,2.6193,2.653,2.6837,2.6983,2.6954,2.6793,2.6617,2.6427,2.6105,2.571,2.5344,2.5154,2.5291,2.5608,2.5408,2.5569,2.5789,2.5511,2.5344,2.5403,2.5217,2.4955,2.4759,2.4784,2.4638,2.4361,2.4502,2.4562,2.4396,2.4506,2.4572,2.4599,2.4599,2.4599,2.4586,2.4479,2.4539,2.4716,2.4563,2.4462,2.4572,2.4599,2.4599,2.4599,2.4599,2.4599,2.4599,2.4599,2.4599,2.4599,2.4599,2.4599,2.4572,2.4439,2.4382,2.4409,2.4396,2.4382,2.4409,2.4726,2.5102,2.541,2.5653,2.5873,2.6129,2.6619,2.6962,2.6998,2.6998,2.6998,2.6998,2.6998,2.6998,2.6998,2.6998,2.6998,2.6998,2.6998,2.6998,2.6998,2.6998,2.6939,2.691,2.6896,2.6881,2.6749,2.6764,2.6983,2.6998,2.6998,2.6998,2.6998,2.6998,2.6998,2.6998,2.6998,2.6998,2.7202,2.7746,2.8346,2.9174,2.989,3.0657,2.5666,2.5144,2.51,2.51,2.51,2.51,2.51,2.51,2.51,2.5232,2.5476,2.5813,2.6105,2.6471,2.6735,2.6954,2.6983,2.6954,2.6925,2.6735,2.6471,2.6076,2.5696,2.5403,2.5637,2.6105,2.5763,2.6032,2.6216,2.5787,2.5685,2.5699,2.5349,2.5036,2.4893,2.5131,2.5081,2.4696,2.4824,2.4857,2.4616,2.4586,2.4599,2.4599,2.4599,2.4599,2.4546,2.4449,2.4505,2.5115,2.4757,2.4569,2.4559,2.4599,2.4599,2.4599,2.4599,2.4599,2.4599,2.4599,2.4599,2.4599,2.4626,2.4613,2.4626,2.4613,2.4626,2.4546,2.4586,2.4559,2.4559,2.4623,2.4894,2.5359,2.5653,2.58,2.5946,2.6509,2.6998,2.6998,2.6998,2.6998,2.6998,2.6998,2.6998,2.6998,2.6998,2.6998,2.6998,2.6998,2.6998,2.6998,2.6998,2.6998,2.6983,2.6983,2.6969,2.6925,2.691,2.6998,2.6998,2.6998,2.6998,2.6998,2.6998,2.6998,2.6998,2.6998,2.7034,2.7347,2.7855,2.8527,2.9282,2.991,3.0657,2.5749,2.5369,2.5188,2.51,2.51,2.51,2.51,2.51,2.51,2.5144,2.5227,2.5505,2.5827,2.6149,2.6486,2.6735,2.6969,2.6983,2.6866,2.6574,2.6266,2.6252,2.6164,2.5944,2.5944,2.6099,2.5982,2.6026,2.6064,2.5873,2.5614,2.5854,2.5332,2.4904,2.4954,2.4952,2.4732,2.4417,2.4628,2.4763,2.467,2.4599,2.4599,2.4599,2.4599,2.4599,2.4599,2.4546,2.4569,2.4606,2.4499,2.4412,2.4559,2.4599,2.4599,2.4599,2.4599,2.4599,2.4599,2.4613,2.4599,2.4649,2.481,2.489,2.4639,2.4836,2.4823,2.4703,2.4599,2.4599,2.4599,2.4599,2.4747,2.5042,2.5469,2.58,2.591,2.6495,2.6962,2.6998,2.6998,2.6998,2.6998,2.6998,2.6998,2.6998,2.6998,2.6998,2.6998,2.6998,2.6998,2.6998,2.6998,2.6998,2.6998,2.6998,2.6998,2.6998,2.6998,2.6998,2.6998,2.6998,2.6998,2.6998,2.6998,2.6998,2.6998,2.7034,2.7071,2.7529,2.8057,2.8851,2.9552,3.0124,3.0622,2.574,2.5301,2.5159,2.51,2.51,2.51,2.51,2.51,2.51,2.51,2.5159,2.5388,2.5676,2.6032,2.6369,2.6691,2.6925,2.702,2.691,2.6735,2.6559,2.6588,2.6661,2.6574,2.6471,2.6406,2.6275,2.6325,2.6327,2.6097,2.606,2.6152,2.5455,2.5123,2.5107,2.498,2.4793,2.4555,2.469,2.4784,2.4636,2.4599,2.4599,2.4599,2.4599,2.4599,2.4599,2.4599,2.4586,2.4559,2.4466,2.4426,2.4559,2.4599,2.4599,2.4599,2.4599,2.471,2.4784,2.4868,2.4857,2.4884,2.5029,2.4863,2.4706,2.4796,2.4796,2.4639,2.4599,2.4599,2.4599,2.4599,2.4636,2.4931,2.5433,2.5836,2.6129,2.6619,2.6998,2.6998,2.6998,2.6998,2.6998,2.6998,2.6998,2.6998,2.6998,2.6998,2.6998,2.6998,2.6998,2.6998,2.6998,2.6998,2.6998,2.6998,2.6998,2.6998,2.6998,2.6998,2.6998,2.6998,2.6998,2.6998,2.6998,2.6998,2.7034,2.7071,2.7274,2.7819,2.8454,2.923,2.9981,3.0622,3.1047,2.5666,2.5159,2.5115,2.5115,2.5159,2.5115,2.51,2.51,2.51,2.51,2.513,2.5359,2.5593,2.5909,2.6266,2.6617,2.691,2.6998,2.6954,2.6779,2.6859,2.6823,2.6816,2.6765,2.6823,2.6918,2.6705,2.672,2.6685,2.6626,2.6358,2.6351,2.5827,2.5426,2.5402,2.5277,2.5075,2.479,2.4881,2.4894,2.4636,2.4599,2.4599,2.4599,2.4599,2.4599,2.4599,2.4599,2.4599,2.4599,2.4639,2.4639,2.4599,2.4673,2.4636,2.4636,2.4747,2.4968,2.5133,2.5235,2.533,2.5285,2.5296,2.5072,2.481,2.4773,2.4759,2.4653,2.4599,2.4599,2.4599,2.471,2.4894,2.5189,2.5593,2.6019,2.6349,2.6728,2.6962,2.6998,2.6998,2.6998,2.6998,2.6998,2.6998,2.6998,2.6998,2.6998,2.6998,2.6998,2.7013,2.6998,2.6998,2.6998,2.6998,2.6998,2.6998,2.6998,2.6998,2.6998,2.6998,2.6998,2.6998,2.6998,2.6998,2.6998,2.7144,2.7311,2.7638,2.8166,2.8959,2.9803,3.0515,3.1135,3.1418,2.5763,2.5398,2.5203,2.5198,2.5388,2.5203,2.51,2.51,2.51,2.51,2.51,2.5159,2.533,2.5652,2.5959,2.6427,2.6881,2.6962,2.6801,2.6655,2.6765,2.6765,2.6509,2.6582,2.6655,2.6947,2.6896,2.6816,2.659,2.6452,2.6438,2.6321,2.5923,2.5646,2.5587,2.54,2.513,2.4918,2.4857,2.4673,2.4636,2.4599,2.4599,2.4599,2.4599,2.4599,2.4599,2.4599,2.4599,2.4613,2.4877,2.4836,2.4777,2.4945,2.4958,2.4861,2.523,2.5502,2.5511,2.5801,2.586,2.5752,2.5704,2.5542,2.5219,2.5157,2.4986,2.4746,2.4626,2.4613,2.4599,2.4861,2.5106,2.5364,2.5819,2.6318,2.6501,2.6743,2.6998,2.6998,2.6998,2.6998,2.6998,2.6998,2.6998,2.6998,2.6998,2.6998,2.6998,2.7013,2.7042,2.7027,2.6998,2.6998,2.6998,2.6998,2.6998,2.6998,2.6998,2.6998,2.6998,2.6998,2.6998,2.6998,2.6998,2.6998,2.7202,2.7456,2.8072,2.8671,2.9533,3.0425,3.0958,3.1418,3.1453,2.5579,2.5271,2.5144,2.5173,2.5242,2.5159,2.51,2.51,2.51,2.51,2.51,2.51,2.5227,2.5515,2.5836,2.6383,2.6815,2.6765,2.6582,2.6473,2.6385,2.6312,2.6115,2.6276,2.6312,2.6495,2.6728,2.6765,2.6422,2.6422,2.6385,2.6239,2.58,2.5593,2.5616,2.5175,2.4968,2.4857,2.471,2.4599,2.4599,2.4599,2.4599,2.4599,2.4599,2.4599,2.4599,2.4599,2.4599,2.4626,2.477,2.4831,2.5063,2.5363,2.5593,2.537,2.5741,2.6196,2.6229,2.6518,2.6354,2.6202,2.6009,2.568,2.5407,2.5264,2.5157,2.497,2.4863,2.4863,2.4877,2.5049,2.5378,2.5884,2.6224,2.6495,2.6821,2.6961,2.6991,2.7013,2.6998,2.6998,2.6998,2.6998,2.6998,2.6998,2.6998,2.6998,2.6998,2.7056,2.71,2.7203,2.724,2.7247,2.7217,2.7159,2.7159,2.713,2.7115,2.7115,2.7115,2.7188,2.71,2.7049,2.7013,2.7056,2.7216,2.7507,2.8325,2.9154,2.9851,3.0565,3.1187,3.1595,3.1559,2.5388,2.5173,2.5115,2.513,2.5173,2.5115,2.51,2.51,2.51,2.51,2.51,2.51,2.5183,2.5442,2.5752,2.6197,2.6736,2.6401,2.6276,2.6188,2.5921,2.5724,2.5811,2.5971,2.6052,2.5915,2.6334,2.6655,2.6509,2.6546,2.6473,2.6217,2.563,2.5446,2.5506,2.5115,2.4784,2.471,2.4636,2.4599,2.4599,2.4599,2.4599,2.4599,2.4599,2.4599,2.4599,2.4599,2.4599,2.4663,2.479,2.4975,2.5257,2.5945,2.6248,2.6075,2.6378,2.6876,2.706,2.703,2.6791,2.6707,2.6066,2.5709,2.5438,2.5277,2.5104,2.5144,2.517,2.5117,2.5101,2.5243,2.5701,2.6194,2.6477,2.6625,2.7025,2.7188,2.71,2.7093,2.7013,2.6998,2.6998,2.6998,2.6998,2.6998,2.6998,2.6998,2.7013,2.7115,2.7217,2.743,2.7518,2.7554,2.7525,2.7422,2.7422,2.7385,2.7422,2.7422,2.7422,2.7452,2.7349,2.7291,2.7159,2.7225,2.7393,2.7706,2.8531,2.9344,3.002,3.0669,3.1311,3.1506,3.1453,2.5471,2.5412,2.5203,2.5247,2.5388,2.5203,2.51,2.51,2.51,2.51,2.51,2.51,2.513,2.5218,2.5357,2.5697,2.5884,2.5931,2.5797,2.5719,2.5556,2.545,2.5422,2.5466,2.5614,2.5576,2.5853,2.6115,2.6333,2.6662,2.6487,2.6025,2.5966,2.5974,2.5405,2.5147,2.5152,2.5055,2.476,2.4613,2.4613,2.4613,2.4599,2.4599,2.4599,2.4599,2.4599,2.4599,2.4599,2.4663,2.5225,2.5398,2.5446,2.6182,2.668,2.6944,2.7289,2.7604,2.742,2.7269,2.709,2.6913,2.637,2.5902,2.5606,2.5358,2.5264,2.5451,2.5451,2.5344,2.53,2.5634,2.5999,2.6414,2.6782,2.6901,2.7165,2.724,2.7152,2.7093,2.6998,2.6998,2.6998,2.6998,2.6998,2.6998,2.6998,2.6998,2.7042,2.721,2.7364,2.7554,2.7598,2.7642,2.7686,2.7613,2.7613,2.7619,2.7648,2.7663,2.7678,2.7678,2.7765,2.7692,2.7569,2.7459,2.7556,2.8035,2.8792,2.9529,3.0243,3.0871,3.1469,3.147,3.1347,2.55,2.5471,2.5183,2.5159,2.5227,2.5144,2.51,2.51,2.51,2.51,2.51,2.51,2.5072,2.507,2.5131,2.52,2.5307,2.5276,2.5138,2.5149,2.518,2.5122,2.4974,2.5302,2.5567,2.539,2.5773,2.614,2.6311,2.6214,2.6005,2.5857,2.5732,2.5648,2.537,2.5212,2.5151,2.5076,2.4965,2.489,2.485,2.4693,2.4599,2.4599,2.4599,2.4599,2.4599,2.4599,2.4599,2.47,2.5168,2.5474,2.5691,2.6339,2.6872,2.6938,2.7323,2.7481,2.7411,2.7297,2.7119,2.6807,2.6366,2.5978,2.577,2.5625,2.5464,2.5491,2.5518,2.5438,2.5474,2.5981,2.6405,2.6797,2.7037,2.7165,2.7224,2.7137,2.7137,2.7078,2.6998,2.6998,2.6998,2.6998,2.6998,2.6998,2.6998,2.6998,2.7137,2.7283,2.7481,2.7721,2.773,2.7671,2.7715,2.77,2.7715,2.7721,2.7809,2.7838,2.7911,2.7955,2.8072,2.8101,2.797,2.7891,2.7826,2.8186,2.8783,2.9629,3.0503,3.0924,3.1317,3.1417,3.1223,2.5427,2.5456,2.5217,2.51,2.51,2.51,2.51,2.5086,2.4984,2.4984,2.5052,2.4984,2.4926,2.4839,2.4746,2.4694,2.4748,2.4677,2.4717,2.4792,2.4776,2.4751,2.486,2.5307,2.5281,2.4997,2.5681,2.5894,2.5813,2.5807,2.5763,2.5749,2.5602,2.5401,2.5388,2.5194,2.4991,2.5074,2.5088,2.505,2.501,2.4783,2.4626,2.4599,2.4599,2.4599,2.4599,2.4599,2.4599,2.4673,2.4995,2.5364,2.5635,2.6129,2.6464,2.6544,2.6803,2.6791,2.6725,2.6654,2.6679,2.6416,2.608,2.5715,2.581,2.5837,2.5717,2.5384,2.5611,2.5585,2.5661,2.6119,2.6556,2.6895,2.715,2.728,2.7355,2.7298,2.7159,2.7064,2.6998,2.6998,2.6998,2.6998,2.6998,2.6998,2.6998,2.6998,2.7152,2.7313,2.7452,2.77,2.7765,2.7759,2.7751,2.778,2.778,2.7868,2.797,2.8043,2.8131,2.8277,2.8461,2.8447,2.8335,2.8344,2.828,2.8484,2.872,2.9449,3.0129,3.0701,3.1048,3.1122,3.0707,2.5271,2.5471,2.5217,2.51,2.51,2.51,2.51,2.5052,2.4713,2.4747,2.4916,2.4747,2.4592,2.4439,2.4184,2.4142,2.4296,2.4017,2.447,2.4751,2.4656,2.4696,2.495,2.5096,2.492,2.4724,2.5441,2.5612,2.537,2.5545,2.5729,2.596,2.5574,2.5418,2.5211,2.4991,2.4957,2.5077,2.5117,2.5077,2.4997,2.481,2.4599,2.4599,2.4599,2.4599,2.4599,2.4599,2.4599,2.4636,2.4968,2.5203,2.5437,2.5796,2.6022,2.6013,2.6005,2.5927,2.5736,2.5892,2.5972,2.5878,2.5691,2.5411,2.5585,2.5355,2.5195,2.5197,2.5516,2.5638,2.5767,2.6078,2.6675,2.6881,2.716,2.7384,2.7457,2.7488,2.7349,2.7086,2.7027,2.71,2.7042,2.7042,2.7115,2.7115,2.7152,2.7166,2.7115,2.7269,2.7386,2.7554,2.7736,2.7809,2.7868,2.7897,2.7926,2.8101,2.8262,2.8321,2.8379,2.854,2.8608,2.8651,2.8578,2.8651,2.8637,2.8546,2.8642,2.9137,2.971,3.0282,3.019,2.9921,2.9472,2.5301,2.5227,2.5144,2.51,2.51,2.51,2.51,2.5018,2.4679,2.4442,2.4442,2.4442,2.4258,2.3891,2.3694,2.3501,2.3512,2.3806,2.4108,2.4383,2.4509,2.4975,2.538,2.5651,2.5755,2.5606,2.588,2.5827,2.5568,2.5471,2.5554,2.5615,2.5475,2.5305,2.5048,2.497,2.5039,2.5146,2.517,2.5077,2.5024,2.4796,2.4599,2.4599,2.4599,2.4599,2.4599,2.4599,2.4599,2.471,2.4968,2.5115,2.5203,2.5543,2.558,2.5483,2.5446,2.5226,2.5059,2.5313,2.5701,2.5653,2.5501,2.5371,2.5438,2.5224,2.5104,2.517,2.5315,2.5462,2.5623,2.6323,2.6972,2.7006,2.7136,2.7349,2.7515,2.7546,2.7604,2.7437,2.7335,2.7371,2.7232,2.7115,2.7188,2.7261,2.7298,2.7283,2.7232,2.7276,2.7422,2.7495,2.7663,2.7824,2.7882,2.797,2.8043,2.8262,2.8481,2.8511,2.8496,2.8437,2.8481,2.8637,2.8681,2.8593,2.8505,2.8335,2.8606,2.92,2.9563,2.9891,2.952,2.9068,2.8652,2.5257,2.51,2.51,2.51,2.51,2.51,2.51,2.5018,2.4679,2.4326,2.4034,2.4122,2.3918,2.3475,2.327,2.3241,2.3301,2.3617,2.3732,2.4223,2.4881,2.5419,2.5782,2.6134,2.6452,2.653,2.6302,2.6038,2.5841,2.5518,2.542,2.5329,2.5197,2.5141,2.5077,2.4977,2.4957,2.4923,2.487,2.4851,2.4812,2.4573,2.4525,2.4562,2.4599,2.4599,2.4599,2.4599,2.4599,2.4673,2.4821,2.4968,2.5115,2.5226,2.5263,2.5152,2.5005,2.4857,2.4864,2.5103,2.5418,2.5233,2.5355,2.5277,2.5224,2.5077,2.4917,2.493,2.5024,2.517,2.5449,2.6077,2.6575,2.6542,2.688,2.7147,2.7442,2.7569,2.7707,2.7765,2.7656,2.7489,2.7445,2.7276,2.7217,2.7291,2.7335,2.7335,2.7349,2.7422,2.7546,2.7575,2.7604,2.7751,2.7882,2.7955,2.8028,2.8116,2.8335,2.854,2.854,2.8452,2.8408,2.8534,2.8549,2.8423,2.8423,2.8491,2.8833,2.9308,2.9411,2.9389,2.9637,2.9254,2.8729,2.51,2.51,2.51,2.51,2.5052,2.51,2.51,2.5052,2.4679,2.4258,2.3884,2.3645,2.3475,2.3338,2.3167,2.3241,2.3507,2.3901,2.424,2.4672,2.5506,2.5905,2.6279,2.6699,2.7151,2.6896,2.6577,2.6312,2.6145,2.5388,2.5152,2.4991,2.4876,2.4927,2.5039,2.4701,2.4324,2.4022,2.3996,2.4197,2.4282,2.4162,2.4206,2.4414,2.4488,2.4488,2.4599,2.4599,2.4599,2.4636,2.4636,2.471,2.4747,2.4747,2.4747,2.471,2.4673,2.4636,2.4676,2.4981,2.5074,2.4917,2.5104,2.5117,2.4799,2.4693,2.4786,2.4983,2.5024,2.5117,2.5294,2.5636,2.6081,2.636,2.6709,2.7169,2.7494,2.7759,2.7926,2.8043,2.7773,2.7533,2.7533,2.7489,2.732,2.732,2.7378,2.7437,2.7495,2.7656,2.7809,2.7765,2.7765,2.7911,2.8043,2.797,2.7999,2.8072,2.8247,2.8525,2.854,2.8379,2.8379,2.8437,2.8379,2.8291,2.8467,2.8666,2.8957,2.9127,2.8801,2.883,2.923,2.9487,2.9041,2.51,2.51,2.51,2.495,2.4781,2.4984,2.51,2.5018,2.4645,2.402,2.3406,2.3304,2.327,2.3201,2.3475,2.366,2.3928,2.4994,2.5404,2.5461,2.6304,2.6913,2.7256,2.7518,2.7876,2.7783,2.732,2.6557,2.6308,2.5367,2.4685,2.4424,2.4385,2.4424,2.4462,2.426,2.387,2.3629,2.3578,2.3653,2.3728,2.3675,2.3809,2.4193,2.423,2.4341,2.4562,2.4599,2.4599,2.4599,2.4599,2.4599,2.4599,2.4599,2.4599,2.4599,2.4613,2.4706,2.4997,2.5329,2.5449,2.517,2.505,2.517,2.5133,2.5173,2.5224,2.5197,2.5237,2.5331,2.546,2.6274,2.6721,2.6575,2.6889,2.7409,2.7803,2.8028,2.8233,2.8262,2.8087,2.7832,2.7715,2.7613,2.7481,2.7583,2.77,2.7707,2.7765,2.7984,2.816,2.8043,2.8014,2.8145,2.8233,2.8218,2.8306,2.8491,2.8593,2.8754,2.8666,2.8408,2.8423,2.8525,2.8335,2.8189,2.8534,2.8783,2.8798,2.8769,2.8695,2.8666,2.8993,2.9396,2.9518,2.5018,2.4883,2.4883,2.4679,2.4428,2.4747,2.4849,2.4679,2.4292,2.3713,2.3236,2.3201,2.3304,2.3406,2.3713,2.4224,2.4451,2.5467,2.5888,2.606,2.7014,2.7468,2.7849,2.8336,2.8599,2.8563,2.7949,2.7151,2.6597,2.541,2.4605,2.413,2.382,2.396,2.3998,2.3808,2.3455,2.3192,2.3105,2.3104,2.3203,2.329,2.3488,2.3859,2.4081,2.4193,2.4488,2.4599,2.4599,2.4599,2.4599,2.4599,2.4599,2.4599,2.4599,2.4599,2.4733,2.4877,2.5181,2.5451,2.5518,2.5503,2.5422,2.5371,2.5424,2.5371,2.5438,2.5478,2.5531,2.5518,2.5711,2.6609,2.6805,2.6659,2.696,2.7482,2.8222,2.8474,2.8701,2.87,2.8525,2.8243,2.787,2.7788,2.7656,2.7809,2.7999,2.8043,2.8087,2.8291,2.8452,2.8364,2.8321,2.8452,2.8525,2.854,2.8695,2.8856,2.8886,2.8886,2.8769,2.8564,2.8593,2.8569,2.8408,2.8379,2.8695,2.8886,2.8856,2.8856,2.8842,2.8842,2.8886,2.9359,2.9931,2.4849,2.4529,2.4495,2.4306,2.4054,2.4258,2.4224,2.3986,2.3611,2.3406,2.3338,2.3065,2.3338,2.3918,2.4068,2.4495,2.5149,2.5918,2.614,2.6412,2.7509,2.7846,2.8277,2.8725,2.9051,2.8938,2.8398,2.7514,2.6881,2.5359,2.4385,2.3946,2.3604,2.3664,2.3613,2.3463,2.3112,2.2863,2.2668,2.2694,2.2781,2.2893,2.3265,2.3637,2.3896,2.4156,2.4414,2.4599,2.4626,2.4626,2.4613,2.4613,2.4613,2.4599,2.4599,2.4693,2.4943,2.509,2.5302,2.5585,2.5705,2.5824,2.5944,2.5677,2.5478,2.5545,2.5665,2.5678,2.5678,2.565,2.5765,2.6214,2.6624,2.6743,2.696,2.7678,2.8559,2.8977,2.9214,2.9192,2.8962,2.8611,2.8044,2.7828,2.8083,2.8145,2.8321,2.8379,2.8437,2.8593,2.8739,2.8754,2.8739,2.8798,2.8842,2.8783,2.8798,2.8886,2.8886,2.8871,2.8754,2.8666,2.8584,2.854,2.8481,2.8554,2.8812,2.8886,2.8886,2.8886,2.8886,2.8886,2.8925,2.9935,3.0546,2.4611,2.4476,2.4224,2.3918,2.3577,2.3406,2.3406,2.3543,2.3441,2.327,2.3065,2.3509,2.3795,2.4068,2.5037,2.551,2.6072,2.6679,2.7277,2.773,2.8098,2.8562,2.8881,2.9091,2.9298,2.9046,2.8491,2.7695,2.6626,2.5125,2.3877,2.3404,2.3321,2.3363,2.3373,2.3249,2.299,2.2733,2.2465,2.2469,2.2458,2.2532,2.3017,2.3439,2.3637,2.397,2.4451,2.4599,2.4666,2.4877,2.4679,2.4666,2.4943,2.4746,2.4653,2.497,2.5224,2.5464,2.5743,2.5972,2.6092,2.6078,2.6172,2.6118,2.5944,2.5904,2.5972,2.5932,2.601,2.6087,2.628,2.6666,2.6983,2.7197,2.7505,2.8222,2.9001,2.9384,2.9618,2.9839,2.9612,2.9247,2.8619,2.8407,2.8647,2.8641,2.8666,2.8695,2.8739,2.8827,2.8871,2.8886,2.8886,2.8886,2.8886,2.8842,2.8871,2.8886,2.8886,2.8886,2.8812,2.8725,2.8598,2.8569,2.8554,2.8695,2.8856,2.8871,2.8798,2.8871,2.8886,2.8886,2.9119,3.0028,3.0647,2.4326,2.4054,2.385,2.3543,2.3201,2.2996,2.303,2.3167,2.3201,2.3065,2.301,2.3645,2.4136,2.4563,2.551,2.6215,2.6615,2.7212,2.7747,2.8063,2.8599,2.8897,2.9186,2.9282,2.9298,2.901,2.8454,2.7608,2.6371,2.4549,2.3117,2.2865,2.2941,2.3169,2.3239,2.3239,2.3191,2.2874,2.2647,2.2441,2.2381,2.2406,2.2843,2.3366,2.344,2.3885,2.4488,2.4599,2.4719,2.489,2.4639,2.4679,2.4877,2.4693,2.477,2.5037,2.5331,2.5611,2.5917,2.6212,2.6265,2.6265,2.6305,2.6212,2.6185,2.6145,2.6198,2.6225,2.6476,2.6688,2.704,2.7323,2.7558,2.7774,2.8289,2.8845,2.9309,2.9696,3.0071,3.0456,3.0325,2.9987,2.9639,2.9387,2.902,2.8714,2.8695,2.8812,2.8827,2.8856,2.8886,2.8886,2.8886,2.8886,2.8886,2.8886,2.8886,2.8886,2.8886,2.8871,2.8842,2.8827,2.8769,2.8739,2.8725,2.8812,2.89,2.8739,2.8681,2.8783,2.8886,2.8886,2.908,2.9703,3.0168,2.3978,2.3399,2.3331,2.3181,2.3003,2.3017,2.3099,2.3065,2.3236,2.2996,2.3099,2.3747,2.4428,2.497,2.5913,2.6664,2.7057,2.7562,2.7945,2.823,2.8599,2.8964,2.9202,2.9266,2.9218,2.8999,2.8336,2.7301,2.5867,2.4179,2.2794,2.237,2.2768,2.3058,2.3143,2.3237,2.3249,2.3186,2.2814,2.2538,2.2574,2.2639,2.2779,2.3518,2.3717,2.3838,2.4417,2.4626,2.4626,2.4639,2.4613,2.4626,2.4613,2.4706,2.4877,2.513,2.5451,2.5745,2.6051,2.6305,2.636,2.6399,2.6412,2.6384,2.6436,2.6292,2.6332,2.6318,2.6502,2.6912,2.7238,2.7709,2.7986,2.8347,2.8815,2.9481,3.0059,3.058,3.1215,3.1432,3.1227,3.0863,3.0357,3.0091,2.9529,2.8999,2.8695,2.8856,2.8886,2.8886,2.8915,2.89,2.8886,2.8886,2.8886,2.8886,2.8886,2.8886,2.8886,2.8886,2.8871,2.8886,2.89,2.89,2.8915,2.8871,2.8871,2.8769,2.8739,2.8812,2.8886,2.8886,2.9158,2.9547,2.9625,2.3266,2.3064,2.2761,2.2896,2.3375,2.3616,2.402,2.4495,2.4495,2.3884,2.327,2.4156,2.4834,2.5206,2.6396,2.716,2.748,2.7754,2.8088,2.844,2.8777,2.8964,2.9119,2.8956,2.9024,2.8873,2.8141,2.659,2.5047,2.3624,2.2719,2.237,2.2683,2.2889,2.3082,2.3188,2.3273,2.3402,2.3116,2.278,2.2695,2.2919,2.316,2.3606,2.3756,2.4183,2.4631,2.4863,2.493,2.4957,2.4693,2.4626,2.4599,2.485,2.5117,2.5398,2.5665,2.5971,2.6172,2.6359,2.6412,2.6558,2.6623,2.6754,2.6741,2.6531,2.6425,2.6436,2.6658,2.712,2.7569,2.804,2.8534,2.8948,2.9447,3.0183,3.0886,3.1621,3.2371,3.2292,3.2093,3.1691,3.1189,3.0653,3.0084,2.9574,2.9046,2.8925,2.8886,2.89,2.8944,2.8944,2.89,2.8886,2.8886,2.8886,2.8886,2.8886,2.8886,2.8886,2.89,2.89,2.8915,2.9061,2.9105,2.9003,2.893,2.893,2.8915,2.89,2.8886,2.8886,2.8886,2.9158,2.9158,2.3022,2.272,2.2485,2.2734,2.3275,2.378,2.4224,2.4563,2.4868,2.4563,2.4054,2.4936,2.5476,2.5622,2.684,2.7469,2.7754,2.809,2.8392,2.8713,2.8856,2.9031,2.8909,2.8487,2.8184,2.7962,2.6466,2.492,2.3916,2.3178,2.2458,2.2382,2.2562,2.2804,2.3046,2.3191,2.3321,2.3571,2.3333,2.308,2.2877,2.3026,2.3409,2.377,2.4125,2.4505,2.4882,2.5104,2.5037,2.5064,2.4917,2.4863,2.4917,2.5117,2.5398,2.569,2.5917,2.6131,2.6293,2.6426,2.6505,2.6676,2.6834,2.6951,2.7227,2.7083,2.7044,2.7118,2.7407,2.7844,2.8197,2.8627,2.9173,2.9627,3.0661,3.163,3.2205,3.2839,3.3154,3.315,3.2935,3.2651,3.2172,3.1848,3.1124,3.0006,2.9508,2.9056,2.9017,2.8973,2.9017,2.9047,2.9061,2.8944,2.8886,2.8886,2.8886,2.8886,2.8959,2.8915,2.893,2.8915,2.8944,2.9134,2.9178,2.9003,2.8944,2.9003,2.893,2.8871,2.8886,2.8886,2.89,2.89,2.9008,2.292,2.2398,2.2371,2.2633,2.3065,2.3802,2.4224,2.4461,2.5003,2.5341,2.5375,2.5947,2.6167,2.6457,2.7178,2.7523,2.7913,2.836,2.8713,2.8856,2.8825,2.8834,2.8404,2.7791,2.712,2.6103,2.4773,2.3875,2.3004,2.2546,2.2395,2.2357,2.2526,2.2768,2.3034,2.3212,2.3342,2.3523,2.3427,2.3273,2.3191,2.3133,2.3547,2.3983,2.4406,2.4803,2.5197,2.5358,2.5211,2.5104,2.5104,2.509,2.5157,2.5331,2.5585,2.5877,2.6051,2.6225,2.6372,2.6505,2.6702,2.69,2.7032,2.7294,2.7594,2.7751,2.7737,2.7908,2.8236,2.8471,2.8783,2.9251,2.978,3.0516,3.1731,3.28,3.3348,3.3765,3.3785,3.3823,3.3575,3.3348,3.3061,3.2719,3.1801,3.0647,2.9927,2.9514,2.9208,2.9223,2.9193,2.9281,2.9393,2.9208,2.909,2.909,2.9188,2.9247,2.932,2.909,2.8959,2.8944,2.9047,2.931,2.9281,2.9164,2.909,2.912,2.9017,2.89,2.8871,2.89,2.893,2.8983,2.9042,2.2203,2.2084,2.2311,2.2761,2.3462,2.4381,2.5138,2.5779,2.6398,2.68,2.67,2.6767,2.6718,2.6182,2.7228,2.777,2.8008,2.857,2.8968,2.9174,2.8683,2.8538,2.7891,2.6623,2.5426,2.4398,2.3605,2.3287,2.2645,2.2373,2.2308,2.232,2.232,2.2514,2.2744,2.2949,2.308,2.3321,2.3378,2.3237,2.3203,2.3273,2.3546,2.4044,2.4608,2.5037,2.5422,2.5718,2.5611,2.5451,2.5264,2.5291,2.5411,2.5558,2.5797,2.605,2.6238,2.6384,2.6531,2.6702,2.6939,2.7175,2.7451,2.7961,2.8236,2.8456,2.8534,2.8691,2.89,2.89,2.9251,2.9858,3.0438,3.1402,3.2512,3.3209,3.3833,3.4043,3.4139,3.4005,3.385,3.3623,3.3449,3.2801,3.1876,3.0779,2.9871,2.9526,2.9424,2.9418,2.9437,2.9584,2.9701,2.9745,2.9731,2.9613,2.9628,2.9672,2.9613,2.9437,2.9193,2.8988,2.9134,2.9471,2.9529,2.9427,2.9369,2.9295,2.9134,2.9071,2.893,2.89,2.9013,2.9287,2.9537]},{"header":{"parameterUnit":"m.s-1","parameterCategory":1,"la1":31.0,"la2":29.5877,"lo1":-88.7671,"lo2":-86.6584,"dy":0.0162,"dx":0.0185,"nx":115,"ny":88,"refTime":"2023-09-20T18:00:00:Z","depth":0,"parameterNumber":3,"parameterNumberName":"V-component_of_WINDS"},"data":[0.0,0.0,0.0,0.0,0.0,0.0,0.0,0.0,0.0,0.0,0.0,0.0,0.0,0.0,0.0,0.0,0.0,0.0,0.0,0.0,0.0,0.0,0.0,0.0,0.0,0.0,0.0,0.0,0.0,0.0,0.0,0.0,0.0,0.0,0.0,0.0,0.0,0.0,0.0,0.0,0.0,0.0,0.0,0.0,0.0,0.0,0.0,0.0,0.0,0.0,0.0,0.0,0.0,0.0,0.0,0.0,0.0,0.0,0.0,0.0,0.0,0.0,0.0,0.0,0.0,0.0,0.0,0.0,0.0,0.0,0.0,0.0,0.0,0.0,0.0,0.0,0.0,0.0,0.0,0.0,0.0,0.0,0.0,0.0,0.0,0.0,0.0,0.0,0.0,0.0,0.0,0.0,0.0,0.0,0.0,0.0,0.0,0.0,0.0,0.0,0.0,0.0,0.0,0.0,0.0,0.0,0.0,0.0,0.0,0.0,0.0,0.0,0.0,0.0,0.0,0.0,0.0,0.0,0.0,0.0,0.0,0.0,0.0,0.0,0.0,0.0,0.0,0.0,0.0,0.0,0.0,0.0,0.0,0.0,0.0,0.0,0.0,0.0,0.0,0.0,0.0,0.0,0.0,0.0,0.0,0.0,0.0,0.0,0.0,0.0,0.0,0.0,0.0,0.0,0.0,0.0,0.0,0.0,0.0,0.0,0.0,0.0,0.0,0.0,0.0,0.0,0.0,0.0,0.0,0.0,0.0,0.0,0.0,0.0,0.0,0.0,0.0,0.0,0.0,0.0,0.0,0.0,0.0,0.0,0.0,0.0,0.0,0.0,0.0,0.0,0.0,0.0,0.0,0.0,0.0,0.0,0.0,0.0,0.0,0.0,0.0,0.0,0.0,0.0,0.0,0.0,0.0,0.0,0.0,0.0,0.0,0.0,0.0,0.0,0.0,0.0,0.0,0.0,0.0,0.0,0.0,0.0,0.0,0.0,0.0,0.0,0.0,0.0,0.0,0.0,0.0,0.0,0.0,0.0,0.0,0.0,0.0,0.0,0.0,0.0,0.0,0.0,0.0,0.0,0.0,0.0,0.0,0.0,0.0,0.0,0.0,0.0,0.0,0.0,0.0,0.0,0.0,0.0,0.0,0.0,0.0,0.0,0.0,0.0,0.0,0.0,0.0,0.0,0.0,0.0,0.0,0.0,0.0,0.0,0.0,0.0,0.0,0.0,0.0,0.0,0.0,0.0,0.0,0.0,0.0,0.0,0.0,0.0,0.0,0.0,0.0,0.0,0.0,0.0,0.0,0.0,0.0,0.0,0.0,0.0,0.0,0.0,0.0,0.0,0.0,0.0,0.0,0.0,0.0,0.0,0.0,0.0,0.0,0.0,0.0,0.0,0.0,0.0,0.0,0.0,0.0,0.0,0.0,0.0,0.0,0.0,0.0,0.0,0.0,0.0,0.0,0.0,0.0,0.0,0.0,0.0,0.0,0.0,0.0,0.0,0.0,0.0,0.0,0.0,0.0,0.0,0.0,0.0,0.0,0.0,0.0,0.0,0.0,0.0,0.0,0.0,0.0,0.0,0.0,0.0,0.0,0.0,0.0,0.0,0.0,0.0,0.0,0.0,0.0,0.0,0.0,0.0,0.0,0.0,0.0,0.0,0.0,0.0,0.0,0.0,0.0,0.0,0.0,0.0,0.0,0.0,0.0,0.0,0.0,0.0,0.0,0.0,0.0,0.0,0.0,0.0,0.0,0.0,0.0,0.0,0.0,0.0,0.0,0.0,0.0,0.0,0.0,0.0,0.0,0.0,0.0,0.0,0.0,0.0,0.0,0.0,0.0,0.0,0.0,0.0,0.0,0.0,0.0,0.0,0.0,0.0,0.0,0.0,0.0,0.0,0.0,0.0,0.0,0.0,0.0,0.0,0.0,0.0,0.0,0.0,0.0,0.0,0.0,0.0,0.0,0.0,0.0,0.0,0.0,0.0,0.0,0.0,0.0,0.0,0.0,0.0,0.0,0.0,0.0,0.0,0.0,0.0,0.0,0.0,0.0,0.0,0.0,0.0,0.0,0.0,0.0,0.0,0.0,0.0,0.0,0.0,0.0,0.0,0.0,0.0,0.0,0.0,0.0,0.0,0.0,0.0,0.0,0.0,0.0,0.0,0.0,0.0,0.0,0.0,0.0,0.0,0.0,0.0,0.0,0.0,0.0,0.0,0.0,0.0,0.0,0.0,0.0,0.0,0.0,0.0,0.0,0.0,0.0,0.0,0.0,0.0,0.0,0.0,0.0,0.0,0.0,0.0,0.0,0.0,0.0,0.0,0.0,0.0,0.0,0.0,0.0,0.0,0.0,0.0,0.0,0.0,0.0,0.0,0.0,0.0,0.0,0.0,0.0,0.0,0.0,0.0,0.0,0.0,0.0,0.0,0.0,0.0,0.0,0.0,0.0,0.0,0.0,0.0,0.0,0.0,0.0,0.0,0.0,0.0,0.0,0.0,0.0,0.0,0.0,0.0,0.0,0.0,0.0,0.0,0.0,0.0,0.0,0.0,0.0,0.0,0.0,0.0,0.0,0.0,0.0,0.0,0.0,0.0,0.0,0.0,0.0,0.0,0.0,0.0,0.0,0.0,0.0,0.0,0.0,0.0,0.0,0.0,0.0,0.0,0.0,0.0,0.0,0.0,0.0,0.0,0.0,0.0,0.0,0.0,0.0,0.0,0.0,0.0,0.0,0.0,0.0,0.0,0.0,0.0,0.0,0.0,0.0,0.0,0.0,0.0,0.0,0.0,0.0,0.0,0.0,0.0,0.0,0.0,0.0,0.0,0.0,0.0,0.0,0.0,0.0,0.0,0.0,0.0,0.0,0.0,0.0,0.0,0.0,0.0,0.0,0.0,0.0,0.0,0.0,0.0,0.0,0.0,0.0,0.0,0.0,0.0,0.0,0.0,0.0,0.0,0.0,0.0,0.0,0.0,0.0,0.0,0.0,0.0,0.0,0.0,0.0,0.0,0.0,0.0,0.0,0.0,0.0,0.0,0.0,0.0,0.0,0.0,0.0,0.0,0.0,0.0,0.0,0.0,0.0,0.0,0.0,0.0,0.0,0.0,0.0,0.0,0.0,0.0,0.0,0.0,0.0,0.0,0.0,0.0,0.0,0.0,0.0,0.0,0.0,0.0,0.0,0.0,0.0,0.0,0.0,0.0,0.0,0.0,0.0,0.0,0.0,0.0,0.0,0.0,0.0,0.0,0.0,0.0,0.0,0.0,0.0,0.0,0.0,0.0,0.0,0.0,0.0,0.0,0.0,0.0,0.0,0.0,0.0,0.0,0.0,0.0,0.0,0.0,0.0,0.0,0.0,0.0,0.0,0.0,0.0,0.0,0.0,0.0,0.0,0.0,0.0,0.0,0.0,0.0,0.0,0.0,0.0,0.0,0.0,0.0,0.0,0.0,0.0,0.0,0.0,0.0,0.0,0.0,0.0,0.0,0.0,0.0,0.0,0.0,0.0,0.0,0.0,0.0,0.0,0.0,0.0,0.0,0.0,0.0,0.0,0.0,0.0,0.0,0.0,0.0,0.0,0.0,0.0,0.0,0.0,0.0,0.0,0.0,0.0,0.0,0.0,0.0,0.0,0.0,0.0,0.0,0.0,0.0,0.0,0.0,0.0,0.0,0.0,0.0,0.0,0.0,0.0,0.0,0.0,0.0,0.0,0.0,0.0,0.0,0.0,0.0,0.0,0.0,0.0,0.0,0.0,0.0,0.0,0.0,0.0,0.0,0.0,0.0,0.0,0.0,0.0,0.0,0.0,0.0,0.0,0.0,0.0,0.0,0.0,0.0,0.0,0.0,0.0,0.0,0.0,0.0,0.0,0.0,0.0,0.0,0.0,0.0,0.0,0.0,0.0,0.0,0.0,0.0,0.0,0.0,0.0,0.0,0.0,0.0,0.0,0.0,0.0,0.0,0.0,0.0,0.0,0.0,0.0,0.0,0.0,0.0,0.0,0.0,0.0,0.0,0.0,0.0,0.0,0.0,0.0,0.0,0.0,0.0,0.0,0.0,0.0,0.0,0.0,0.0,0.0,0.0,0.0,0.0,0.0,0.0,0.0,0.0,0.0,0.0,0.0,0.0,0.0,0.0,0.0,0.0,0.0,0.0,0.0,0.0,0.0,0.0,0.0,0.0,0.0,0.0,0.0,0.0,0.0,0.0,0.0,0.0,0.0,0.0,0.0,0.0,0.0,0.0,0.0,0.0,0.0,0.0,3.0671,0.0,0.0,0.0,0.0,0.0,0.0,0.0,0.0,0.0,0.0,0.0,0.0,0.0,0.0,0.0,0.0,0.0,0.0,0.0,0.0,0.0,0.0,0.0,0.0,0.0,0.0,0.0,0.0,0.0,0.0,0.0,0.0,0.0,0.0,0.0,0.0,0.0,0.0,0.0,0.0,0.0,0.0,0.0,0.0,0.0,0.0,0.0,0.0,0.0,0.0,0.0,0.0,0.0,0.0,0.0,0.0,0.0,0.0,0.0,0.0,0.0,0.0,0.0,0.0,0.0,0.0,0.0,0.0,0.0,0.0,0.0,0.0,0.0,0.0,0.0,0.0,0.0,0.0,0.0,0.0,0.0,0.0,0.0,0.0,0.0,0.0,0.0,0.0,0.0,0.0,0.0,0.0,0.0,0.0,0.0,0.0,0.0,0.0,0.0,0.0,0.0,0.0,0.0,0.0,0.0,0.0,0.0,0.0,0.0,0.0,3.0864,3.0475,3.1409,3.1562,3.0865,0.0,0.0,0.0,0.0,0.0,0.0,0.0,0.0,0.0,0.0,0.0,0.0,0.0,0.0,0.0,0.0,0.0,0.0,0.0,0.0,0.0,0.0,0.0,0.0,0.0,0.0,0.0,0.0,0.0,0.0,0.0,0.0,0.0,0.0,0.0,0.0,0.0,0.0,0.0,0.0,0.0,0.0,0.0,0.0,0.0,0.0,0.0,0.0,0.0,0.0,0.0,0.0,0.0,0.0,0.0,0.0,0.0,0.0,0.0,0.0,0.0,0.0,0.0,0.0,0.0,0.0,0.0,0.0,0.0,0.0,0.0,0.0,0.0,0.0,0.0,0.0,0.0,0.0,0.0,0.0,0.0,0.0,0.0,0.0,0.0,0.0,0.0,0.0,0.0,0.0,0.0,0.0,0.0,0.0,0.0,0.0,0.0,0.0,0.0,0.0,0.0,0.0,0.0,0.0,0.0,0.0,0.0,0.0,0.0,0.0,0.0,0.0,3.1228,3.1685,3.1484,0.0,0.0,0.0,0.0,0.0,0.0,0.0,0.0,0.0,0.0,0.0,0.0,0.0,0.0,0.0,0.0,0.0,0.0,0.0,0.0,0.0,0.0,0.0,0.0,0.0,0.0,0.0,0.0,0.0,0.0,0.0,0.0,0.0,0.0,0.0,0.0,0.0,0.0,0.0,0.0,0.0,0.0,0.0,0.0,0.0,0.0,0.0,0.0,0.0,0.0,0.0,0.0,0.0,0.0,0.0,0.0,0.0,0.0,0.0,0.0,0.0,0.0,0.0,0.0,0.0,0.0,0.0,0.0,0.0,0.0,0.0,0.0,0.0,0.0,0.0,0.0,0.0,0.0,0.0,0.0,0.0,0.0,0.0,0.0,0.0,0.0,0.0,0.0,0.0,0.0,0.0,0.0,0.0,0.0,0.0,0.0,0.0,0.0,0.0,0.0,0.0,0.0,0.0,0.0,0.0,0.0,0.0,0.0,0.0,0.0,3.0308,3.2322,3.2056,0.0,3.3268,0.0,0.0,0.0,0.0,0.0,0.0,0.0,0.0,0.0,0.0,0.0,0.0,0.0,0.0,0.0,0.0,0.0,0.0,0.0,0.0,0.0,0.0,0.0,0.0,0.0,0.0,0.0,0.0,0.0,0.0,0.0,0.0,0.0,0.0,0.0,0.0,0.0,0.0,0.0,0.0,0.0,0.0,0.0,0.0,0.0,0.0,0.0,0.0,0.0,0.0,0.0,0.0,0.0,0.0,0.0,0.0,0.0,0.0,0.0,0.0,0.0,0.0,0.0,0.0,0.0,0.0,0.0,0.0,0.0,0.0,0.0,0.0,0.0,0.0,0.0,0.0,0.0,0.0,0.0,0.0,0.0,0.0,0.0,0.0,0.0,0.0,0.0,0.0,0.0,0.0,0.0,0.0,0.0,0.0,0.0,0.0,0.0,0.0,0.0,0.0,0.0,0.0,0.0,0.0,0.0,0.0,0.0,0.0,0.0,0.0,2.9826,3.1362,3.1302,3.1549,0.0,0.0,0.0,0.0,0.0,0.0,0.0,0.0,0.0,0.0,0.0,0.0,0.0,0.0,0.0,0.0,0.0,0.0,0.0,0.0,0.0,0.0,0.0,0.0,0.0,0.0,0.0,0.0,0.0,0.0,0.0,0.0,0.0,0.0,0.0,0.0,0.0,0.0,0.0,0.0,0.0,0.0,0.0,0.0,0.0,0.0,0.0,0.0,0.0,0.0,0.0,0.0,0.0,0.0,0.0,0.0,0.0,0.0,0.0,0.0,0.0,0.0,0.0,0.0,0.0,0.0,0.0,0.0,0.0,0.0,0.0,0.0,0.0,0.0,0.0,0.0,0.0,0.0,0.0,0.0,0.0,0.0,0.0,0.0,0.0,0.0,0.0,0.0,0.0,0.0,0.0,0.0,0.0,0.0,0.0,0.0,0.0,0.0,0.0,0.0,0.0,0.0,0.0,0.0,0.0,0.0,0.0,0.0,0.0,0.0,2.9576,2.9748,3.0504,3.093,3.1231,3.1408,0.0,0.0,0.0,0.0,0.0,0.0,0.0,0.0,0.0,0.0,0.0,0.0,0.0,0.0,0.0,0.0,0.0,0.0,0.0,0.0,0.0,0.0,0.0,0.0,0.0,0.0,0.0,0.0,0.0,0.0,0.0,0.0,0.0,0.0,0.0,0.0,0.0,0.0,0.0,0.0,0.0,0.0,0.0,0.0,0.0,0.0,0.0,0.0,0.0,0.0,0.0,0.0,0.0,0.0,0.0,0.0,0.0,0.0,0.0,0.0,0.0,0.0,0.0,0.0,0.0,0.0,0.0,0.0,0.0,0.0,0.0,0.0,0.0,0.0,0.0,0.0,0.0,0.0,0.0,0.0,0.0,0.0,0.0,0.0,0.0,0.0,0.0,0.0,0.0,0.0,0.0,0.0,0.0,0.0,0.0,0.0,0.0,0.0,0.0,0.0,0.0,0.0,0.0,0.0,0.0,0.0,0.0,0.0,3.2063,3.0888,3.0312,3.0611,3.1476,3.2025,0.0,0.0,0.0,0.0,0.0,0.0,0.0,0.0,0.0,0.0,0.0,0.0,0.0,0.0,0.0,0.0,0.0,0.0,0.0,0.0,0.0,0.0,0.0,0.0,0.0,0.0,0.0,0.0,0.0,0.0,0.0,0.0,0.0,0.0,0.0,0.0,0.0,0.0,0.0,0.0,0.0,0.0,0.0,0.0,0.0,0.0,0.0,0.0,0.0,0.0,0.0,0.0,0.0,0.0,0.0,0.0,0.0,0.0,0.0,0.0,0.0,0.0,0.0,0.0,0.0,0.0,0.0,0.0,0.0,0.0,0.0,0.0,0.0,0.0,0.0,0.0,0.0,0.0,0.0,0.0,0.0,0.0,0.0,0.0,0.0,0.0,0.0,0.0,0.0,0.0,0.0,0.0,0.0,0.0,0.0,0.0,0.0,0.0,0.0,0.0,0.0,0.0,0.0,0.0,0.0,0.0,0.0,0.0,0.0,3.1628,3.1824,3.1465,3.0543,3.1475,3.2054,0.0,0.0,0.0,0.0,0.0,0.0,0.0,0.0,0.0,0.0,0.0,0.0,0.0,0.0,0.0,0.0,0.0,0.0,0.0,0.0,0.0,0.0,0.0,0.0,0.0,0.0,0.0,0.0,0.0,0.0,0.0,0.0,0.0,0.0,0.0,0.0,0.0,0.0,0.0,0.0,0.0,0.0,0.0,0.0,0.0,0.0,0.0,0.0,0.0,0.0,0.0,0.0,0.0,0.0,0.0,0.0,0.0,0.0,0.0,0.0,0.0,0.0,0.0,0.0,0.0,0.0,0.0,0.0,0.0,0.0,0.0,0.0,0.0,0.0,0.0,0.0,0.0,0.0,0.0,0.0,0.0,0.0,0.0,0.0,0.0,0.0,0.0,0.0,0.0,0.0,0.0,0.0,0.0,0.0,0.0,0.0,0.0,0.0,0.0,0.0,0.0,0.0,0.0,0.0,0.0,0.0,0.0,0.0,0.0,3.1397,0.0,3.2149,3.0927,3.1757,3.2224,0.0,0.0,0.0,0.0,0.0,0.0,0.0,0.0,0.0,0.0,0.0,0.0,0.0,0.0,0.0,0.0,0.0,0.0,0.0,0.0,0.0,0.0,0.0,0.0,0.0,0.0,0.0,0.0,0.0,0.0,0.0,0.0,0.0,0.0,0.0,0.0,0.0,0.0,0.0,0.0,0.0,0.0,0.0,0.0,0.0,0.0,0.0,0.0,0.0,0.0,0.0,0.0,0.0,0.0,0.0,0.0,0.0,0.0,0.0,0.0,0.0,0.0,0.0,0.0,0.0,0.0,0.0,0.0,0.0,0.0,0.0,0.0,0.0,0.0,0.0,0.0,0.0,0.0,0.0,0.0,0.0,0.0,0.0,0.0,0.0,0.0,0.0,0.0,0.0,0.0,0.0,0.0,0.0,0.0,0.0,0.0,0.0,0.0,0.0,0.0,0.0,0.0,0.0,0.0,0.0,0.0,0.0,0.0,3.069,3.1576,3.2219,3.2268,3.1752,3.2418,3.2569,0.0,0.0,0.0,0.0,0.0,0.0,0.0,0.0,0.0,0.0,0.0,0.0,0.0,0.0,0.0,0.0,0.0,0.0,0.0,0.0,0.0,0.0,0.0,0.0,0.0,0.0,0.0,0.0,0.0,0.0,0.0,0.0,0.0,0.0,0.0,0.0,0.0,0.0,0.0,0.0,0.0,0.0,0.0,0.0,0.0,0.0,0.0,0.0,0.0,0.0,0.0,0.0,0.0,0.0,0.0,0.0,0.0,0.0,0.0,0.0,0.0,0.0,0.0,0.0,0.0,0.0,0.0,0.0,0.0,0.0,0.0,0.0,0.0,0.0,0.0,0.0,0.0,0.0,0.0,0.0,0.0,0.0,0.0,0.0,0.0,0.0,0.0,0.0,0.0,0.0,0.0,0.0,0.0,0.0,0.0,0.0,0.0,0.0,0.0,0.0,0.0,0.0,0.0,0.0,0.0,0.0,0.0,0.0,0.0,3.2257,3.2614,3.2904,3.3188,3.3029,3.3124,0.0,0.0,0.0,0.0,0.0,0.0,0.0,0.0,0.0,0.0,0.0,0.0,0.0,0.0,0.0,0.0,0.0,0.0,0.0,0.0,0.0,0.0,0.0,0.0,0.0,0.0,0.0,0.0,0.0,0.0,0.0,0.0,0.0,0.0,0.0,0.0,0.0,0.0,0.0,0.0,0.0,0.0,0.0,0.0,0.0,0.0,0.0,0.0,0.0,0.0,0.0,0.0,0.0,0.0,0.0,0.0,0.0,0.0,0.0,0.0,0.0,0.0,0.0,0.0,0.0,0.0,0.0,0.0,0.0,0.0,0.0,0.0,0.0,0.0,0.0,0.0,0.0,0.0,0.0,0.0,0.0,0.0,0.0,0.0,0.0,0.0,0.0,0.0,0.0,0.0,0.0,0.0,0.0,0.0,0.0,0.0,0.0,0.0,0.0,0.0,0.0,0.0,0.0,0.0,0.0,0.0,0.0,0.0,0.0,3.3479,3.3667,3.3797,3.3994,3.3612,3.3542,3.3777,0.0,0.0,0.0,0.0,0.0,0.0,0.0,0.0,0.0,0.0,0.0,0.0,0.0,0.0,0.0,0.0,0.0,0.0,0.0,0.0,0.0,0.0,0.0,0.0,0.0,0.0,0.0,0.0,0.0,0.0,0.0,0.0,0.0,0.0,0.0,0.0,0.0,0.0,0.0,0.0,0.0,0.0,0.0,0.0,0.0,0.0,0.0,0.0,0.0,0.0,0.0,0.0,0.0,0.0,0.0,0.0,0.0,0.0,0.0,0.0,0.0,0.0,0.0,0.0,0.0,0.0,0.0,0.0,0.0,0.0,0.0,0.0,0.0,0.0,0.0,0.0,0.0,0.0,0.0,0.0,0.0,0.0,0.0,0.0,0.0,0.0,0.0,0.0,0.0,0.0,0.0,0.0,0.0,0.0,0.0,0.0,0.0,0.0,0.0,0.0,0.0,0.0,0.0,0.0,0.0,0.0,0.0,0.0,3.5225,3.5349,3.5106,3.4445,3.4253,3.39,0.0,0.0,0.0,0.0,0.0,0.0,0.0,0.0,0.0,0.0,0.0,0.0,0.0,0.0,0.0,0.0,0.0,0.0,0.0,0.0,0.0,0.0,0.0,0.0,0.0,0.0,0.0,0.0,0.0,0.0,0.0,0.0,0.0,0.0,0.0,0.0,0.0,0.0,0.0,0.0,0.0,0.0,0.0,0.0,0.0,0.0,0.0,0.0,0.0,0.0,0.0,0.0,0.0,0.0,0.0,0.0,0.0,0.0,0.0,0.0,0.0,0.0,0.0,0.0,0.0,0.0,0.0,0.0,0.0,0.0,0.0,0.0,0.0,0.0,0.0,0.0,0.0,0.0,0.0,0.0,0.0,0.0,0.0,0.0,0.0,0.0,0.0,0.0,0.0,0.0,0.0,0.0,0.0,0.0,0.0,0.0,0.0,0.0,0.0,0.0,0.0,0.0,0.0,0.0,0.0,0.0,0.0,0.0,0.0,3.6916,3.8277,3.8304,3.6826,3.5679,3.5029,0.0,0.0,0.0,0.0,0.0,0.0,0.0,0.0,0.0,0.0,0.0,0.0,0.0,0.0,0.0,0.0,0.0,0.0,0.0,0.0,0.0,0.0,0.0,0.0,0.0,0.0,0.0,0.0,0.0,0.0,0.0,0.0,0.0,0.0,0.0,0.0,0.0,0.0,0.0,0.0,0.0,0.0,0.0,0.0,0.0,0.0,0.0,0.0,0.0,0.0,0.0,0.0,0.0,0.0,0.0,0.0,0.0,0.0,0.0,0.0,0.0,0.0,0.0,0.0,0.0,0.0,0.0,0.0,0.0,0.0,0.0,0.0,0.0,0.0,0.0,0.0,0.0,0.0,0.0,0.0,0.0,0.0,0.0,0.0,0.0,0.0,0.0,0.0,0.0,0.0,0.0,0.0,0.0,0.0,0.0,0.0,0.0,0.0,0.0,0.0,0.0,0.0,0.0,0.0,0.0,0.0,0.0,0.0,3.7033,3.8698,4.0472,4.0734,3.9364,3.7827,3.6591,0.0,0.0,0.0,0.0,0.0,0.0,0.0,0.0,0.0,0.0,0.0,0.0,0.0,0.0,0.0,0.0,0.0,0.0,0.0,0.0,0.0,0.0,0.0,0.0,0.0,0.0,0.0,0.0,0.0,0.0,0.0,0.0,0.0,0.0,0.0,0.0,0.0,0.0,0.0,0.0,0.0,0.0,0.0,0.0,0.0,0.0,0.0,0.0,0.0,0.0,0.0,0.0,0.0,0.0,0.0,0.0,0.0,0.0,0.0,0.0,0.0,0.0,0.0,0.0,0.0,0.0,0.0,0.0,0.0,0.0,0.0,0.0,0.0,0.0,0.0,0.0,0.0,0.0,0.0,0.0,0.0,0.0,0.0,0.0,0.0,0.0,0.0,0.0,0.0,0.0,0.0,0.0,0.0,0.0,0.0,0.0,0.0,0.0,0.0,0.0,0.0,0.0,0.0,0.0,0.0,0.0,0.0,0.0,3.8608,4.039,4.2061,4.2505,4.1593,4.0041,3.8189,0.0,0.0,0.0,0.0,0.0,0.0,0.0,0.0,0.0,0.0,0.0,0.0,0.0,0.0,0.0,0.0,0.0,0.0,0.0,0.0,0.0,0.0,0.0,0.0,0.0,0.0,0.0,0.0,0.0,0.0,0.0,0.0,0.0,0.0,0.0,0.0,0.0,0.0,0.0,0.0,0.0,0.0,0.0,0.0,0.0,0.0,0.0,0.0,0.0,0.0,0.0,0.0,0.0,0.0,0.0,0.0,0.0,0.0,0.0,0.0,0.0,0.0,0.0,0.0,0.0,0.0,0.0,0.0,0.0,0.0,0.0,0.0,0.0,0.0,0.0,0.0,0.0,0.0,0.0,0.0,0.0,0.0,0.0,0.0,0.0,0.0,0.0,0.0,0.0,0.0,0.0,0.0,0.0,0.0,0.0,0.0,0.0,0.0,0.0,0.0,0.0,0.0,0.0,0.0,0.0,0.0,0.0,0.0,3.9552,4.1303,4.2951,4.3143,4.1686,4.0068,3.874,0.0,0.0,0.0,0.0,0.0,0.0,0.0,0.0,0.0,0.0,0.0,0.0,0.0,0.0,0.0,0.0,0.0,0.0,0.0,0.0,0.0,0.0,0.0,0.0,0.0,0.0,0.0,0.0,0.0,0.0,0.0,0.0,0.0,0.0,0.0,0.0,0.0,0.0,0.0,0.0,0.0,0.0,0.0,0.0,0.0,0.0,0.0,0.0,3.6754,0.0,0.0,0.0,0.0,0.0,0.0,0.0,0.0,0.0,0.0,0.0,0.0,0.0,0.0,0.0,0.0,0.0,0.0,0.0,0.0,0.0,0.0,0.0,0.0,0.0,0.0,0.0,0.0,0.0,0.0,0.0,0.0,0.0,0.0,0.0,0.0,0.0,0.0,0.0,0.0,0.0,0.0,0.0,0.0,0.0,0.0,0.0,0.0,0.0,0.0,0.0,0.0,0.0,0.0,0.0,0.0,0.0,0.0,0.0,4.0833,4.324,4.4193,4.4258,4.338,4.1786,4.0275,0.0,0.0,0.0,0.0,0.0,0.0,0.0,0.0,0.0,0.0,0.0,0.0,0.0,0.0,0.0,0.0,0.0,0.0,0.0,0.0,0.0,0.0,0.0,0.0,0.0,0.0,0.0,0.0,0.0,0.0,0.0,0.0,0.0,0.0,0.0,0.0,0.0,0.0,0.0,0.0,0.0,0.0,0.0,0.0,0.0,0.0,0.0,0.0,0.0,0.0,0.0,0.0,0.0,0.0,0.0,0.0,0.0,0.0,0.0,0.0,0.0,0.0,0.0,0.0,0.0,0.0,0.0,0.0,0.0,0.0,0.0,0.0,0.0,0.0,0.0,0.0,0.0,0.0,0.0,0.0,0.0,0.0,0.0,0.0,0.0,0.0,0.0,0.0,0.0,0.0,0.0,0.0,0.0,0.0,0.0,0.0,0.0,0.0,0.0,0.0,0.0,0.0,0.0,0.0,0.0,0.0,0.0,4.0698,4.219,4.5134,4.5407,4.5417,4.5273,4.387,4.2049,3.9876,0.0,0.0,0.0,0.0,0.0,0.0,0.0,0.0,0.0,0.0,0.0,0.0,0.0,0.0,0.0,0.0,0.0,0.0,0.0,0.0,0.0,0.0,0.0,0.0,0.0,0.0,0.0,0.0,0.0,0.0,0.0,0.0,0.0,0.0,0.0,0.0,0.0,0.0,3.4401,3.5685,0.0,0.0,0.0,0.0,0.0,0.0,0.0,0.0,3.7089,0.0,0.0,0.0,0.0,0.0,0.0,0.0,0.0,0.0,0.0,0.0,0.0,0.0,0.0,0.0,0.0,0.0,0.0,0.0,0.0,0.0,0.0,0.0,0.0,0.0,0.0,0.0,0.0,0.0,0.0,0.0,0.0,0.0,0.0,0.0,0.0,0.0,0.0,0.0,0.0,0.0,0.0,0.0,0.0,0.0,0.0,0.0,0.0,0.0,0.0,0.0,0.0,0.0,0.0,0.0,0.0,4.2168,4.2243,4.3166,4.5059,4.591,4.5997,4.5309,4.4403,4.3099,4.1379,0.0,0.0,0.0,0.0,0.0,0.0,0.0,0.0,0.0,0.0,0.0,0.0,0.0,0.0,0.0,0.0,0.0,0.0,0.0,0.0,0.0,0.0,0.0,0.0,0.0,0.0,0.0,0.0,0.0,0.0,0.0,0.0,0.0,0.0,0.0,0.0,0.0,0.0,0.0,3.6836,3.7684,0.0,0.0,0.0,0.0,0.0,0.0,0.0,0.0,3.7071,0.0,0.0,0.0,0.0,0.0,0.0,0.0,0.0,0.0,0.0,0.0,0.0,0.0,0.0,0.0,0.0,0.0,0.0,0.0,0.0,0.0,0.0,0.0,0.0,0.0,0.0,0.0,0.0,0.0,0.0,0.0,0.0,0.0,0.0,0.0,0.0,0.0,0.0,0.0,0.0,0.0,0.0,0.0,0.0,0.0,0.0,0.0,0.0,0.0,0.0,0.0,0.0,0.0,0.0,0.0,4.2439,4.3074,4.4343,4.6349,4.6907,4.6928,4.653,4.4947,4.3544,0.0,0.0,0.0,0.0,0.0,0.0,0.0,0.0,0.0,0.0,0.0,0.0,0.0,0.0,0.0,0.0,0.0,0.0,0.0,0.0,0.0,0.0,0.0,0.0,0.0,0.0,0.0,0.0,0.0,0.0,0.0,0.0,0.0,0.0,0.0,0.0,0.0,0.0,0.0,0.0,3.7969,3.8486,3.9222,0.0,0.0,0.0,0.0,0.0,0.0,3.8219,3.8199,0.0,0.0,0.0,0.0,0.0,0.0,0.0,0.0,0.0,0.0,0.0,0.0,0.0,0.0,0.0,0.0,0.0,0.0,0.0,0.0,0.0,0.0,0.0,0.0,0.0,0.0,0.0,0.0,0.0,0.0,0.0,0.0,0.0,0.0,0.0,0.0,0.0,0.0,0.0,0.0,0.0,0.0,0.0,0.0,0.0,0.0,0.0,0.0,0.0,0.0,0.0,0.0,0.0,0.0,0.0,4.2462,4.3624,4.5302,4.7506,4.7668,4.7616,4.7435,4.5454,4.387,0.0,0.0,0.0,0.0,0.0,0.0,0.0,0.0,0.0,0.0,0.0,0.0,0.0,0.0,0.0,0.0,0.0,0.0,0.0,0.0,0.0,0.0,0.0,0.0,0.0,0.0,0.0,0.0,0.0,0.0,0.0,0.0,0.0,0.0,0.0,0.0,0.0,0.0,0.0,0.0,0.0,3.9394,3.9769,3.9937,0.0,0.0,0.0,0.0,3.8797,3.9341,0.0,0.0,0.0,0.0,0.0,0.0,0.0,0.0,0.0,0.0,0.0,0.0,0.0,0.0,0.0,0.0,0.0,0.0,0.0,0.0,0.0,0.0,0.0,0.0,0.0,0.0,0.0,0.0,0.0,0.0,0.0,0.0,0.0,0.0,0.0,0.0,0.0,0.0,0.0,0.0,0.0,0.0,0.0,0.0,0.0,0.0,0.0,0.0,0.0,0.0,0.0,0.0,0.0,0.0,0.0,0.0,4.2277,4.4012,4.5697,4.7255,4.7593,4.7363,4.6639,4.5671,4.444,0.0,0.0,0.0,0.0,0.0,0.0,0.0,0.0,0.0,0.0,0.0,0.0,0.0,0.0,0.0,0.0,0.0,0.0,0.0,0.0,0.0,0.0,0.0,0.0,0.0,0.0,0.0,0.0,0.0,0.0,0.0,0.0,0.0,0.0,0.0,0.0,0.0,0.0,0.0,0.0,0.0,4.057,3.9911,4.0399,4.0496,0.0,0.0,4.0143,3.9942,4.0398,0.0,0.0,0.0,0.0,0.0,0.0,0.0,0.0,0.0,0.0,0.0,0.0,0.0,0.0,0.0,0.0,0.0,0.0,0.0,0.0,0.0,0.0,0.0,0.0,0.0,0.0,0.0,0.0,0.0,0.0,0.0,0.0,0.0,0.0,0.0,0.0,0.0,0.0,0.0,0.0,0.0,0.0,0.0,0.0,0.0,0.0,0.0,0.0,0.0,0.0,0.0,0.0,0.0,0.0,0.0,4.0864,4.2399,4.4487,4.6173,4.7371,4.754,4.7227,4.6504,4.4838,4.3389,0.0,0.0,0.0,0.0,0.0,0.0,0.0,0.0,0.0,0.0,0.0,0.0,0.0,0.0,0.0,0.0,0.0,0.0,0.0,0.0,0.0,0.0,0.0,0.0,0.0,0.0,0.0,0.0,0.0,0.0,0.0,0.0,0.0,0.0,0.0,0.0,0.0,0.0,0.0,0.0,0.0,0.0,4.0761,4.1198,0.0,0.0,0.0,4.178,4.1476,0.0,0.0,0.0,0.0,0.0,0.0,0.0,0.0,0.0,0.0,0.0,0.0,0.0,0.0,0.0,0.0,0.0,0.0,0.0,0.0,0.0,0.0,0.0,0.0,0.0,0.0,0.0,0.0,0.0,0.0,0.0,0.0,0.0,0.0,0.0,0.0,0.0,0.0,0.0,0.0,0.0,0.0,0.0,0.0,0.0,0.0,0.0,0.0,0.0,0.0,0.0,0.0,0.0,0.0,0.0,0.0,0.0,4.2757,4.4918,4.6532,4.7482,4.7551,4.7134,4.6204,4.4449,0.0,0.0,0.0,0.0,0.0,0.0,0.0,0.0,0.0,0.0,0.0,0.0,0.0,0.0,0.0,0.0,0.0,0.0,0.0,0.0,0.0,0.0,0.0,0.0,0.0,0.0,0.0,3.4392,0.0,0.0,0.0,0.0,0.0,0.0,0.0,0.0,0.0,0.0,0.0,0.0,0.0,0.0,4.1057,4.1576,4.2361,4.291,0.0,0.0,4.3369,4.2882,4.3022,4.2766,0.0,0.0,0.0,0.0,0.0,0.0,0.0,0.0,0.0,0.0,0.0,0.0,0.0,0.0,0.0,0.0,0.0,0.0,0.0,0.0,0.0,0.0,0.0,0.0,0.0,0.0,0.0,0.0,0.0,0.0,0.0,0.0,0.0,0.0,0.0,0.0,0.0,0.0,0.0,0.0,0.0,0.0,0.0,0.0,0.0,0.0,0.0,0.0,0.0,0.0,0.0,0.0,0.0,0.0,4.1884,4.3545,4.5289,4.6608,4.7482,4.7625,4.6964,4.5454,4.5236,4.4377,0.0,0.0,0.0,0.0,0.0,0.0,0.0,0.0,0.0,0.0,0.0,0.0,0.0,0.0,0.0,0.0,0.0,0.0,0.0,0.0,0.0,0.0,0.0,0.0,0.0,0.0,0.0,0.0,0.0,0.0,0.0,0.0,0.0,0.0,0.0,0.0,0.0,0.0,0.0,0.0,0.0,4.3682,4.2046,4.395,4.521,0.0,0.0,4.4624,4.3898,4.4163,4.3959,4.2555,0.0,0.0,0.0,0.0,0.0,0.0,0.0,0.0,0.0,0.0,0.0,0.0,0.0,0.0,0.0,0.0,0.0,0.0,0.0,0.0,0.0,0.0,0.0,0.0,0.0,0.0,0.0,0.0,0.0,0.0,0.0,0.0,0.0,0.0,0.0,0.0,0.0,0.0,0.0,0.0,0.0,0.0,0.0,0.0,0.0,0.0,0.0,0.0,0.0,0.0,0.0,0.0,0.0,4.2379,4.3528,4.5685,4.7024,4.7385,4.7529,4.6866,4.5345,4.4838,4.357,0.0,0.0,0.0,0.0,0.0,0.0,0.0,0.0,0.0,0.0,0.0,0.0,0.0,0.0,0.0,0.0,0.0,0.0,0.0,0.0,0.0,0.0,0.0,0.0,0.0,0.0,0.0,0.0,3.6649,3.7336,3.7826,0.0,0.0,0.0,0.0,0.0,0.0,0.0,0.0,0.0,0.0,4.3488,4.2928,4.4422,0.0,0.0,4.5035,4.5258,4.5304,4.4645,4.3978,4.3407,4.2532,0.0,0.0,0.0,0.0,0.0,0.0,0.0,0.0,0.0,0.0,0.0,0.0,0.0,0.0,0.0,0.0,0.0,0.0,0.0,0.0,0.0,0.0,0.0,0.0,0.0,0.0,0.0,0.0,0.0,0.0,0.0,0.0,0.0,0.0,0.0,0.0,0.0,0.0,0.0,0.0,0.0,0.0,0.0,0.0,0.0,0.0,0.0,0.0,0.0,0.0,0.0,0.0,4.319,4.4221,4.6462,4.7613,4.7723,4.7843,4.7062,4.5371,4.4765,4.3462,0.0,0.0,0.0,0.0,0.0,0.0,0.0,0.0,0.0,0.0,0.0,0.0,0.0,0.0,0.0,0.0,0.0,0.0,0.0,0.0,0.0,0.0,0.0,0.0,0.0,0.0,0.0,0.0,3.7978,3.8514,3.9066,0.0,0.0,0.0,0.0,0.0,0.0,0.0,0.0,0.0,0.0,4.429,4.4424,4.5517,4.6258,4.6047,4.587,4.5988,4.6682,4.5423,4.4354,4.4366,0.0,0.0,0.0,0.0,0.0,0.0,0.0,0.0,0.0,0.0,0.0,0.0,0.0,0.0,0.0,0.0,0.0,0.0,0.0,0.0,0.0,0.0,0.0,0.0,0.0,0.0,0.0,0.0,0.0,0.0,3.266,0.0,0.0,0.0,0.0,0.0,0.0,0.0,0.0,0.0,0.0,0.0,0.0,0.0,0.0,0.0,0.0,0.0,0.0,0.0,0.0,0.0,0.0,4.4268,4.5925,4.7577,4.8515,4.8637,4.8782,4.7725,4.5454,4.5309,4.4512,4.2892,0.0,0.0,0.0,0.0,0.0,0.0,0.0,0.0,0.0,0.0,0.0,0.0,0.0,0.0,0.0,0.0,0.0,0.0,0.0,0.0,0.0,0.0,0.0,0.0,0.0,0.0,3.9744,3.9815,3.9815,0.0,0.0,0.0,0.0,0.0,0.0,0.0,0.0,0.0,0.0,4.5318,4.6835,4.6578,4.7453,4.8139,4.8104,4.7252,4.6932,4.795,4.6577,4.5421,0.0,0.0,0.0,0.0,0.0,0.0,0.0,0.0,0.0,0.0,0.0,0.0,0.0,0.0,0.0,0.0,0.0,0.0,0.0,0.0,0.0,0.0,0.0,0.0,0.0,0.0,0.0,3.5461,3.5613,0.0,0.0,0.0,0.0,0.0,0.0,0.0,0.0,0.0,0.0,0.0,3.9787,4.0455,0.0,0.0,0.0,0.0,0.0,0.0,0.0,0.0,0.0,0.0,0.0,0.0,4.4339,4.5996,4.7649,4.8562,4.8709,4.8819,4.8268,4.6928,4.6395,4.5345,4.3761,0.0,0.0,0.0,0.0,0.0,0.0,0.0,0.0,0.0,0.0,0.0,0.0,0.0,0.0,0.0,0.0,0.0,0.0,0.0,0.0,0.0,0.0,0.0,0.0,0.0,3.9886,0.0,0.0,0.0,0.0,0.0,0.0,0.0,0.0,0.0,0.0,0.0,4.4749,4.5117,4.7098,4.8437,4.8232,4.9089,4.9567,0.0,0.0,0.0,0.0,0.0,0.0,0.0,0.0,0.0,0.0,0.0,0.0,0.0,0.0,4.6764,4.4353,4.4333,4.4626,4.4495,0.0,0.0,0.0,0.0,0.0,0.0,0.0,0.0,0.0,0.0,0.0,0.0,0.0,0.0,3.7004,0.0,3.6665,0.0,0.0,0.0,0.0,0.0,0.0,0.0,0.0,4.007,4.1159,4.1847,4.2566,4.2789,0.0,4.2857,4.253,0.0,0.0,0.0,0.0,0.0,0.0,0.0,0.0,4.5125,4.682,4.8198,4.9102,4.9503,4.9372,4.8822,4.7725,4.6639,4.5599,4.4548,4.3761,4.3044,0.0,0.0,0.0,0.0,0.0,0.0,0.0,0.0,0.0,0.0,0.0,0.0,0.0,0.0,0.0,0.0,0.0,0.0,0.0,0.0,0.0,0.0,0.0,4.1135,0.0,0.0,0.0,0.0,0.0,0.0,0.0,0.0,0.0,4.5049,4.6122,4.7298,4.8028,4.9254,5.0065,4.9952,0.0,0.0,0.0,0.0,0.0,0.0,0.0,4.8211,4.8211,4.7829,4.7842,4.892,4.927,4.9253,4.8691,0.0,0.0,4.6586,4.6712,4.7218,4.6942,4.8038,4.9089,4.9131,4.9987,5.0824,0.0,0.0,0.0,0.0,0.0,0.0,0.0,0.0,3.772,3.7956,0.0,3.8003,0.0,0.0,0.0,0.0,0.0,4.045,0.0,0.0,4.2529,4.3429,4.3618,4.4331,4.5054,4.5717,4.5106,4.5131,4.5519,4.3191,0.0,0.0,0.0,0.0,0.0,0.0,4.6744,4.8383,4.9287,5.0194,5.103,5.0432,4.934,4.7725,4.6214,4.5381,4.5309,4.4594,4.415,4.4087,4.3399,0.0,0.0,0.0,0.0,0.0,0.0,0.0,0.0,0.0,0.0,0.0,0.0,0.0,0.0,0.0,0.0,0.0,0.0,0.0,0.0,4.3072,0.0,0.0,0.0,0.0,0.0,0.0,0.0,0.0,0.0,0.0,4.8615,4.8996,4.9947,5.1494,0.0,0.0,0.0,0.0,5.1792,5.1779,5.1792,5.1779,5.1756,5.1137,5.0673,5.0673,0.0,0.0,5.1571,5.133,5.1148,5.11,5.1782,5.1632,4.9902,5.0311,5.0696,5.021,5.0934,5.1813,5.219,5.236,5.2686,4.2913,0.0,0.0,0.0,0.0,4.1159,4.1624,4.2607,4.1644,4.124,4.1206,4.0823,0.0,0.0,0.0,0.0,0.0,0.0,4.2939,4.3608,4.5094,4.618,4.7002,4.7719,4.7979,4.7759,4.7452,4.712,4.6764,4.6029,4.5081,4.3979,0.0,0.0,0.0,0.0,4.8204,4.9323,5.0205,5.0872,5.1228,5.0488,4.934,4.7761,4.7254,4.6757,4.6178,4.5924,4.5273,4.416,4.444,0.0,0.0,0.0,0.0,0.0,0.0,0.0,0.0,0.0,0.0,0.0,0.0,0.0,0.0,0.0,0.0,0.0,0.0,0.0,4.3893,4.4243,4.4621,0.0,0.0,0.0,0.0,0.0,0.0,0.0,0.0,0.0,5.3826,5.2243,5.1387,0.0,0.0,5.2756,5.3265,5.3337,5.3337,5.3337,5.3836,0.0,5.3444,5.3622,5.3836,5.3872,5.4339,5.4817,5.4964,5.4892,5.4824,5.4811,5.5464,5.5653,5.4714,5.3626,5.2918,5.26,5.3502,5.4466,5.4614,5.5065,5.5529,4.6481,4.3658,4.3689,4.3975,4.4317,4.3904,4.4245,4.5081,4.4327,4.4125,4.4216,4.3385,4.2647,4.2096,4.1817,0.0,0.0,0.0,4.5427,4.6693,4.7886,4.9124,5.0412,5.0868,5.1047,5.0985,5.0279,4.9884,4.9704,4.9046,4.8401,4.7687,0.0,0.0,4.7669,4.8432,4.9325,5.0241,5.0802,5.1316,5.1767,5.1006,4.9956,4.8713,4.834,4.7942,4.7471,4.683,4.6069,4.5091,4.52,4.4693,0.0,0.0,0.0,0.0,0.0,0.0,0.0,0.0,0.0,0.0,0.0,4.3824,4.3824,0.0,0.0,0.0,4.4378,4.476,4.5565,4.5702,0.0,0.0,0.0,0.0,0.0,0.0,0.0,5.1422,5.3398,5.5147,5.624,5.5004,5.4219,5.4683,5.4505,5.4349,5.4443,0.0,5.4478,5.4478,5.5419,5.5883,5.5085,5.5633,5.616,5.6214,5.6907,5.7408,5.7443,5.7443,5.7416,5.7396,5.7703,5.784,5.7173,5.6359,5.556,5.495,5.578,5.6641,5.6562,5.7116,5.7667,4.9888,4.8579,4.7595,4.7098,4.6909,4.7039,4.7027,4.6862,4.62,4.6625,4.7653,4.57,4.5141,4.5651,4.5205,0.0,4.7233,4.7423,4.8373,4.9923,5.0807,5.2042,5.3592,5.358,5.3989,5.4676,5.3231,5.287,5.3484,5.2112,5.1787,5.2425,5.0113,4.8894,4.89,4.9468,5.0197,5.1161,5.1197,5.1592,5.2371,5.1695,5.0934,5.0112,4.9365,4.8956,4.8837,4.7471,4.6639,4.6468,4.5852,4.5091,4.4268,0.0,0.0,0.0,0.0,0.0,0.0,0.0,0.0,0.0,0.0,0.0,0.0,0.0,0.0,0.0,4.576,0.0,4.7225,4.7416,0.0,0.0,0.0,4.9865,4.9961,5.2521,5.4028,5.3362,0.0,0.0,5.6775,5.7324,5.7788,5.7788,5.7039,5.624,5.5584,5.5513,5.5477,5.5584,5.6825,5.7531,5.6924,5.7438,5.8029,5.8148,5.8691,5.9129,5.9137,5.9151,5.9094,5.8931,5.8888,5.8765,5.8118,5.8523,5.8619,5.7397,5.7811,5.8292,5.8045,5.8426,5.8857,5.247,5.248,5.1112,4.9827,4.8722,4.9364,4.9257,4.8722,4.9126,4.8889,4.8069,4.7569,4.7082,4.6725,4.7886,4.8636,4.9065,5.094,5.2054,5.2594,5.3411,5.4062,5.4532,5.4569,5.4677,5.4822,5.446,5.4388,5.4532,5.417,5.4098,5.4243,5.3556,5.2558,5.1335,5.1526,5.1765,5.204,5.2109,5.1986,5.1574,5.1405,5.0934,5.0137,4.9919,4.951,4.892,4.8521,4.7761,4.6576,4.6902,4.6504,4.5091,4.5599,0.0,0.0,0.0,0.0,0.0,0.0,0.0,0.0,0.0,4.5309,4.5309,0.0,4.5678,0.0,4.8039,4.8618,4.8246,4.9299,0.0,0.0,5.2278,5.3289,5.3794,5.554,5.6682,5.6504,5.7632,5.8617,5.9023,5.9223,5.9345,5.9345,5.8181,5.7467,5.7796,5.7853,5.7853,5.7917,5.8694,5.9423,5.9258,6.0024,6.0533,6.0504,6.0597,6.0712,6.0631,6.0581,6.0602,6.0522,6.0522,6.0359,5.9926,6.0097,6.0188,6.0086,5.9485,5.8838,5.8788,5.8909,5.8995,5.3943,5.3966,5.3457,5.2516,5.1362,5.1125,5.078,5.0411,5.0852,5.0744,5.0305,5.033,5.0152,4.9794,5.0797,5.1479,5.197,5.3302,5.4157,5.4641,5.5062,5.5497,5.5921,5.5908,5.5921,5.5921,5.5921,5.5921,5.5884,5.5558,5.5558,5.5921,5.5171,5.4483,5.3845,5.352,5.34,5.3448,5.3531,5.3191,5.2452,5.237,5.203,5.1296,5.0526,4.9949,4.9539,4.8814,4.8031,4.712,4.7524,4.7218,4.5995,4.6358,4.6394,0.0,0.0,0.0,0.0,0.0,0.0,0.0,0.0,0.0,0.0,0.0,4.7627,4.8415,4.9559,5.0231,5.0169,5.1622,5.2882,5.3587,5.4997,5.603,5.6335,5.7709,5.8638,5.8709,5.9352,5.9966,6.0467,6.0539,6.0503,6.0503,5.9767,5.9109,5.8774,5.8781,5.8823,5.8873,5.9623,6.0367,6.069,6.1228,6.1544,6.1458,6.143,6.1386,6.1226,6.1182,6.1167,6.1108,6.1093,6.0959,6.0558,6.0784,6.1011,6.0873,6.063,6.0185,5.9839,6.0064,6.0203,5.5049,5.4643,5.5013,5.4835,5.4193,5.2636,5.1993,5.1993,5.2101,5.2506,5.308,5.3232,5.3247,5.3295,5.354,5.406,5.4832,5.4965,5.5424,5.615,5.6259,5.6609,5.7188,5.7297,5.7297,5.7188,5.7188,5.7188,5.7152,5.65,5.6513,5.7116,5.5836,5.5522,5.6102,5.5424,5.4978,5.4907,5.4919,5.4544,5.3814,5.3769,5.3464,5.2783,5.13,5.0482,5.041,4.908,4.8229,4.8036,4.813,4.7819,4.7046,4.7092,4.7092,0.0,4.6954,0.0,0.0,0.0,0.0,0.0,0.0,0.0,0.0,4.9748,5.02,5.0074,5.0986,5.1837,5.2581,5.4122,5.5409,5.6057,5.7431,5.8232,5.8176,5.9302,6.0117,6.0225,6.0753,6.1138,6.122,6.1285,6.1285,6.1228,6.1156,6.0626,5.9467,5.9287,5.9394,5.9314,6.0029,6.0896,6.1414,6.1608,6.1716,6.1759,6.1817,6.1746,6.1737,6.1657,6.1592,6.1495,6.1486,6.1315,6.0764,6.1333,6.1665,6.1534,6.1908,6.1879,6.1083,6.1257,6.1536,5.6797,5.7639,5.5905,5.5491,5.5812,5.4228,5.3551,5.3622,5.4264,5.4343,5.4031,5.4184,5.4247,5.4283,5.5069,5.5505,5.571,5.6389,5.6801,5.6984,5.7659,5.7695,5.7273,5.7876,5.784,5.7224,5.7188,5.7188,5.7188,5.7056,5.7043,5.7188,5.6899,5.6826,5.6935,0.0,0.0,0.0,5.4967,5.4602,5.3862,5.3907,5.3563,5.2831,5.2392,0.0,5.1307,5.0867,5.034,4.9702,4.9774,0.0,0.0,0.0,0.0,0.0,0.0,0.0,0.0,0.0,0.0,0.0,5.1466,5.1249,5.0028,5.1154,5.2011,5.2024,5.3833,5.4858,5.4472,5.629,5.7598,5.7765,5.9065,5.9899,5.9745,6.0461,6.099,6.0923,6.1051,6.1108,6.1138,6.1138,6.1182,6.1299,6.1314,6.125,6.1078,6.0863,6.0827,6.0913,6.1177,6.1604,6.1895,6.1895,6.2143,6.2542,6.2716,6.2868,6.3086,6.3191,6.3182,6.2974,6.2985,6.2913,6.279,6.2933,6.3222,6.3926,6.4065,6.3554,6.1813,6.1693,6.1727,5.7975,0.0,5.7439,5.7154,0.0,5.6344,5.5884,5.5812,5.5062,5.4818,5.4997,5.5497,5.5957,5.6366,5.6891,5.7353,5.7751,5.8177,5.8383,5.842,5.8818,5.8565,5.7804,5.8202,5.7985,5.7188,5.7188,5.7406,5.7768,5.7406,5.7406,5.7768,5.7406,5.7188,5.7188,5.7188,5.679,5.6066,5.6152,5.5813,5.5108,5.5153,5.4627,5.3529,0.0,0.0,0.0,0.0,0.0,0.0,0.0,0.0,0.0,0.0,0.0,4.9661,4.9949,5.0282,5.068,5.1042,5.1622,5.2444,5.3566,5.3711,5.2564,5.3204,5.382,5.4218,5.5667,5.6621,5.6705,5.8355,5.9446,5.9439,6.043,6.1004,6.0912,6.1121,6.1314,6.1314,6.1197,6.1123,6.1197,6.1285,6.1357,6.143,6.1501,6.1573,6.1658,6.1615,6.1559,6.163,6.177,6.1945,6.2014,6.2354,6.2666,6.303,6.3393,6.3675,6.3889,6.3872,6.3747,6.3651,6.3636,6.3642,6.3586,6.3714,6.4028,6.4582,6.4832,6.4621,6.3464,6.3394,6.327,5.8995,5.9116,5.8973,5.8916,5.8909,5.8278,5.8038,5.7935,0.0,0.0,0.0,5.7103,5.7818,5.8445,5.8549,5.8963,5.9579,5.9602,5.9602,5.9602,5.9747,5.9398,5.8624,5.8746,5.842,5.7659,5.7623,5.7985,5.8565,5.7949,5.7949,5.8492,5.7949,5.755,5.7406,5.7286,5.7226,5.7239,5.7351,5.7122,5.6464,5.6475,5.5839,5.4466,5.3638,5.2823,5.1969,5.1235,5.0733,5.0546,5.0744,5.0795,5.0787,5.0973,5.1093,5.1038,5.1006,5.1291,5.1944,5.273,5.3589,5.4472,5.5849,5.6356,5.5595,5.5522,5.5848,5.6573,5.7369,5.813,5.8782,6.0145,6.0973,6.0851,6.1465,6.1806,6.163,6.1487,6.1444,6.1487,6.1299,6.1167,6.1255,6.1401,6.158,6.1623,6.1672,6.1798,6.1812,6.182,6.1834,6.1923,6.1964,6.2028,6.21,6.244,6.2997,6.3164,6.3645,6.4051,6.4296,6.4244,6.4192,6.442,6.4342,6.4318,6.4249,6.4501,6.4686,6.493,6.5189,6.5409,6.5346,6.5294,6.4881,6.0115,6.0701,6.0008,5.9809,5.9831,5.9143,5.8987,5.9083,5.8087,5.81,5.8884,5.9125,5.9286,5.9394,5.9421,5.9506,5.9602,5.9602,5.9602,0.0,6.0326,6.0217,5.9506,6.0145,6.0036,5.9325,5.9253,5.9312,5.9384,5.9325,5.9312,5.9398,5.9325,5.8891,5.8251,5.7664,5.7363,5.7363,5.7498,5.7254,5.6605,5.6672,5.6337,5.5442,5.5035,5.4472,5.3695,5.3344,5.2902,5.2238,5.2885,5.2944,5.2331,5.3629,5.4171,5.3508,5.4064,5.4547,5.4656,5.5385,5.6466,5.7811,5.8756,5.8887,5.7998,5.7913,5.8239,5.9035,5.9724,6.0326,6.0507,6.1267,6.1761,6.1783,6.1878,6.1895,6.1806,6.1714,6.1615,6.1415,6.1314,6.1241,6.1268,6.132,6.1444,6.1609,6.1873,6.1898,6.1981,6.1868,6.1854,6.195,6.2028,6.2028,6.2028,6.2064,6.2535,6.3106,6.3295,6.3876,6.4917,6.5054,6.5211,6.5847,6.5811,6.5832,6.5838,6.5971,6.5992,6.6063,6.6161,6.6254,6.6336,6.599,6.5344,6.0854,6.1154,6.092,6.0863,6.0862,6.0156,5.9984,6.0124,5.9762,5.9545,5.9522,5.9575,5.9819,6.0254,6.0267,6.0507,6.0905,6.0905,6.0905,6.0942,6.1304,6.1014,6.0326,6.0616,6.0362,5.9638,5.9602,5.9832,6.0181,5.9819,5.9832,6.0181,5.9819,5.8999,5.784,5.7867,5.7787,5.7534,5.7631,5.7568,5.7261,5.7389,5.7056,5.6193,5.6006,5.5549,5.4665,5.4562,5.4346,5.3983,5.4332,5.4403,5.4134,5.5201,5.5698,5.5429,5.6111,5.6719,5.7121,5.7826,5.8699,5.9799,6.0158,6.0372,6.0458,5.9582,5.9384,6.0145,6.0616,6.0978,6.1412,6.1774,6.2028,6.2028,6.2028,6.1964,6.1895,6.1826,6.1728,6.1587,6.1501,6.1609,6.1945,6.1724,6.1803,6.2227,6.2462,6.2588,6.2643,6.2964,6.2863,6.2195,6.2028,6.2028,6.2028,6.239,6.2766,6.3178,6.3577,6.4259,6.5236,6.5475,6.5771,6.6412,6.6578,6.6578,6.6563,6.6391,6.6442,6.6608,6.6482,6.6488,6.6442,6.5974,6.5247,6.1479,6.1637,6.1588,6.1623,6.1594,6.1121,6.0992,6.105,6.1086,6.0724,6.0181,6.0145,6.0471,6.1014,6.1086,6.1412,6.1955,6.2028,6.1992,6.2028,6.2028,6.1652,6.1123,6.1086,6.0724,6.0181,6.0158,6.0471,6.0942,6.0435,6.0362,6.0688,5.9964,5.8891,5.7514,5.7976,5.7993,5.7619,5.7786,5.7857,5.7857,5.795,5.7632,5.6965,5.6894,5.6531,5.5842,5.5589,5.5577,5.5735,5.5577,5.566,5.6154,5.6692,5.7106,5.7408,5.7957,5.8653,5.9371,5.9904,6.0495,6.1256,6.1184,6.1434,6.1937,6.0949,6.0484,6.1172,6.1231,6.1412,6.21,6.2281,6.2281,6.2295,6.2426,6.2643,6.2557,6.2438,6.2354,6.2326,6.2227,6.2443,6.2753,6.2587,6.265,6.3176,6.342,6.3454,6.354,6.4048,6.378,6.2969,6.239,6.2331,6.2281,6.2549,6.2911,6.3128,6.3635,6.4396,6.5214,6.5591,6.5917,6.6539,6.6808,6.6757,6.6793,6.6608,6.6563,6.6712,6.6608,6.6412,6.6161,6.58,6.5162,6.1976,6.2443,6.1861,6.1644,6.177,6.1837,6.1869,6.1883,6.1883,6.1847,6.1702,6.1774,6.1774,6.1883,6.1847,6.1919,6.2028,6.2028,6.2028,6.2028,6.2028,6.1955,6.1847,6.1883,6.1847,6.1738,6.1702,6.1702,6.1811,6.1774,6.1412,6.0797,6.0,5.9144,5.8337,5.7897,5.7668,5.7619,5.7857,5.7985,5.7985,5.7997,5.796,5.7875,5.7771,5.7664,5.7542,5.6742,5.6658,5.7327,5.6743,5.6999,5.8288,5.8653,5.9079,5.9798,6.0029,6.053,6.1227,6.1287,6.1538,6.2188,6.208,6.2032,6.2082,6.1897,6.2114,6.2657,6.2281,6.2259,6.2983,6.3092,6.3092,6.3142,6.3635,6.4192,6.407,6.4164,6.4107,6.4,6.3791,6.3928,6.384,6.3841,6.4007,6.4085,6.4237,6.4287,6.4287,6.4504,6.4627,6.4142,6.3613,6.3164,6.3056,6.2476,6.273,6.3128,6.3287,6.4084,6.512,6.5627,6.5881,6.6569,6.6822,6.6822,6.6822,6.6778,6.6727,6.6742,6.6683,6.6548,6.6041,6.5756,6.5395,6.2313,6.2169,6.1929,6.189,6.1923,6.1964,6.2028,6.2028,6.2028,6.2028,6.2028,6.2028,6.2028,6.2028,6.2028,6.2028,6.2028,6.2028,6.2028,6.2028,6.2028,6.2028,6.2028,6.2028,6.2028,6.2028,6.2028,6.2028,6.2028,6.2028,6.134,6.0254,6.0231,5.9457,5.7853,5.7942,5.8152,5.8312,5.8409,5.8761,5.9294,5.8951,5.8951,5.938,5.9381,5.9357,5.9308,5.8931,5.8919,5.9249,5.8956,5.9066,5.9713,6.0237,6.0677,6.1043,6.152,6.1924,6.2179,6.2116,6.2393,6.3053,6.252,6.234,6.2781,6.2749,6.3056,6.3649,6.3164,6.3019,6.3794,6.3889,6.3939,6.3975,6.4229,6.4396,6.4396,6.4396,6.4367,6.431,6.4346,6.4535,6.4816,6.499,6.4831,6.4613,6.4758,6.5084,6.512,6.5518,6.5808,6.5736,6.5156,6.4482,6.4011,6.3671,6.3599,6.3794,6.3903,6.4432,6.5265,6.5591,6.5881,6.6663,6.6786,6.6822,6.6822,6.6822,6.6808,6.6793,6.6578,6.6366,6.5883,6.5607,6.5264,6.3032,6.2518,6.2168,6.2028,6.2028,6.2028,6.2028,6.2028,6.2028,6.2028,6.2028,6.2028,6.2028,6.2028,6.2028,6.2028,6.2028,6.2028,6.2028,6.2028,6.2028,6.2028,6.2028,6.2028,6.2028,6.2028,6.2028,6.2028,6.2028,6.2028,6.1304,6.0217,6.0507,5.9819,5.813,5.852,5.8914,5.9139,5.9176,5.9713,6.0505,6.015,6.004,6.0382,6.0407,6.0493,6.0713,6.0493,6.0639,6.1031,6.0664,6.0603,6.1031,6.141,6.1716,6.1961,6.2695,6.3122,6.3033,6.3178,6.3479,6.3849,6.3106,6.2889,6.3466,6.3406,6.3577,6.4215,6.407,6.4142,6.4577,6.4722,6.4722,6.4722,6.4881,6.5048,6.5084,6.5048,6.512,6.5048,6.5214,6.5229,6.5772,6.5902,6.5736,6.5337,6.5591,6.5917,6.5989,6.6388,6.675,6.6786,6.6279,6.5627,6.4903,6.4396,6.4482,6.4685,6.4722,6.5011,6.5736,6.5917,6.5989,6.675,6.6786,6.6822,6.6822,6.6822,6.6808,6.6778,6.6578,6.632,6.6057,6.5656,6.5261,6.4323,6.3983,6.2607,6.2028,6.2028,6.2028,6.2028,6.2028,6.2028,6.2028,6.2028,6.2028,6.2028,6.2028,6.2028,6.2028,6.2028,6.2028,6.2028,6.2028,6.2028,6.2028,6.2028,6.2028,6.2028,6.2028,6.2028,6.2028,6.2028,6.1992,6.1593,6.0797,6.076,6.0375,5.9496,5.9643,5.9904,5.9954,6.0164,6.0725,6.1484,6.1533,6.1202,6.0737,6.0444,6.086,6.141,6.0823,6.1117,6.2646,6.1288,6.1104,6.2426,6.2034,6.2034,6.2719,6.3539,6.4016,6.4101,6.4524,6.4885,6.4845,6.3915,6.363,6.4162,6.371,6.3663,6.4323,6.5026,6.546,6.5533,6.5583,6.5569,6.5605,6.6221,6.6547,6.6605,6.646,6.6677,6.6605,6.6496,6.646,6.6677,6.675,6.6641,6.6533,6.6677,6.6677,6.6641,6.675,6.6786,6.6714,6.6605,6.646,6.5663,6.5229,6.5048,6.5265,6.5627,6.5772,6.6315,6.6735,6.675,6.675,6.6786,6.6822,6.6822,6.6808,6.6793,6.6748,6.6638,6.6427,6.5942,6.5863,6.551,6.378,6.2838,6.2245,6.2028,6.2028,6.2028,6.2028,6.2028,6.2028,6.2028,6.2028,6.2028,6.2028,6.2028,6.2028,6.2028,6.2028,6.2028,6.2028,6.2028,6.2028,6.2028,6.2028,6.2028,6.2028,6.2028,6.2028,6.2028,6.2028,6.2028,6.1593,6.0942,6.0797,6.0438,5.9854,5.9758,6.0069,6.0796,6.0919,6.164,6.3013,6.3185,6.3282,6.3453,6.2499,6.2328,6.3185,6.2365,6.2462,6.3576,6.2548,6.2683,6.4077,6.3649,6.3332,6.3613,6.3906,6.431,6.4824,6.5102,6.5147,6.4981,6.4207,6.3756,6.3862,6.3984,6.4204,6.4583,6.5728,6.6424,6.6497,6.6497,6.6511,6.6533,6.6751,6.6889,6.6815,6.6822,6.6822,6.6822,6.6822,6.6822,6.6822,6.6822,6.6822,6.6822,6.6822,6.6822,6.6822,6.6822,6.6677,6.617,6.6025,6.5953,6.57,6.5917,6.6098,6.6207,6.6424,6.6424,6.6735,6.6771,6.6786,6.6786,6.6822,6.6822,6.6822,6.6808,6.6793,6.6578,6.6503,6.6238,6.5652,6.5591,6.5297,6.3382,6.2426,6.21,6.2028,6.2028,6.2028,6.2028,6.2028,6.2028,6.2028,6.2028,6.2245,6.2404,6.239,6.2367,6.2535,6.268,6.2281,6.2028,6.2028,6.2028,6.2028,6.2028,6.2028,6.2028,6.2028,6.2028,6.2028,6.2028,6.2028,6.1702,6.1231,6.1195,6.0995,6.0567,6.0508,6.0955,6.1611,6.1684,6.2444,6.3881,6.4052,6.4565,6.5325,6.4297,6.3857,6.4457,6.393,6.3857,6.431,6.3906,6.4114,6.5105,6.4787,6.4494,6.4506,6.4751,6.5081,6.5632,6.5925,6.6033,6.5867,6.5118,6.4596,6.4713,6.4935,6.4975,6.5246,6.6125,6.7032,6.6871,6.6994,6.7148,6.7069,6.7091,6.7033,6.6889,6.6859,6.6845,6.6822,6.6822,6.6822,6.6822,6.6822,6.6822,6.6822,6.6822,6.6822,6.6822,6.6786,6.6533,6.5772,6.5663,6.5482,6.5229,6.5301,6.6098,6.6388,6.6533,6.6677,6.6822,6.6822,6.6822,6.6822,6.6822,6.6822,6.6822,6.6822,6.6653,6.6457,6.6315,6.6161,6.5668,6.5245,6.508,6.3214,6.2947,6.2317,6.2028,6.2028,6.2028,6.2028,6.2028,6.2028,6.2064,6.2209,6.2802,6.3092,6.3214,6.32,6.3613,6.3852,6.2752,6.2136,6.2136,6.2028,6.2028,6.2028,6.2028,6.2028,6.2028,6.2028,6.2028,6.2028,6.2028,6.1955,6.1955,6.1883,6.1824,6.1933,6.1994,6.2248,6.2363,6.249,6.3143,6.3954,6.4084,6.4891,6.6242,6.5692,6.5338,6.5362,6.5215,6.5141,6.5288,6.5215,6.5251,6.5288,6.5301,6.5325,6.5411,6.5999,6.6402,6.6549,6.715,6.7407,6.7183,6.6663,6.6239,6.6441,6.6126,6.5715,6.5783,6.6467,6.6924,6.6551,6.7003,6.7387,6.7238,6.721,6.714,6.7048,6.6968,6.6947,6.6815,6.6822,6.6822,6.6822,6.6822,6.6822,6.6822,6.6822,6.6822,6.6822,6.6822,6.646,6.5844,6.5591,6.5446,6.4903,6.4555,6.5482,6.6279,6.6424,6.6605,6.675,6.6822,6.6822,6.6822,6.6822,6.6822,6.6822,6.6808,6.6727,6.6548,6.6345,6.6083,6.5652,6.5278,6.5112,6.3382,6.2404,6.21,6.2028,6.2028,6.2028,6.2028,6.2028,6.2028,6.2281,6.2802,6.3106,6.3504,6.3939,6.4048,6.4178,6.4287,6.3309,6.2838,6.2766,6.2281,6.2028,6.2028,6.2028,6.2028,6.2028,6.2028,6.2028,6.2064,6.2028,6.2028,6.2028,6.2028,6.2046,6.2141,6.2212,6.2331,6.2563,6.3126,6.3912,6.4872,6.5396,6.6216,6.7136,6.7063,6.6953,6.6893,6.5888,6.5582,6.6072,6.5595,6.5325,6.5398,6.5852,6.6109,6.6145,6.6329,6.6769,6.7297,6.7517,6.748,6.699,6.6583,6.6186,6.5886,6.565,6.5386,6.5355,6.598,6.6391,6.6431,6.7008,6.7419,6.7414,6.7414,6.7303,6.7062,6.6932,6.6845,6.6837,6.6822,6.6822,6.6822,6.6822,6.6822,6.6822,6.6822,6.6822,6.6822,6.6822,6.6496,6.5772,6.5663,6.5446,6.5011,6.4758,6.5301,6.5989,6.6243,6.6388,6.6569,6.6822,6.6822,6.6822,6.6822,6.6822,6.6822,6.6793,6.6712,6.6503,6.6207,6.5911,6.5588,6.5344,6.5128,6.32,6.2064,6.2028,6.2028,6.2028,6.2028,6.2028,6.2028,6.2028,6.2462,6.3142,6.354,6.4084,6.4722,6.483,6.5048,6.5156,6.4192,6.3794,6.3794,6.2535,6.2028,6.2028,6.2028,6.2209,6.2354,6.2136,6.2317,6.2838,6.2317,6.2136,6.2354,6.2136,6.2033,6.2141,6.2208,6.2414,6.2975,6.3476,6.4359,6.5543,6.6179,6.684,6.754,6.77,6.77,6.7627,6.6696,6.6402,6.6769,6.6439,6.6219,6.6256,6.6696,6.6966,6.6966,6.7003,6.7173,6.7627,6.7664,6.7517,6.7026,6.6953,6.6743,6.6186,6.6013,6.5973,6.5992,6.6472,6.6769,6.6856,6.7131,6.7511,6.7552,6.7511,6.7373,6.7083,6.6903,6.6837,6.6822,6.6822,6.6822,6.6822,6.6822,6.6822,6.6822,6.6822,6.6822,6.6822,6.6822,6.6315,6.5881,6.5663,6.541,6.512,6.512,6.5229,6.5663,6.6025,6.6134,6.6243,6.6641,6.6822,6.6822,6.6822,6.6822,6.6822,6.6822,6.6763,6.6427,6.6197,6.5958,6.5736,6.5294,6.508,6.2802,6.21,6.2028,6.2028,6.2028,6.2028,6.2028,6.2028,6.2028,6.244,6.3237,6.3961,6.4772,6.5446,6.5591,6.5989,6.6388,6.5156,6.4685,6.4541,6.3259,6.2136,6.2028,6.2028,6.2317,6.273,6.2281,6.273,6.3599,6.2571,6.2367,6.2802,6.2295,6.2005,6.211,6.2204,6.2765,6.3444,6.3763,6.4858,6.6352,6.6493,6.6809,6.7664,6.77,6.77,6.7664,6.7517,6.7554,6.7664,6.7444,6.7333,6.759,6.77,6.7627,6.759,6.7664,6.7627,6.77,6.77,6.7664,6.759,6.7554,6.77,6.7453,6.7183,6.711,6.7133,6.733,6.7467,6.7403,6.7529,6.7552,6.7633,6.7524,6.7373,6.7196,6.6961,6.6837,6.6822,6.6822,6.6822,6.6822,6.6822,6.6822,6.6822,6.6822,6.6822,6.6822,6.6714,6.6424,6.6134,6.5953,6.5808,6.5663,6.5663,6.5736,6.5627,6.6025,6.6243,6.6243,6.6569,6.6822,6.6822,6.6822,6.6822,6.6822,6.6822,6.6822,6.6653,6.6427,6.6197,6.58,6.5395,6.4994,6.3613,6.2838,6.2245,6.2028,6.2028,6.2028,6.2028,6.2028,6.2028,6.244,6.3251,6.4048,6.4845,6.5627,6.6207,6.6605,6.6496,6.5772,6.4975,6.4555,6.3526,6.2549,6.21,6.2028,6.2173,6.239,6.2281,6.2245,6.2607,6.2354,6.2173,6.2281,6.2173,6.2046,6.2204,6.2847,6.3358,6.3928,6.5144,6.5833,6.6449,6.7073,6.744,6.7614,6.77,6.77,6.77,6.77,6.77,6.7664,6.71,6.7113,6.7627,6.77,6.77,6.77,6.77,6.77,6.77,6.77,6.77,6.77,6.77,6.77,6.7664,6.7136,6.688,6.6806,6.6806,6.688,6.694,6.7286,6.7488,6.7547,6.7414,6.7238,6.7069,6.6918,6.6822,6.6822,6.6822,6.6822,6.6822,6.6822,6.6822,6.6822,6.6822,6.6822,6.6822,6.6786,6.6569,6.6641,6.6533,6.6424,6.6351,6.6315,6.617,6.5808,6.6098,6.6605,6.6605,6.6714,6.6822,6.6822,6.6822,6.6822,6.6822,6.6822,6.6822,6.6822,6.6518,6.6213,6.5848,6.5461,6.5061,6.3744,6.2657,6.2209,6.2028,6.2028,6.2028,6.2028,6.2028,6.2028,6.2476,6.3251,6.4048,6.483,6.5663,6.6424,6.6786,6.6714,6.6315,6.5881,6.541,6.4613,6.3635,6.273,6.2259,6.2499,6.3382,6.2788,6.3187,6.373,6.3042,6.273,6.2875,6.2317,6.2255,6.2753,6.3121,6.3974,6.4832,6.5863,6.6466,6.7026,6.7444,6.7627,6.77,6.77,6.77,6.7664,6.737,6.7307,6.745,6.7257,6.721,6.7627,6.77,6.77,6.77,6.77,6.77,6.77,6.77,6.77,6.77,6.77,6.77,6.7627,6.726,6.699,6.7063,6.7026,6.699,6.7063,6.7363,6.7474,6.74,6.7266,6.7182,6.7083,6.6932,6.6837,6.6822,6.6822,6.6822,6.6822,6.6822,6.6822,6.6822,6.6822,6.6822,6.6822,6.6822,6.6822,6.6822,6.6822,6.6677,6.6605,6.6569,6.6533,6.6207,6.6243,6.6786,6.6822,6.6822,6.6822,6.6822,6.6822,6.6822,6.6822,6.6822,6.6822,6.6697,6.6473,6.6177,6.5816,6.5494,6.5095,6.3526,6.2136,6.2028,6.2028,6.2028,6.2028,6.2028,6.2028,6.2028,6.2354,6.3056,6.3889,6.4613,6.5518,6.617,6.6714,6.6786,6.6714,6.6641,6.617,6.5518,6.4541,6.3599,6.2875,6.3454,6.4613,6.3866,6.4432,6.4989,6.4025,6.3772,6.3808,6.2938,6.2853,6.3498,6.3698,6.4599,6.5833,6.6285,6.6815,6.7403,6.7664,6.77,6.77,6.77,6.77,6.7554,6.7173,6.6986,6.7511,6.756,6.7504,6.759,6.77,6.77,6.77,6.77,6.77,6.77,6.77,6.77,6.77,6.7774,6.7737,6.7774,6.7737,6.7774,6.7554,6.7664,6.759,6.759,6.765,6.7593,6.7378,6.7266,6.721,6.7154,6.6976,6.6822,6.6822,6.6822,6.6822,6.6822,6.6822,6.6822,6.6822,6.6822,6.6822,6.6822,6.6822,6.6822,6.6822,6.6822,6.6822,6.6786,6.6786,6.675,6.6641,6.6605,6.6822,6.6822,6.6822,6.6822,6.6822,6.6822,6.6822,6.6822,6.6822,6.6808,6.6638,6.6427,6.6099,6.5768,6.5442,6.5095,6.383,6.2888,6.2245,6.2028,6.2028,6.2028,6.2028,6.2028,6.2028,6.2136,6.244,6.3128,6.3925,6.4722,6.5555,6.617,6.675,6.6786,6.6496,6.5772,6.5011,6.4975,6.4758,6.4215,6.4215,6.47,6.441,6.4519,6.4714,6.4748,6.4305,6.4293,6.4207,6.4248,6.448,6.5109,6.5819,6.652,6.6983,6.7349,6.755,6.77,6.77,6.77,6.77,6.77,6.77,6.7554,6.7504,6.749,6.7197,6.7187,6.759,6.77,6.77,6.77,6.77,6.77,6.77,6.7737,6.77,6.7724,6.8164,6.8385,6.7811,6.8238,6.8201,6.7871,6.77,6.77,6.77,6.77,6.7647,6.7538,6.7336,6.721,6.7168,6.6939,6.6837,6.6822,6.6822,6.6822,6.6822,6.6822,6.6822,6.6822,6.6822,6.6822,6.6822,6.6822,6.6822,6.6822,6.6822,6.6822,6.6822,6.6822,6.6822,6.6822,6.6822,6.6822,6.6822,6.6822,6.6822,6.6822,6.6822,6.6822,6.6822,6.6808,6.6793,6.6563,6.63,6.5958,6.5604,6.5344,6.5112,6.3708,6.2621,6.2173,6.2028,6.2028,6.2028,6.2028,6.2028,6.2028,6.2028,6.2173,6.2838,6.3649,6.4432,6.5265,6.6062,6.6641,6.6771,6.6605,6.617,6.5736,6.5808,6.5989,6.5772,6.5518,6.546,6.5134,6.5156,6.5366,6.5206,6.501,6.4931,6.483,6.4918,6.53,6.5934,6.6422,6.701,6.7376,6.7633,6.7687,6.77,6.77,6.77,6.77,6.77,6.77,6.77,6.7664,6.759,6.7333,6.7223,6.759,6.77,6.77,6.77,6.77,6.766,6.7633,6.7977,6.8064,6.7679,6.8417,6.8311,6.7994,6.8128,6.8128,6.7811,6.77,6.77,6.77,6.77,6.7687,6.7579,6.735,6.7196,6.7083,6.6932,6.6822,6.6822,6.6822,6.6822,6.6822,6.6822,6.6822,6.6822,6.6822,6.6822,6.6822,6.6822,6.6822,6.6822,6.6822,6.6822,6.6822,6.6822,6.6822,6.6822,6.6822,6.6822,6.6822,6.6822,6.6822,6.6822,6.6822,6.6822,6.6808,6.6793,6.6668,6.6442,6.613,6.5748,6.5409,6.5112,6.491,6.3526,6.2173,6.2064,6.2064,6.2173,6.2064,6.2028,6.2028,6.2028,6.2028,6.21,6.2766,6.3345,6.4229,6.5011,6.5881,6.6605,6.6822,6.6714,6.67,6.6583,6.6598,6.6685,6.6664,6.6598,6.6728,6.6098,6.6134,6.6359,6.6214,6.5859,6.5735,6.5355,6.5596,6.6066,6.6281,6.6733,6.7423,6.7556,6.7593,6.7687,6.77,6.77,6.77,6.77,6.77,6.77,6.77,6.77,6.77,6.7811,6.7811,6.77,6.7674,6.7687,6.7687,6.7647,6.7565,6.7671,6.8174,6.8431,6.7739,6.8568,6.8651,6.8164,6.8178,6.8141,6.7847,6.77,6.77,6.77,6.766,6.7593,6.7483,6.7331,6.7126,6.6997,6.6889,6.6837,6.6822,6.6822,6.6822,6.6822,6.6822,6.6822,6.6822,6.6822,6.6822,6.6822,6.6822,6.6858,6.6822,6.6822,6.6822,6.6822,6.6822,6.6822,6.6822,6.6822,6.6822,6.6822,6.6822,6.6822,6.6822,6.6822,6.6822,6.6763,6.6653,6.6518,6.6254,6.5911,6.5491,6.5162,6.4911,6.4775,6.3866,6.2961,6.2281,6.2367,6.2838,6.2281,6.2028,6.2028,6.2028,6.2028,6.2028,6.2173,6.2693,6.349,6.4251,6.541,6.6533,6.6837,6.6859,6.6918,6.6874,6.6874,6.6976,6.6947,6.6918,6.6801,6.6569,6.6685,6.686,6.683,6.6584,6.6714,6.666,6.6809,6.6874,6.7153,6.7213,6.7542,6.7606,6.7674,6.7687,6.77,6.77,6.77,6.77,6.77,6.77,6.77,6.77,6.7737,6.8348,6.8238,6.7844,6.7616,6.7652,6.773,6.7593,6.7533,6.778,6.8213,6.8483,6.8649,6.9209,6.9352,6.9054,6.9119,6.8765,6.8104,6.7774,6.7737,6.77,6.773,6.7598,6.7501,6.737,6.7135,6.7063,6.6925,6.6822,6.6822,6.6822,6.6822,6.6822,6.6822,6.6822,6.6822,6.6822,6.6822,6.6822,6.6858,6.6931,6.6895,6.6822,6.6822,6.6822,6.6822,6.6822,6.6822,6.6822,6.6822,6.6822,6.6822,6.6822,6.6822,6.6822,6.6822,6.6697,6.6593,6.6336,6.6037,6.5656,6.5247,6.4996,6.4775,6.4758,6.3309,6.2549,6.2136,6.2209,6.2476,6.2173,6.2028,6.2028,6.2028,6.2028,6.2028,6.2028,6.244,6.3251,6.4048,6.5301,6.6475,6.6874,6.6947,6.699,6.6983,6.7011,6.7046,6.7026,6.7011,6.6939,6.6889,6.6874,6.6968,6.6968,6.6983,6.704,6.721,6.7331,6.728,6.7447,6.7565,6.7606,6.766,6.77,6.77,6.77,6.77,6.77,6.77,6.77,6.77,6.77,6.77,6.7774,6.8054,6.799,6.7822,6.7835,6.7999,6.8083,6.7943,6.8021,6.8552,6.9194,6.9674,6.9273,6.9679,6.9843,6.9568,6.9412,6.9119,6.8605,6.8311,6.8311,6.8348,6.8243,6.833,6.8432,6.8093,6.7695,6.744,6.7048,6.6909,6.6858,6.6822,6.6822,6.6822,6.6822,6.6822,6.6822,6.6822,6.6822,6.6822,6.6967,6.7076,6.7329,6.7314,6.7438,6.7366,6.7221,6.7221,6.7148,6.7112,6.7112,6.7112,6.7293,6.7076,6.6844,6.6858,6.6967,6.6734,6.6614,6.6228,6.5867,6.5597,6.5268,6.4929,6.4689,6.4706,6.2838,6.2209,6.2064,6.21,6.2209,6.2064,6.2028,6.2028,6.2028,6.2028,6.2028,6.2028,6.2331,6.3069,6.4039,6.525,6.6591,6.6809,6.7026,6.7018,6.6871,6.6905,6.6913,6.6893,6.6777,6.6747,6.6961,6.6918,6.6976,6.6961,6.699,6.7091,6.7317,6.7387,6.7322,6.7511,6.7633,6.766,6.7687,6.77,6.77,6.77,6.77,6.77,6.77,6.77,6.77,6.77,6.77,6.776,6.788,6.7812,6.7666,6.8033,6.8377,6.8485,6.8494,6.8888,6.9361,6.996,7.0135,6.9916,6.9949,7.004,6.9889,6.9449,6.8972,6.9082,6.9155,6.9009,6.8848,6.9004,6.9085,6.9025,6.875,6.8357,6.7738,6.7293,6.7076,6.6952,6.6858,6.6822,6.6822,6.6822,6.6822,6.6822,6.6822,6.6822,6.6858,6.7112,6.7366,6.7785,6.8002,6.8199,6.8126,6.7873,6.7873,6.7888,6.7873,6.7873,6.7873,6.7945,6.7692,6.7547,6.7221,6.7278,6.6957,6.6786,6.6607,6.6296,6.5778,6.5305,6.4913,6.4776,6.4758,6.3142,6.2997,6.2281,6.239,6.2838,6.2281,6.2028,6.2028,6.2028,6.2028,6.2028,6.2028,6.21,6.2612,6.3861,6.5028,6.5921,6.6573,6.6876,6.6781,6.6467,6.6299,6.6226,6.6125,6.6403,6.6627,6.7022,6.7046,6.7171,6.7041,6.7026,6.7249,6.7314,6.7227,6.7611,6.7707,6.7497,6.7575,6.7683,6.7737,6.7737,6.7737,6.77,6.77,6.77,6.77,6.77,6.77,6.77,6.776,6.8262,6.8156,6.7721,6.7984,6.8168,6.84,6.8726,6.9189,6.9388,6.9783,7.0229,7.034,7.0295,7.0094,6.9995,6.9669,6.9412,6.9926,6.9926,6.9633,6.9275,6.9485,6.9307,6.915,6.9092,6.8291,6.7555,6.7314,6.7097,6.6952,6.6822,6.6822,6.6822,6.6822,6.6822,6.6822,6.6822,6.6822,6.6931,6.7242,6.7728,6.8199,6.8307,6.8416,6.8525,6.8343,6.8343,6.8467,6.854,6.8576,6.8612,6.8612,6.8829,6.8648,6.8235,6.7858,6.7776,6.7579,6.7218,6.6812,6.6363,6.5642,6.488,6.4793,6.4809,6.3214,6.3142,6.2331,6.2173,6.244,6.2136,6.2028,6.2028,6.2028,6.2028,6.2028,6.2028,6.225,6.284,6.3698,6.4385,6.5181,6.5738,6.5916,6.6162,6.6026,6.6089,6.6354,6.6564,6.6714,6.6907,6.7471,6.7875,6.7767,6.7846,6.7968,6.8025,6.803,6.8145,6.8083,6.8225,6.8289,6.8316,6.8357,6.8385,6.8274,6.7958,6.77,6.77,6.77,6.77,6.77,6.77,6.77,6.7747,6.7991,6.7794,6.7587,6.784,6.8218,6.8276,6.8922,6.9322,6.9475,6.9856,7.0302,7.0756,7.0755,7.0773,7.0683,7.0403,6.9963,7.0036,7.011,6.9889,6.9752,7.0189,7.0156,6.9924,6.9412,6.8523,6.77,6.7272,6.7061,6.6916,6.6822,6.6822,6.6822,6.6822,6.6822,6.6822,6.6822,6.6822,6.7061,6.7423,6.8017,6.8721,6.8633,6.8488,6.8597,6.8561,6.8597,6.8721,6.8938,6.9011,6.9192,6.93,6.959,6.9663,6.9337,6.9032,6.8763,6.8151,6.7604,6.7238,6.6932,6.6221,6.5474,6.4862,6.4912,6.3033,6.3106,6.2317,6.2028,6.2028,6.2028,6.2028,6.1992,6.2033,6.2033,6.2005,6.2033,6.2477,6.3057,6.343,6.412,6.4894,6.4921,6.524,6.5546,6.5719,6.5979,6.6272,6.6687,6.6948,6.7305,6.8008,6.8345,6.8584,6.8795,6.902,6.8984,6.8705,6.8738,6.8701,6.8523,6.8431,6.8775,6.8811,6.8825,6.8715,6.8091,6.7774,6.77,6.77,6.77,6.77,6.77,6.77,6.7674,6.7639,6.7501,6.744,6.7628,6.7833,6.7928,6.8371,6.867,6.8947,6.9435,7.0303,7.0653,7.0694,7.0412,7.0793,7.0866,7.0536,6.9743,7.0367,7.0293,7.0265,7.068,7.0558,7.0179,6.9704,6.8813,6.8026,6.767,6.7221,6.688,6.6822,6.6822,6.6822,6.6822,6.6822,6.6822,6.6822,6.6822,6.7097,6.7496,6.7945,6.8561,6.8829,6.8706,6.8793,6.8866,6.8866,6.9083,6.9337,6.9518,6.9735,7.0097,7.0444,7.0408,7.0242,7.0154,6.9885,6.8873,6.797,6.7828,6.7572,6.6884,6.6206,6.5524,6.5201,6.2549,6.3142,6.2317,6.2028,6.2028,6.2028,6.2028,6.2005,6.2141,6.2128,6.206,6.2128,6.2231,6.2543,6.3311,6.4038,6.4981,6.521,6.5667,6.5979,6.6056,6.5833,6.6071,6.635,6.6541,6.6906,6.7931,6.8618,6.8999,6.9476,6.9741,6.9781,6.909,6.8898,6.8683,6.8431,6.8568,6.8898,6.9009,6.8898,6.8678,6.8164,6.77,6.77,6.77,6.77,6.77,6.77,6.77,6.7687,6.7565,6.752,6.7474,6.7421,6.746,6.7547,6.7634,6.7873,6.8154,6.868,6.9234,6.9561,6.9755,6.9816,7.0293,6.9545,6.9105,6.9229,6.9986,7.044,7.0435,7.057,7.0639,7.0142,6.9616,6.8856,6.828,6.8141,6.7692,6.704,6.6895,6.7076,6.6931,6.6931,6.7112,6.7112,6.7097,6.7133,6.7112,6.7387,6.7677,6.8199,6.8757,6.8938,6.9083,6.9155,6.9228,6.9663,7.0061,7.0206,7.0351,7.0749,7.0806,7.0915,7.0734,7.0915,7.0879,6.9777,6.8935,6.8642,6.8226,6.7717,6.7116,6.6423,6.6196,6.2621,6.244,6.2136,6.2028,6.2028,6.2028,6.2028,6.2019,6.2154,6.2248,6.2248,6.2248,6.2278,6.2545,6.2746,6.3277,6.3731,6.4205,6.4801,6.5324,6.5444,6.5811,6.6116,6.6389,6.6767,6.7034,6.7974,6.8621,6.8843,6.9628,6.9972,6.9783,6.9169,6.894,6.8701,6.8605,6.8912,6.9206,6.9155,6.8898,6.8752,6.8128,6.77,6.77,6.77,6.77,6.77,6.77,6.77,6.766,6.7565,6.7511,6.752,6.7308,6.7294,6.7373,6.7387,6.747,6.7698,6.8271,6.9085,6.9769,6.9825,6.9706,6.9889,6.9302,6.8972,6.9155,6.9435,6.9839,7.0279,7.0521,7.061,7.0011,6.9332,6.866,6.8425,6.8286,6.8431,6.7909,6.7655,6.764,6.7402,6.7112,6.7293,6.7474,6.7459,6.7423,6.7402,6.751,6.7873,6.8054,6.8576,6.8974,6.9119,6.9337,6.9518,7.0061,7.0604,7.0677,7.0641,7.0496,7.0604,7.0879,7.0987,7.077,7.0553,7.0242,6.9922,6.9633,6.9225,6.8744,6.8095,6.7354,6.7193,6.2512,6.2028,6.2028,6.2028,6.2028,6.2028,6.2028,6.2019,6.2154,6.2252,6.2407,6.2331,6.241,6.2578,6.2654,6.2998,6.3267,6.3483,6.3899,6.4466,6.5136,6.5683,6.6086,6.6452,6.683,6.7135,6.7854,6.8499,6.8657,6.9403,6.9605,6.9472,6.9229,6.8958,6.8898,6.8976,6.9274,6.9535,6.9388,6.898,6.887,6.8208,6.7727,6.7714,6.77,6.77,6.77,6.77,6.77,6.7674,6.762,6.7565,6.7511,6.747,6.7456,6.7497,6.7552,6.7606,6.7853,6.839,6.8898,6.9091,6.9545,6.9449,6.9302,6.8898,6.8458,6.8495,6.8752,6.9155,6.9802,6.9862,6.9799,6.9143,6.8677,6.8152,6.8244,6.8235,6.8685,6.8829,6.8452,6.793,6.7821,6.751,6.7366,6.7547,6.7655,6.7655,6.7692,6.7873,6.8286,6.8358,6.8431,6.8793,6.9119,6.93,6.9481,6.9699,7.0242,7.0749,7.0749,7.0532,7.0423,7.0625,7.0661,7.046,7.046,7.0517,7.0588,7.0646,7.0138,6.9553,6.8981,6.8295,6.8094,6.2028,6.2028,6.2028,6.2028,6.2005,6.2028,6.2028,6.2005,6.2154,6.2278,6.2423,6.2513,6.2578,6.2629,6.2692,6.2998,6.3399,6.3085,6.3457,6.4589,6.5062,6.524,6.5764,6.6395,6.6676,6.699,6.7579,6.8101,6.8333,6.8701,6.8871,6.9013,6.893,6.8953,6.8912,6.9034,6.9168,6.9273,6.9199,6.9047,6.881,6.8231,6.7884,6.7767,6.7741,6.7741,6.77,6.77,6.77,6.7687,6.7687,6.766,6.7647,6.7647,6.7647,6.766,6.7674,6.7687,6.7797,6.8518,6.8775,6.8458,6.8972,6.9009,6.8251,6.7958,6.8214,6.8641,6.8752,6.9009,6.9027,6.9026,6.9068,6.8669,6.824,6.81,6.8265,6.8706,6.9228,6.9518,6.8742,6.8039,6.8039,6.793,6.7619,6.7619,6.7764,6.7909,6.8054,6.8452,6.8938,6.8829,6.8829,6.9192,6.9518,6.9337,6.9409,6.959,7.0025,7.0713,7.0749,7.0351,7.0351,7.0496,7.0351,7.0134,7.0568,7.0951,7.1002,7.0974,7.0728,7.0252,6.9705,6.9257,6.8937,6.2028,6.2028,6.2028,6.2046,6.2114,6.2033,6.2028,6.2019,6.2168,6.237,6.2603,6.2641,6.2654,6.2679,6.2578,6.2758,6.2949,6.3962,6.4388,6.4534,6.5207,6.5887,6.6211,6.6229,6.6376,6.6457,6.6987,6.7419,6.7433,6.7959,6.8168,6.8262,6.8981,6.9091,6.9078,6.9107,6.9078,6.8624,6.8476,6.845,6.8424,6.8153,6.7941,6.7847,6.7834,6.7794,6.7714,6.77,6.77,6.77,6.77,6.77,6.77,6.77,6.77,6.77,6.7737,6.7994,6.8678,6.9472,6.9802,6.9155,6.8825,6.9155,6.9169,6.9279,6.9302,6.9229,6.9339,6.9596,6.9715,7.0039,6.9953,6.9005,6.859,6.8593,6.8814,6.9481,6.9989,7.0061,6.9626,6.8887,6.8597,6.8343,6.8017,6.8271,6.8561,6.8685,6.8829,6.9373,6.9808,6.9518,6.9445,6.9771,6.9989,6.9952,7.017,7.0517,7.077,7.1168,7.0951,7.0423,7.046,7.0713,7.0242,6.988,7.0625,7.1241,7.1277,7.1205,7.1024,7.0951,7.0649,7.0102,6.9541,6.2019,6.2073,6.2073,6.2154,6.2212,6.2128,6.2087,6.2154,6.2265,6.2488,6.2667,6.2679,6.2641,6.2603,6.2488,6.2291,6.2371,6.2933,6.3774,6.3999,6.4916,6.5404,6.5709,6.6053,6.6068,6.6083,6.6345,6.6676,6.6983,6.74,6.7948,6.8615,6.9302,6.9708,6.9695,6.9512,6.922,6.8814,6.8679,6.8308,6.8233,6.8121,6.8094,6.7965,6.7886,6.7847,6.7741,6.77,6.77,6.77,6.77,6.77,6.77,6.77,6.77,6.77,6.8068,6.8348,6.9068,6.9926,7.011,6.9949,6.9729,6.9706,6.9853,6.9706,6.9889,7.0,7.0146,7.011,7.0164,7.058,7.0172,6.9224,6.8771,6.8775,6.877,6.9384,6.9291,6.9503,6.9617,6.9142,6.8872,6.8778,6.8452,6.8938,6.9409,6.9518,6.9626,7.0134,7.0532,7.0315,7.0206,7.0532,7.0713,7.0749,7.1024,7.1422,7.1494,7.1494,7.1205,7.0698,7.077,7.0822,7.0423,7.0351,7.1024,7.1494,7.1422,7.1422,7.1386,7.1386,7.1494,7.0879,7.0087,6.2087,6.2172,6.2185,6.2301,6.2357,6.2278,6.2291,6.2384,6.2526,6.2603,6.2629,6.273,6.2629,6.241,6.2394,6.2185,6.205,6.1902,6.2529,6.3178,6.4028,6.4521,6.5228,6.5672,6.5828,6.5962,6.6197,6.6527,6.6743,6.7378,6.8151,6.9176,7.0036,7.0469,7.0444,7.0124,6.9706,6.9335,6.8742,6.8445,6.8334,6.8296,6.817,6.8043,6.7952,6.786,6.7767,6.77,6.7774,6.7774,6.7737,6.7737,6.7737,6.77,6.77,6.7958,6.8531,6.8935,6.9398,7.0293,7.0624,7.083,7.116,7.0426,7.0,7.0183,7.0513,7.055,7.055,7.0353,7.0311,7.0228,7.0157,6.9442,6.8771,6.8612,6.8419,6.837,6.81,6.8151,6.8334,6.8228,6.8336,6.834,6.9291,6.9771,7.0206,7.0351,7.0496,7.077,7.1132,7.1168,7.1132,7.1277,7.1386,7.1241,7.1277,7.1494,7.1494,7.1458,7.1168,7.0951,7.0858,7.0749,7.0604,7.0786,7.1313,7.1494,7.1494,7.1494,7.1494,7.1494,7.1479,7.1061,7.0461,6.2181,6.2235,6.2291,6.241,6.2539,6.2603,6.2603,6.2552,6.259,6.2654,6.273,6.2565,6.2498,6.2394,6.1969,6.1776,6.1795,6.2004,6.2639,6.3208,6.3857,6.472,6.5347,6.5725,6.5804,6.5915,6.6115,6.6452,6.6845,6.7424,6.8373,6.9443,7.0336,7.098,7.1142,7.0894,7.0363,6.9707,6.9013,6.8643,6.8482,6.8457,6.8296,6.8193,6.8043,6.7926,6.7754,6.77,6.7884,6.8348,6.7921,6.7884,6.8531,6.8104,6.7847,6.8605,6.9302,6.9963,7.061,7.1358,7.1688,7.1527,7.1784,7.1637,7.116,7.105,7.1358,7.1248,7.1219,7.1191,7.0995,7.0851,7.0522,6.9937,6.927,6.877,6.853,6.7984,6.7712,6.7615,6.78,6.8383,6.8352,6.9328,7.0242,7.0666,7.0951,7.1024,7.1132,7.135,7.1458,7.1494,7.1494,7.1494,7.1494,7.1386,7.1458,7.1494,7.1494,7.1494,7.1313,7.1096,7.0894,7.0822,7.0786,7.1024,7.1422,7.1458,7.1277,7.1458,7.1494,7.1494,7.1399,7.1065,7.08,6.2252,6.2357,6.2436,6.2552,6.2679,6.2755,6.2743,6.2692,6.2679,6.273,6.2792,6.2513,6.2367,6.2158,6.1776,6.148,6.1393,6.2028,6.2688,6.3403,6.4234,6.4999,6.5554,6.5768,6.5804,6.5931,6.613,6.6446,6.6946,6.7677,6.8592,6.9088,7.0214,7.1044,7.1391,7.1391,7.1242,7.04,6.9571,6.8939,6.8753,6.8704,6.8519,6.8466,6.8317,6.8039,6.7741,6.77,6.8031,6.8385,6.7811,6.7921,6.8348,6.7958,6.8054,6.8788,6.9596,7.0367,7.1087,7.1894,7.2041,7.2041,7.2151,7.1894,7.1821,7.1711,7.1857,7.1931,7.213,7.2219,7.1962,7.1646,7.1096,7.0508,6.9798,6.9104,6.8527,6.7891,6.764,6.7511,6.7912,6.8659,6.9405,7.0402,7.0934,7.0847,7.1024,7.1313,7.135,7.1422,7.1494,7.1494,7.1494,7.1494,7.1494,7.1494,7.1494,7.1494,7.1494,7.1458,7.1386,7.135,7.1205,7.1132,7.1096,7.1313,7.1531,7.1132,7.0987,7.1241,7.1494,7.1494,7.1415,7.1159,7.0963,6.2261,6.2481,6.2506,6.252,6.2669,6.2706,6.2717,6.273,6.2667,6.2755,6.2717,6.2475,6.2212,6.1996,6.1608,6.1414,6.1584,6.2087,6.2857,6.35,6.4234,6.5054,6.559,6.5732,6.5625,6.5808,6.6053,6.6319,6.7059,6.781,6.8371,6.8593,6.9942,7.0834,7.1094,7.1515,7.1552,7.149,7.0215,6.9236,6.9348,6.9162,6.8828,6.891,6.8635,6.8262,6.7891,6.7774,6.7774,6.7811,6.7737,6.7774,6.7737,6.7994,6.8348,6.9045,6.9926,7.0734,7.1454,7.2151,7.2422,7.2408,7.2445,7.2122,7.202,7.2114,7.2224,7.2063,7.2079,7.2219,7.2013,7.1833,7.139,7.0827,7.0216,6.9557,6.8926,6.8183,6.7421,6.7406,6.7932,6.8613,6.9094,6.9934,7.0851,7.0773,7.1024,7.1422,7.1494,7.1494,7.1567,7.1531,7.1494,7.1494,7.1494,7.1494,7.1494,7.1494,7.1494,7.1494,7.1458,7.1494,7.1531,7.1531,7.1567,7.1458,7.1458,7.1205,7.1132,7.1313,7.1494,7.1494,7.1384,7.1223,7.1191,6.1613,6.1689,6.1801,6.1751,6.1697,6.2232,6.237,6.2185,6.2185,6.2423,6.2654,6.2318,6.2051,6.1901,6.153,6.1453,6.1995,6.2429,6.3178,6.3877,6.4539,6.5054,6.5498,6.5229,6.5284,6.5522,6.5797,6.6229,6.7328,6.8006,6.8396,6.8593,6.9682,7.0314,7.0908,7.1366,7.1626,7.2159,7.1143,6.9979,6.9719,7.0016,6.9978,6.9416,6.8869,6.8886,6.8603,6.8311,6.8495,6.8568,6.7958,6.7774,6.77,6.8274,6.9009,6.9779,7.0513,7.1233,7.1908,7.2298,7.2445,7.2475,7.2409,7.2277,7.2241,7.2401,7.2357,7.202,7.1897,7.2057,7.2054,7.1872,7.1635,7.109,7.0546,6.9937,6.9372,6.8395,6.7394,6.7606,6.8046,6.8449,6.8937,6.9561,7.0446,7.0959,7.1219,7.1479,7.1494,7.1531,7.1639,7.1639,7.1531,7.1494,7.1494,7.1494,7.1494,7.1494,7.1494,7.1494,7.1531,7.1531,7.1567,7.1929,7.2038,7.1784,7.1603,7.1603,7.1567,7.1531,7.1494,7.1494,7.1494,7.1384,7.1384,6.1371,6.1483,6.1569,6.1728,6.1943,6.2253,6.2291,6.2158,6.2037,6.2158,6.2357,6.201,6.179,6.1856,6.1636,6.1786,6.2429,6.3092,6.377,6.4396,6.4717,6.511,6.5122,6.4838,6.5013,6.5279,6.5815,6.6541,6.7655,6.8159,6.8482,6.863,6.9311,7.0054,7.0796,7.1242,7.1775,7.2679,7.1812,7.1032,7.0276,7.0474,7.0472,6.9773,6.9692,6.9684,6.9301,6.8972,6.8788,6.8862,6.8458,6.8311,6.8458,6.9009,6.9779,7.0463,7.1087,7.1674,7.2239,7.2481,7.2452,7.2431,7.2373,7.2204,7.2101,7.2197,7.2211,7.1933,7.1865,7.1948,7.1811,7.164,7.142,7.0979,7.041,6.9809,6.9459,6.8946,6.8448,6.8536,6.8857,6.9035,6.9389,6.9581,7.0421,7.0904,7.124,7.1467,7.1483,7.1712,7.182,7.1893,7.1929,7.1639,7.1494,7.1494,7.1494,7.1494,7.1675,7.1567,7.1603,7.1567,7.1639,7.211,7.2219,7.1784,7.1639,7.1784,7.1603,7.1458,7.1494,7.1494,7.1531,7.1531,7.1571,6.12,6.1435,6.1569,6.1973,6.2522,6.2412,6.2291,6.2199,6.1983,6.1845,6.1832,6.1594,6.1458,6.1674,6.2042,6.2275,6.2786,6.3698,6.4396,6.4717,6.4646,6.524,6.513,6.4587,6.4575,6.5119,6.5929,6.684,6.7888,6.8247,6.8543,6.8679,6.9199,6.9942,7.0759,7.1441,7.1973,7.2531,7.2233,7.1626,7.1242,7.0932,7.0631,7.0526,7.0629,7.0531,7.006,6.9669,6.9265,6.8972,6.8972,6.8935,6.9119,6.9596,7.0293,7.0977,7.1454,7.1931,7.2334,7.2452,7.238,7.2307,7.2299,7.2159,7.2003,7.1942,7.1906,7.1882,7.1796,7.1703,7.1578,7.1388,7.1126,7.0814,7.0235,6.9742,6.9525,6.9324,6.927,6.9252,6.9416,6.9525,6.9705,6.9867,7.0289,7.08,7.115,7.1364,7.1617,7.199,7.2255,7.2472,7.2637,7.2291,7.2001,7.2001,7.213,7.2275,7.2456,7.2001,7.1675,7.1639,7.1893,7.2545,7.2472,7.2183,7.2001,7.2074,7.182,7.1531,7.1458,7.1531,7.1603,7.1623,7.1768,6.0591,6.0676,6.13,6.1593,6.1622,6.1894,6.1928,6.1664,6.1444,6.127,6.1314,6.1285,6.1263,6.1494,6.2063,6.2464,6.3,6.4075,6.4967,6.5431,6.4709,6.5242,6.5309,6.4274,6.3833,6.4609,6.5858,6.6799,6.7679,6.8222,6.8531,6.8568,6.8568,6.9162,6.9868,7.0499,7.1032,7.1775,7.2085,7.1515,7.1279,7.0969,7.0755,7.0959,7.1468,7.107,7.0684,7.066,7.0367,6.9926,6.9412,6.9486,6.9816,7.022,7.0756,7.1329,7.1843,7.2122,7.2401,7.238,7.2292,7.2204,7.2099,7.1903,7.1796,7.1666,7.1635,7.1573,7.1531,7.1531,7.1388,7.1094,7.0847,7.0426,6.992,6.9722,6.9464,6.9318,6.9227,6.9337,6.9499,6.961,6.9736,7.0044,7.0555,7.0998,7.1343,7.1613,7.2372,7.2585,7.2746,7.3108,7.3398,7.3506,7.347,7.3181,7.3217,7.3325,7.3181,7.2746,7.2255,7.1748,7.211,7.2943,7.3088,7.2834,7.269,7.2509,7.211,7.1841,7.1603,7.1531,7.1696,7.1922,7.2199]}]]